Date StartTime U_cm/s V_cm/s W_cm/s Ustd_cm/s Vstd_cm/s Wstd_cm/s Uvar_(cm/s)^2 Vvar_(cm/s)^2 Wvar_(cm/s)^2 KE_(m/s)^2 TurbulentKE_(m/s)^2 HorizWindSpeed_cm/s FrictionSpeec_cm/s DragCoef SpeedOfSound_m/s SonicTemperature_C Pressure_mb 
05/10/2014  00:00:00     -281.663      -71.729      -17.747      149.964       94.758       69.165    22489.309     8979.047     4783.755        6.052        1.813      290.653       82.332        0.080      338.233       10.742      861.315
05/10/2014  00:01:00     -194.904        4.968      -11.848       71.252       68.731       54.293     5076.834     4724.002     2947.738        2.545        0.637      194.968       42.431        0.047      338.314       10.879      861.331
05/10/2014  00:02:00     -268.047      -87.599      -18.790      126.387      109.227       58.132    15973.746    11930.592     3379.307        5.557        1.564      281.998       53.532        0.036      338.341       10.924      861.356
05/10/2014  00:03:00     -316.470     -114.406      -32.975      125.137      116.453       55.066    15659.252    13561.353     3032.291        7.328        1.613      336.514       48.013        0.020      338.238       10.752      861.383
05/10/2014  00:04:00     -186.220     -133.575       -8.282      140.219      113.810       60.249    19661.357    12952.796     3629.906        4.441        1.812      229.173       65.169        0.081      338.236       10.748      861.358
05/10/2014  00:05:00     -123.208      -80.297       10.579       92.422       75.484       46.010     8541.912     5697.817     2116.904        1.904        0.818      147.064       53.193        0.131      338.249       10.771      861.361
05/10/2014  00:06:00     -224.318       -6.175      -30.414      141.632      118.085       50.436    20059.624    13943.995     2543.775        4.391        1.827      224.402       59.885        0.071      338.300       10.855      861.349
05/10/2014  00:07:00     -448.527      -35.713      -47.604       96.189      134.280       60.108     9252.319    18031.035     3612.938       11.780        1.545      449.946       47.276        0.011      338.294       10.844      861.326
05/10/2014  00:08:00     -192.337      -82.541      -18.599       77.558       57.198       35.210     6015.279     3271.622     1239.731        2.734        0.526      209.300       15.539        0.006      338.244       10.760      861.306
05/10/2014  00:09:00     -149.569      -38.875      -20.849       54.610      102.612       35.759     2982.276    10529.199     1278.685        1.955        0.740      154.539       22.402        0.021      338.250       10.772      861.306
05/10/2014  00:10:00     -125.767       20.505      -16.683       97.588       82.352       34.682     9523.369     6781.790     1202.834        1.701        0.875      127.428       38.364        0.091      338.305       10.864      861.285
05/10/2014  00:11:00     -272.249      -50.824      -20.693       86.053      117.549       46.174     7405.090    13817.796     2132.073        5.024        1.168      276.952       49.176        0.032      338.224       10.726      861.275
05/10/2014  00:12:00     -160.952       60.459      -11.644       86.209      147.475       48.692     7432.077    21748.750     2370.929        3.062        1.578      171.932       54.830        0.102      338.238       10.751      861.269
05/10/2014  00:13:00     -186.155      -13.983      -23.642      110.796       74.688       54.589    12275.650     5578.303     2979.979        2.812        1.042      186.679       57.007        0.093      338.275       10.813      861.260
05/10/2014  00:14:00     -214.259       -1.625      -23.775       82.282       93.914       41.555     6770.312     8819.869     1726.824        3.189        0.866      214.265       29.485        0.019      338.271       10.806      861.265
05/10/2014  00:15:00     -192.698      -47.672      -20.790      103.173       68.851       40.320    10644.632     4740.418     1625.674        2.842        0.851      198.508       39.242        0.039      338.283       10.827      861.253
05/10/2014  00:16:00     -189.411        4.888      -13.975       99.864       72.233       38.095     9972.840     5217.573     1451.216        2.637        0.832      189.474       35.773        0.036      338.297       10.851      861.258
05/10/2014  00:17:00      -57.476      -17.008        6.023       73.841       58.042       29.614     5452.561     3368.856      876.993        0.666        0.485       59.940       35.806        0.357      338.254       10.779      861.278
05/10/2014  00:18:00      -71.974       19.235      -14.775       69.167       64.221       43.638     4784.012     4124.347     1904.259        0.829        0.541       74.500       27.555        0.137      338.299       10.854      861.269
05/10/2014  00:19:00     -201.718      -39.964       -0.414       71.055       78.181       36.163     5048.828     6112.198     1307.769        2.738        0.623      205.639       29.559        0.021      338.190       10.669      861.279
05/10/2014  00:20:00     -133.902      -18.994        1.331       68.813       70.948       40.169     4735.188     5033.604     1613.540        1.484        0.569      135.243       27.641        0.042      338.222       10.725      861.288
05/10/2014  00:21:00      -75.183      -32.047        7.149       70.796       78.064       55.670     5012.040     6094.000     3099.118        1.047        0.710       81.728       48.588        0.353      338.291       10.844      861.294
05/10/2014  00:22:00      -84.612      -39.067       11.375       98.926       60.019       31.510     9786.375     3602.287      992.860        1.160        0.719       93.196       40.910        0.193      338.161       10.624      861.305
05/10/2014  00:23:00     -270.233      -43.789      -13.545       84.965       76.389       41.138     7219.077     5835.254     1692.299        4.493        0.737      273.758       41.437        0.023      338.140       10.585      861.318
05/10/2014  00:24:00     -277.261      -11.286      -23.121      124.722      136.810       60.605    15555.542    18716.845     3672.974        5.773        1.897      277.490       49.860        0.032      338.247       10.764      861.303
05/10/2014  00:25:00     -345.448      -63.998      -19.430      127.902      109.654       59.674    16359.025    12024.094     3560.988        7.787        1.597      351.326       56.957        0.026      338.209       10.700      861.314
05/10/2014  00:26:00     -289.923      -70.287      -23.246      121.987      127.314       60.373    14880.769    16208.879     3644.847        6.213        1.737      298.321       61.598        0.043      338.148       10.599      861.301
05/10/2014  00:27:00     -312.842      -72.775      -27.900      100.886      117.687       49.461    10177.910    13850.269     2446.413        6.520        1.324      321.195       37.420        0.014      338.186       10.663      861.295
05/10/2014  00:28:00     -180.342      -26.867       -0.923       90.709       65.650       44.101     8228.052     4309.984     1944.915        2.386        0.724      182.333       45.961        0.064      338.116       10.547      861.297
05/10/2014  00:29:00     -122.686      -23.777       -1.337       82.481       36.875       28.171     6803.076     1359.771      793.585        1.229        0.448      124.968       31.244        0.063      338.144       10.594      861.299
05/10/2014  00:30:00     -166.518       16.777       -5.998      120.681       57.569       45.989    14563.889     3314.235     2114.958        2.402        1.000      167.361       60.708        0.132      338.237       10.749      861.319
05/10/2014  00:31:00     -216.528        9.408       -9.537      124.382       85.601       48.536    15470.964     7327.530     2355.783        3.610        1.258      216.732       53.826        0.062      338.142       10.592      861.311
05/10/2014  00:32:00     -229.833      -91.980       -2.617      112.733      106.680       54.445    12708.665    11380.715     2964.252        4.417        1.353      247.555       48.003        0.038      338.161       10.622      861.302
05/10/2014  00:33:00     -301.517      -96.138      -14.892      141.721       99.227       56.519    20084.772     9845.906     3194.445        6.674        1.656      316.472       53.230        0.028      338.163       10.623      861.284
05/10/2014  00:34:00     -299.711      -62.251      -21.572      127.656       88.012       46.531    16296.053     7746.030     2165.152        6.018        1.310      306.107       32.195        0.011      338.159       10.619      861.311
05/10/2014  00:35:00     -208.518     -122.324       -2.955      112.944       70.532       53.803    12756.262     4974.715     2894.718        3.953        1.031      241.750       56.816        0.055      338.146       10.597      861.308
05/10/2014  00:36:00     -210.817      -71.794      -12.766      111.079       66.500       43.669    12338.573     4422.226     1907.002        3.421        0.933      222.706       50.338        0.051      338.152       10.604      861.316
05/10/2014  00:37:00     -444.436       20.621      -51.481      101.305       64.030       46.608    10262.753     4099.805     2172.283       10.856        0.827      444.914       40.452        0.008      338.189       10.667      861.300
05/10/2014  00:38:00     -331.284     -118.292      -26.721      104.781       86.685       52.303    10979.052     7514.314     2735.563        7.284        1.061      351.770       41.124        0.014      338.144       10.592      861.295
05/10/2014  00:39:00     -286.712      -72.298      -16.159       79.259       98.941       50.901     6282.056     9789.390     2590.936        5.317        0.933      295.687       47.918        0.026      338.201       10.687      861.289
05/10/2014  00:40:00     -177.849      -40.802      -13.413       91.839       63.434       39.342     8434.387     4023.817     1547.812        2.374        0.700      182.470       44.944        0.061      338.252       10.774      861.279
05/10/2014  00:41:00     -305.569      -51.663      -24.465      105.459       81.572       47.853    11121.569     6654.053     2289.871        5.835        1.003      309.906       52.868        0.029      338.183       10.657      861.264
05/10/2014  00:42:00     -229.421      -12.411      -13.916      110.989       93.117       56.081    12318.454     8670.771     3145.067        3.855        1.207      229.756       55.882        0.059      338.253       10.774      861.237
05/10/2014  00:43:00     -266.001      -76.876       -4.645      144.566      111.481       50.664    20899.210    12428.082     2566.891        5.628        1.795      276.887       60.257        0.047      338.266       10.798      861.237
05/10/2014  00:44:00     -140.300      -86.595       14.063      173.425      134.561       68.546    30076.375    18106.797     4698.552        4.012        2.644      164.871       86.429        0.275      338.213       10.709      861.227
05/10/2014  00:45:00     -139.751      -74.348       -4.450       74.637       52.930       31.760     5570.660     2801.560     1008.687        1.723        0.469      158.297       26.999        0.029      338.263       10.793      861.238
05/10/2014  00:46:00     -216.589        7.696       -8.575      115.360       70.996       59.071    13307.955     5040.472     3489.349        3.444        1.092      216.725       67.336        0.097      338.335       10.914      861.232
05/10/2014  00:47:00     -227.843        0.421      -18.296      107.479      103.798       43.387    11551.783    10773.977     1882.417        3.822        1.210      227.844       40.672        0.032      338.253       10.774      861.219
05/10/2014  00:48:00     -205.924      -22.135      -10.295      118.768       73.316       48.870    14105.757     5375.293     2388.303        3.243        1.093      207.110       52.109        0.063      338.215       10.713      861.196
05/10/2014  00:49:00     -239.858       45.934      -19.032      123.280       79.141       43.242    15198.047     6263.247     1869.904        4.166        1.167      244.217       50.154        0.042      338.337       10.917      861.181
05/10/2014  00:50:00     -226.800      -66.833       -9.904       89.255       46.431       36.990     7966.392     2155.835     1368.273        3.374        0.575      236.442       37.764        0.026      338.218       10.716      861.173
05/10/2014  00:51:00     -202.205      -86.147       -3.546       55.314       44.761       35.731     3059.680     2003.510     1276.669        2.733        0.317      219.791       31.055        0.020      338.169       10.634      861.178
05/10/2014  00:52:00     -147.757      -57.260       -4.350       45.217       46.227       29.987     2044.551     2136.897      899.234        1.510        0.254      158.464       22.620        0.020      338.181       10.658      861.169
05/10/2014  00:53:00     -154.617      -15.727       -6.482       60.097       44.700       34.722     3611.655     1998.099     1205.643        1.550        0.341      155.414       36.731        0.056      338.217       10.719      861.136
05/10/2014  00:54:00     -149.341      -28.992       -1.716       51.424       47.354       27.818     2644.408     2242.435      773.853        1.440        0.283      152.129       28.627        0.035      338.224       10.729      861.124
05/10/2014  00:55:00     -119.403      -37.590        4.078       48.505       48.162       27.738     2352.753     2319.562      769.418        1.056        0.272      125.180       26.031        0.043      338.188       10.670      861.098
05/10/2014  00:56:00     -184.257      -64.268       -9.709       35.229       37.592       21.577     1241.105     1413.181      465.550        2.065        0.156      195.143       10.273        0.003      338.160       10.623      861.081
05/10/2014  00:57:00     -124.700      -74.387       -1.803       72.986       49.038       34.233     5326.887     2404.746     1171.883        1.499        0.445      145.201       36.893        0.065      338.166       10.631      861.072
05/10/2014  00:58:00     -172.316      -32.840      -10.104       45.836       41.519       32.717     2100.950     1723.794     1070.384        1.788        0.245      175.418       31.089        0.031      338.145       10.597      861.068
05/10/2014  00:59:00     -119.141      -44.520        0.010       52.230       49.912       34.042     2727.931     2491.192     1158.845        1.128        0.319      127.187       34.652        0.074      338.227       10.735      861.060
05/10/2014  01:00:00     -128.204       21.966       -5.337       70.134       55.492       27.709     4918.813     3079.322      767.802        1.285        0.438      130.072       26.818        0.043      338.234       10.746      861.040
05/10/2014  01:01:00     -196.581       13.964      -19.006       71.946       40.362       28.362     5176.164     1629.061      804.412        2.340        0.380      197.077       32.003        0.026      338.359       10.953      861.024
05/10/2014  01:02:00     -215.063       -4.932      -23.191       51.010       37.647       32.209     2601.997     1417.318     1037.416        2.593        0.253      215.119       30.430        0.020      338.240       10.753      861.013
05/10/2014  01:03:00     -142.790      -24.859      -14.936       41.537       35.646       27.998     1725.361     1270.630      783.880        1.250        0.189      144.938       24.929        0.030      338.183       10.663      860.997
05/10/2014  01:04:00     -148.462      -63.202      -11.171       57.134       47.386       31.966     3264.331     2245.460     1021.845        1.634        0.327      161.355       25.342        0.025      338.192       10.676      860.981
05/10/2014  01:05:00     -123.024      -25.938       -9.168       61.223       54.877       32.403     3748.300     3011.534     1049.942        1.185        0.390      125.729       34.495        0.075      338.215       10.715      860.966
05/10/2014  01:06:00     -215.934      -47.997      -14.371       60.155       50.188       33.916     3618.599     2518.873     1150.277        2.821        0.364      221.204       29.940        0.018      338.174       10.641      860.952
05/10/2014  01:07:00     -138.869       22.594        5.032       77.442       54.427       42.391     5997.336     2962.344     1797.015        1.529        0.538      140.695       39.119        0.077      338.418       11.055      860.947
05/10/2014  01:08:00     -160.519      -54.869      -15.380      102.924       74.720       39.937    10593.346     5583.144     1594.946        2.339        0.889      169.638       36.807        0.047      338.304       10.863      860.949
05/10/2014  01:09:00     -228.145      -12.892      -13.147       91.429       54.914       42.981     8359.313     3015.553     1847.392        3.280        0.661      228.509       43.379        0.036      338.255       10.779      860.958
05/10/2014  01:10:00     -135.095       24.712       -4.151       73.770       60.734       36.144     5442.049     3688.653     1306.420        1.466        0.522      137.337       37.589        0.075      338.388       11.005      860.940
05/10/2014  01:11:00     -174.270       28.028       -8.848       75.563       48.780       37.691     5709.785     2379.520     1420.578        2.037        0.475      176.510       40.714        0.053      338.401       11.027      860.921
05/10/2014  01:12:00     -205.352      -75.547        1.647       48.771       49.202       26.161     2378.578     2420.810      684.420        2.668        0.274      218.807       22.559        0.011      338.267       10.799      860.915
05/10/2014  01:13:00     -156.553      -65.474       -1.513       88.802       57.957       37.930     7885.881     3359.040     1438.706        2.074        0.634      169.693       48.843        0.083      338.318       10.887      860.938
05/10/2014  01:14:00     -213.091       28.450      -16.881       74.154       55.687       42.801     5498.863     3101.059     1831.906        2.846        0.522      214.981       38.120        0.031      338.457       11.118      860.962
05/10/2014  01:15:00      -34.600      -75.824        1.084      103.335       70.797       36.829    10678.177     5012.155     1356.347        1.199        0.852       83.345       45.326        0.296      338.388       11.006      860.956
05/10/2014  01:16:00     -145.750      -11.298      -17.846       37.201       75.988       28.617     1383.929     5774.110      818.914        1.483        0.399      146.187       16.544        0.013      338.443       11.098      860.943
05/10/2014  01:17:00     -149.060       61.282      -10.663      101.662       80.576       37.795    10335.068     6492.486     1428.471        2.217        0.913      161.166       45.176        0.079      338.400       11.026      860.935
05/10/2014  01:18:00     -318.459     -141.916      -33.768       93.303       96.984       51.358     8705.361     9405.923     2637.611        7.172        1.037      348.649       30.635        0.008      338.261       10.791      860.921
05/10/2014  01:19:00     -286.251      -61.186      -15.495      103.553       90.116       46.122    10723.297     8120.878     2127.244        5.344        1.049      292.717       47.568        0.026      338.198       10.682      860.947
05/10/2014  01:20:00     -134.224      -57.729       -4.673       83.534       71.059       39.440     6977.880     5049.405     1555.486        1.747        0.679      146.113       32.944        0.051      338.264       10.794      860.943
05/10/2014  01:21:00     -188.310      -86.358      -12.057       50.791       40.643       24.128     2579.757     1651.823      582.137        2.394        0.241      207.167       23.770        0.013      338.134       10.577      860.941
05/10/2014  01:22:00     -209.694      -44.872      -32.292       49.006       32.237       26.236     2401.553     1039.219      688.337        2.558        0.206      214.442       17.175        0.006      338.152       10.607      860.936
05/10/2014  01:23:00     -151.076      -50.131      -17.966       53.071       36.864       25.739     2816.536     1358.924      662.488        1.525        0.242      159.176       21.309        0.018      338.200       10.689      860.929
05/10/2014  01:24:00     -132.234      -21.625        1.543       71.825       45.903       24.592     5158.765     2107.107      604.768        1.291        0.394      133.991       28.740        0.046      338.318       10.887      860.915
05/10/2014  01:25:00     -265.750      -21.509      -14.617      128.286       63.929       46.508    16457.170     4086.897     2163.030        4.700        1.135      266.619       46.949        0.031      338.215       10.712      860.912
05/10/2014  01:26:00     -162.998       11.492      -16.478       65.331       66.530       42.697     4268.160     4426.203     1823.010        1.874        0.526      163.402       39.578        0.059      338.261       10.791      860.894
05/10/2014  01:27:00     -195.442      -53.805        2.195      117.817       99.565       50.337    13880.839     9913.209     2533.838        3.371        1.316      202.713       54.923        0.073      338.268       10.801      860.892
05/10/2014  01:28:00     -229.840      -73.100       -1.727       91.326       78.672       43.398     8340.406     6189.330     1883.424        3.729        0.821      241.184       49.632        0.042      338.188       10.664      860.882
05/10/2014  01:29:00     -251.901      -83.871       -5.266       96.063       71.668       42.488     9228.162     5136.303     1805.254        4.334        0.808      265.496       39.592        0.022      338.142       10.589      860.882
05/10/2014  01:30:00     -264.805      -63.072      -16.880      104.495       78.874       49.180    10919.161     6221.161     2418.720        4.697        0.978      272.212       45.537        0.028      338.146       10.595      860.858
05/10/2014  01:31:00     -237.110       -9.195      -14.540       96.864       96.584       57.167     9382.614     9328.401     3268.043        3.924        1.099      237.289       46.645        0.039      338.238       10.751      860.834
05/10/2014  01:32:00     -185.110     -102.222        2.138      120.150       89.327       61.364    14436.112     7979.309     3765.579        3.545        1.309      211.460       58.825        0.077      338.158       10.616      860.839
05/10/2014  01:33:00     -288.725     -159.363      -10.646      106.110       87.109       60.545    11259.297     7588.033     3665.683        6.569        1.126      329.786       44.124        0.018      338.132       10.573      860.841
05/10/2014  01:34:00     -203.086      -93.265      -12.068       72.205       75.397       40.420     5213.630     5684.645     1633.799        3.131        0.627      223.478       33.782        0.023      338.169       10.633      860.857
05/10/2014  01:35:00     -221.378     -110.945       -2.459      156.558       89.901       68.397    24510.290     8082.108     4678.134        4.929        1.864      247.623       85.895        0.120      338.153       10.608      860.846
05/10/2014  01:36:00     -270.043     -120.717      -16.335      120.613       67.283       48.394    14547.609     4527.046     2341.994        5.459        1.071      295.796       57.080        0.037      338.121       10.555      860.841
05/10/2014  01:37:00     -122.310      -35.861       12.157       92.601       81.660       56.065     8574.889     6668.398     3143.334        1.739        0.919      127.459       55.819        0.192      338.189       10.668      860.826
05/10/2014  01:38:00     -237.658        0.728      -26.112      116.326       61.102       43.633    13531.770     3733.483     1903.854        3.816        0.958      237.659       47.668        0.040      338.259       10.785      860.801
05/10/2014  01:39:00     -220.438      -42.593       -3.233       72.901       68.829       41.608     5314.613     4737.478     1731.241        3.110        0.589      224.515       43.524        0.038      338.177       10.648      860.778
05/10/2014  01:40:00     -234.850      -39.953       -8.914      103.719       50.849       39.796    10757.708     2585.611     1583.737        3.588        0.746      238.224       41.578        0.030      338.197       10.681      860.766
05/10/2014  01:41:00     -267.292       22.851      -28.253      100.588       83.108       45.629    10117.962     6907.010     2082.006        4.593        0.955      268.267       31.205        0.014      338.247       10.765      860.768
05/10/2014  01:42:00     -341.049        1.969      -36.310      126.732       72.722       46.482    16060.883     5288.429     2160.609        7.057        1.175      341.055       55.654        0.027      338.207       10.697      860.765
05/10/2014  01:43:00     -345.643     -101.585      -12.830      111.203       94.407       48.332    12366.028     8912.641     2335.940        7.678        1.181      360.262       52.125        0.021      338.105       10.527      860.769
05/10/2014  01:44:00     -271.903      -93.664       -5.751      116.526       80.703       45.877    13578.216     6512.965     2104.741        5.246        1.110      287.583       53.644        0.035      338.093       10.508      860.773
05/10/2014  01:45:00     -259.441      -49.594       -4.983      100.743       87.350       55.283    10149.221     7629.984     3056.180        4.531        1.042      264.138       60.706        0.053      338.176       10.646      860.781
05/10/2014  01:46:00     -390.451     -121.081      -10.813      107.013       73.919       48.752    11451.734     5463.980     2376.729        9.326        0.965      408.794       46.528        0.013      338.105       10.527      860.778
05/10/2014  01:47:00     -201.683      -73.455      -10.589       97.145       83.478       57.359     9437.133     6968.602     3290.059        3.294        0.985      214.643       50.519        0.055      338.115       10.545      860.763
05/10/2014  01:48:00     -265.910      -64.879       -2.199       87.900       80.968       42.655     7726.387     6555.750     1819.475        4.551        0.805      273.710       38.922        0.020      338.100       10.518      860.768
05/10/2014  01:49:00     -273.121      -85.316       -4.990       98.857       81.441       54.851     9772.769     6632.671     3008.613        5.065        0.971      286.136       51.600        0.033      338.076       10.477      860.765
05/10/2014  01:50:00     -238.388     -130.649      -11.116       97.493       96.152       46.835     9504.958     9245.190     2193.509        4.748        1.047      271.842       45.822        0.028      338.075       10.475      860.761
05/10/2014  01:51:00     -333.928       -4.886      -22.567      104.205      114.329       56.745    10858.628    13071.079     3219.961        6.959        1.357      333.964       44.110        0.017      338.118       10.549      860.763
05/10/2014  01:52:00     -234.581      -61.369      -15.290      139.563       86.636       47.951    19477.806     7505.722     2299.325        4.415        1.464      242.475       58.578        0.058      338.091       10.503      860.740
05/10/2014  01:53:00     -172.618      -56.669       -1.990      102.044       81.385       46.499    10413.077     6623.444     2162.154        2.610        0.960      181.683       43.134        0.056      338.055       10.445      860.736
05/10/2014  01:54:00     -161.415      -48.329      -11.791       66.690       65.728       44.491     4447.620     4320.129     1979.480        1.964        0.537      168.495       29.358        0.030      338.136       10.582      860.721
05/10/2014  01:55:00     -203.312      -76.495      -29.960       86.552       77.323       45.324     7491.202     5978.885     2054.241        3.180        0.776      217.226       36.745        0.029      338.066       10.462      860.708
05/10/2014  01:56:00     -151.275      -50.267      -16.835       65.220       56.575       37.138     4253.666     3200.709     1379.214        1.726        0.442      159.408       20.824        0.017      338.084       10.496      860.713
05/10/2014  01:57:00      -39.719        7.207        4.796       63.765       50.790       36.081     4065.937     2579.639     1301.825        0.480        0.397       40.367       36.741        0.828      338.106       10.532      860.692
05/10/2014  01:58:00     -191.617      -63.445        1.510       91.135       78.568       45.794     8305.514     6172.865     2097.109        2.866        0.829      201.847       39.609        0.039      338.104       10.527      860.689
05/10/2014  01:59:00     -227.967      -14.720      -12.047      110.967       91.432       43.100    12313.609     8359.848     1857.620        3.743        1.127      228.441       45.314        0.039      338.074       10.476      860.696
05/10/2014  02:00:00     -153.033      -44.296       -5.502      120.824      125.724       60.024    14598.408    15806.630     3602.849        2.970        1.700      159.314       64.349        0.163      338.189       10.670      860.683
05/10/2014  02:01:00     -207.857      -57.251       -9.807       94.452       82.009       49.164     8921.266     6725.395     2417.098        3.232        0.903      215.597       46.780        0.047      338.050       10.434      860.677
05/10/2014  02:02:00     -132.998       63.504      -18.552       66.078       48.379       38.778     4366.321     2340.480     1503.769        1.514        0.411      147.381       35.436        0.058      338.065       10.464      860.674
05/10/2014  02:03:00     -125.802       63.405      -10.752       88.077       58.992       43.763     7757.570     3480.085     1915.234        1.655        0.658      140.877       51.076        0.131      338.160       10.621      860.662
05/10/2014  02:04:00      -70.731       69.479        1.027       61.205       47.774       39.345     3746.070     2282.388     1548.044        0.870        0.379       99.148       28.017        0.080      338.078       10.483      860.637
05/10/2014  02:05:00     -145.013       47.305      -17.730       61.400       82.912       32.855     3770.018     6874.408     1079.447        1.765        0.586      152.534       28.504        0.035      338.101       10.522      860.607
05/10/2014  02:06:00     -132.846      -76.385       -4.175      110.110       69.944       48.099    12124.243     4892.211     2313.539        2.141        0.966      153.241       38.615        0.063      338.006       10.363      860.583
05/10/2014  02:07:00      -40.373      -43.042        6.944       39.374       35.508       27.209     1550.310     1260.801      740.328        0.354        0.178       59.013       22.985        0.152      337.970       10.304      860.569
05/10/2014  02:08:00      -60.175      -36.833        1.909       46.002       38.159       31.366     2116.139     1456.141      983.823        0.477        0.228       70.553       24.559        0.121      337.992       10.341      860.564
05/10/2014  02:09:00      -42.632       16.134        9.925       33.954       32.144       21.538     1152.906     1033.254      463.899        0.241        0.133       45.583       18.276        0.161      338.024       10.395      860.568
05/10/2014  02:10:00     -102.897      -70.736       -1.059       75.747       56.513       33.644     5737.660     3193.717     1131.898        1.283        0.503      124.865       38.267        0.094      338.005       10.363      860.582
05/10/2014  02:11:00     -250.006      -26.371       -9.561       75.694       98.784       43.720     5729.657     9758.196     1911.439        4.034        0.870      251.393       37.298        0.022      338.014       10.375      860.576
05/10/2014  02:12:00     -134.430      -57.329        4.273       78.797       63.971       39.747     6208.968     4092.310     1579.836        1.663        0.594      146.144       42.212        0.083      337.939       10.250      860.573
05/10/2014  02:13:00      -41.252      -36.714       -1.649       45.203       49.436       36.532     2043.305     2443.957     1334.621        0.444        0.291       55.223       27.886        0.255      338.059       10.454      860.566
05/10/2014  02:14:00     -219.567      -30.031      -12.765      131.398       65.113       50.273    17265.383     4239.653     2527.389        3.665        1.202      221.612       64.191        0.084      337.961       10.286      860.569
05/10/2014  02:15:00     -170.329      -53.458       -8.604       97.673       78.377       45.090     9539.920     6142.893     2033.124        2.483        0.886      178.521       40.523        0.052      337.964       10.292      860.545
05/10/2014  02:16:00     -192.189        4.698       -2.879      116.343       79.830       52.673    13535.583     6372.837     2774.489        2.982        1.134      192.247       58.896        0.094      338.113       10.541      860.524
05/10/2014  02:17:00     -289.642      -85.134      -12.182      107.787       85.103       52.163    11618.009     7242.589     2720.931        5.643        1.079      301.894       42.635        0.020      337.958       10.282      860.518
05/10/2014  02:18:00     -138.223      -59.211      -16.940      107.031       58.960       35.730    11455.716     3476.248     1276.617        1.955        0.810      150.371       29.328        0.038      337.930       10.236      860.522
05/10/2014  02:19:00     -116.912      -49.154       -3.736       83.000       54.008       33.760     6889.005     2916.815     1139.743        1.352        0.547      126.825       34.470        0.074      337.954       10.276      860.521
05/10/2014  02:20:00      -27.882      -58.211       -2.219       61.189       46.226       33.751     3744.039     2136.804     1139.148        0.559        0.351       64.544       25.364        0.154      338.045       10.430      860.511
05/10/2014  02:21:00     -226.319      -43.467       -7.990      131.725       88.667       57.205    17351.429     7861.792     3272.432        4.082        1.424      230.456       55.198        0.057      337.998       10.349      860.506
05/10/2014  02:22:00     -136.645      -77.517        0.719      148.288       78.473       61.022    21989.222     6157.998     3723.726        2.827        1.594      157.101       78.741        0.251      338.001       10.354      860.482
05/10/2014  02:23:00     -128.839      -19.216       16.144      156.843       99.046       73.957    24599.613     9810.158     5469.682        2.855        1.994      130.264       88.022        0.457      338.009       10.368      860.467
05/10/2014  02:24:00      -71.072      -53.152        8.345       81.861       57.799       47.387     6701.172     3340.769     2245.539        1.011        0.614       88.749       19.746        0.050      338.002       10.357      860.464
05/10/2014  02:25:00     -170.183      -98.021        3.206      100.465       62.027       39.638    10093.286     3847.331     1571.182        2.704        0.776      196.393       39.173        0.040      337.956       10.280      860.483
05/10/2014  02:26:00     -191.897      -70.021       -4.865       94.117       74.381       40.832     8857.974     5532.567     1667.228        2.890        0.803      204.273       44.339        0.047      337.953       10.274      860.489
05/10/2014  02:27:00     -298.590      -32.148      -26.972       69.093       69.640       38.030     4773.909     4849.661     1446.318        5.099        0.553      300.315       30.783        0.011      337.977       10.311      860.503
05/10/2014  02:28:00     -279.507     -101.012       -6.974       70.255       72.854       42.649     4935.788     5307.642     1818.979        5.022        0.603      297.200       39.561        0.018      337.931       10.233      860.512
05/10/2014  02:29:00     -218.334      -92.363      -33.407       72.356       91.762       43.521     5235.368     8420.355     1894.082        3.643        0.777      237.067       33.048        0.019      337.943       10.255      860.501
05/10/2014  02:30:00      -52.562      -35.083      -14.659       60.519       53.364       28.822     3662.505     2847.682      830.711        0.577        0.367       63.195       22.874        0.131      337.997       10.349      860.485
05/10/2014  02:31:00      -77.030        1.206        6.863       62.280       43.620       28.972     3878.802     1902.686      839.349        0.630        0.331       77.039       32.951        0.183      337.996       10.350      860.464
05/10/2014  02:32:00      -28.459      -74.011       -8.008       27.635       36.820       25.425      763.712     1355.715      646.456        0.456        0.138       79.294       16.276        0.042      337.987       10.334      860.436
05/10/2014  02:33:00      -63.103       10.985       11.794       56.299       39.113       24.936     3169.528     1529.819      621.792        0.478        0.266       64.052       25.618        0.160      337.958       10.285      860.406
05/10/2014  02:34:00       -6.728      -70.364       16.502       15.223       13.951       22.171      231.735      194.627      491.566        0.309        0.046       70.685       10.870        0.024      338.014       10.378      860.398
05/10/2014  02:35:00      -37.968      -31.950       -8.630       17.063       12.114       14.287      291.158      146.751      204.112        0.159        0.032       49.622        6.675        0.018      338.024       10.394      860.400
05/10/2014  02:36:00      -38.644        5.873       -5.805       40.926       41.114       22.893     1674.963     1690.324      524.101        0.272        0.194       39.087       22.914        0.344      337.996       10.349      860.392
05/10/2014  02:37:00       59.304       25.817       -6.302       27.936       34.819       35.941      780.438     1212.373     1291.748        0.375        0.164       64.680       23.212        0.129      337.951       10.274      860.369
05/10/2014  02:38:00      -75.851       11.377        0.362       60.599       28.729       25.596     3672.196      825.379      655.171        0.552        0.258       76.699       26.651        0.121      338.121       10.558      860.336
05/10/2014  02:39:00     -127.515       43.633       -2.641       43.637       30.640       23.535     1904.174      938.821      553.911        1.078        0.170      134.773       23.507        0.030      338.084       10.496      860.316
05/10/2014  02:40:00      -74.099      -25.941       15.383       62.275       46.682       28.018     3878.119     2179.191      785.013        0.662        0.342       78.509       30.243        0.148      337.947       10.266      860.300
05/10/2014  02:41:00      -85.238       34.995       -8.518       40.982       30.431       22.538     1679.494      926.056      507.964        0.584        0.156       92.143       20.068        0.047      337.984       10.330      860.283
05/10/2014  02:42:00      -89.987      -19.418      -12.454       36.530       33.285       24.305     1334.446     1107.893      590.749        0.583        0.152       92.058       17.870        0.038      338.142       10.592      860.264
05/10/2014  02:43:00      -17.352      -24.119       -2.725       22.135       18.397       16.905      489.941      338.442      285.782        0.100        0.056       29.712       12.876        0.188      337.916       10.211      860.245
05/10/2014  02:44:00      -16.774       19.820        4.949       24.795       31.374       18.067      614.800      984.348      326.401        0.131        0.096       25.965       22.837        0.774      337.914       10.210      860.226
05/10/2014  02:45:00      -51.748       85.863      -14.800       24.959       32.245       20.839      622.936     1039.732      434.250        0.618        0.105      100.251       11.261        0.013      337.982       10.324      860.215
05/10/2014  02:46:00      -79.268       42.514       -9.601       27.279       20.850       20.532      744.134      434.742      421.573        0.489        0.080       89.949        7.268        0.007      338.107       10.534      860.208
05/10/2014  02:47:00      -74.651        7.063       -3.800       28.556       21.152       19.539      815.426      447.388      381.769        0.364        0.082       74.984       19.114        0.065      338.064       10.461      860.224
05/10/2014  02:48:00      -73.170      -25.690       -8.643       25.321       21.055       16.320      641.160      443.313      266.333        0.372        0.068       77.548        9.761        0.016      338.083       10.493      860.232
05/10/2014  02:49:00      -35.946       33.152        0.466       18.871       33.278       13.228      356.120     1107.407      174.986        0.201        0.082       48.899       11.066        0.051      337.969       10.301      860.213
05/10/2014  02:50:00      -53.509       -6.787        1.477       28.871       31.167       13.956      833.533      971.354      194.771        0.246        0.100       53.938        7.644        0.020      338.055       10.446      860.185
05/10/2014  02:51:00     -117.539        1.872      -12.566       40.329       42.215       22.536     1626.399     1782.123      507.850        0.895        0.196      117.553       16.850        0.021      338.096       10.515      860.167
05/10/2014  02:52:00      -48.054      -45.717       -7.028       47.404       41.866       27.612     2247.158     1752.791      762.404        0.460        0.238       66.327       19.761        0.089      337.935       10.244      860.162
05/10/2014  02:53:00      -50.071      -29.999        0.350       58.122       34.792       19.968     3378.197     1210.455      398.731        0.420        0.249       58.370        5.989        0.011      338.020       10.387      860.169
05/10/2014  02:54:00     -115.260        8.298       -6.635       67.226       39.147       22.708     4519.381     1532.474      515.643        0.998        0.328      115.558       20.855        0.033      338.010       10.371      860.175
05/10/2014  02:55:00      -99.344       25.424      -15.556       44.563       38.384       21.804     1985.856     1473.312      475.393        0.735        0.197      102.546       22.611        0.049      337.954       10.276      860.190
05/10/2014  02:56:00     -111.309       64.800      -16.171       49.053       32.959       23.644     2406.174     1086.287      559.023        1.045        0.203      128.798       23.606        0.034      337.907       10.198      860.201
05/10/2014  02:57:00     -114.204      -44.999      -13.168       29.686       44.216       21.268      881.261     1955.024      452.329        0.926        0.164      122.750       16.665        0.018      337.869       10.136      860.184
05/10/2014  02:58:00     -122.450      -39.014      -14.042       64.226       37.093       31.822     4125.005     1375.891     1012.665        1.161        0.326      128.515       30.994        0.058      337.795       10.012      860.173
05/10/2014  02:59:00      -58.723       28.678        0.670       35.138       30.196       24.514     1234.670      911.782      600.954        0.351        0.137       65.351       14.651        0.050      337.865       10.128      860.150
05/10/2014  03:00:00      -17.767      -10.220        2.156       32.117       26.482       18.943     1031.477      701.279      358.833        0.126        0.105       20.497       14.997        0.535      337.871       10.138      860.133
05/10/2014  03:01:00      -29.088      -40.970        1.202       33.847       30.314       19.960     1145.616      918.933      398.391        0.249        0.123       50.246        9.191        0.033      337.875       10.144      860.129
05/10/2014  03:02:00      -75.525      -32.020      -11.408       45.908       29.095       27.302     2107.569      846.539      745.372        0.528        0.185       82.032       29.150        0.126      337.841       10.088      860.133
05/10/2014  03:03:00     -161.113        5.709      -14.355       91.399       57.717       30.167     8353.825     3331.309      910.057        1.939        0.630      161.214       15.032        0.009      337.908       10.199      860.145
05/10/2014  03:04:00     -144.532        6.159      -15.117       58.512       50.265       23.597     3423.625     2526.521      556.823        1.383        0.325      144.663       20.914        0.021      338.078       10.485      860.134
05/10/2014  03:05:00      -89.207      -11.446       -2.913       38.601       32.092       23.597     1490.027     1029.907      556.798        0.559        0.154       89.938       24.210        0.072      337.909       10.202      860.118
05/10/2014  03:06:00      -63.004        9.084        1.666       47.351       58.632       26.666     2242.074     3437.770      711.051        0.522        0.320       63.656       25.609        0.162      337.826       10.063      860.115
05/10/2014  03:07:00      -51.281      -13.569       -6.389       35.236       26.426       23.697     1241.610      698.342      561.549        0.268        0.125       53.046       22.751        0.184      337.944       10.261      860.118
05/10/2014  03:08:00      -66.196       12.943       -2.793       58.832       41.311       27.800     3461.228     1706.632      772.846        0.525        0.297       67.450       27.306        0.164      337.863       10.124      860.114
05/10/2014  03:09:00     -110.163       28.656      -18.582       52.693       51.029       23.495     2776.573     2603.957      552.020        0.962        0.297      113.829       22.089        0.038      337.884       10.160      860.105
05/10/2014  03:10:00      -84.459       31.674      -15.854       29.236       28.798       19.297      854.717      829.321      372.380        0.522        0.103       90.203       10.480        0.013      337.975       10.312      860.110
05/10/2014  03:11:00      -37.532      -48.598       10.154       41.445       28.699       21.253     1717.676      823.632      451.698        0.343        0.150       61.404       22.053        0.129      337.897       10.182      860.107
05/10/2014  03:12:00     -108.485      -12.789      -14.065       51.202       46.904       22.291     2621.659     2200.025      496.880        0.872        0.266      109.237       24.866        0.052      337.793       10.008      860.097
05/10/2014  03:13:00      -81.401       -2.805       -8.905       24.969       25.417       18.039      623.473      646.026      325.419        0.415        0.080       81.450       11.815        0.021      337.871       10.138      860.077
05/10/2014  03:14:00      -57.159       26.965       -6.214       24.913       28.717       15.401      620.636      824.674      237.184        0.286        0.084       63.200       10.100        0.026      337.930       10.236      860.074
05/10/2014  03:15:00      -43.347       37.168        0.512       32.659       28.426       20.039     1066.610      808.049      401.552        0.277        0.114       57.100       13.201        0.053      338.022       10.391      860.081
05/10/2014  03:16:00      -73.329       19.088       -4.944       25.797       19.810       21.821      665.492      392.453      476.151        0.365        0.077       75.773       19.070        0.063      338.095       10.513      860.085
05/10/2014  03:17:00      -72.544       24.221      -15.523       21.786       29.256       19.400      474.630      855.914      376.374        0.390        0.085       76.481       12.657        0.027      337.969       10.303      860.093
05/10/2014  03:18:00      -72.790       44.650      -16.224       34.542       44.448       19.511     1193.145     1975.610      380.686        0.555        0.177       85.394       19.962        0.055      337.810       10.036      860.089
05/10/2014  03:19:00      -16.630       23.730       -0.503       33.221       25.632       18.990     1103.605      656.996      360.631        0.148        0.106       28.978       12.418        0.184      337.786        9.995      860.073
05/10/2014  03:20:00      -16.588       -0.125       -6.574       22.388       12.000       14.600      501.230      143.992      213.148        0.059        0.043       16.589        6.992        0.178      337.778        9.983      860.055
05/10/2014  03:21:00       -9.816      -49.401        1.315       33.069       23.053       24.164     1093.581      531.450      583.896        0.237        0.110       50.366       20.307        0.163      337.846       10.098      860.031
05/10/2014  03:22:00       28.263        6.777       10.893       21.540       15.727       12.247      463.986      247.344      149.992        0.091        0.043       29.064        7.085        0.059      337.784        9.993      860.006
05/10/2014  03:23:00       38.285       63.372       -6.891       25.393       36.421       24.694      644.780     1326.463      609.794        0.405        0.129       74.039       26.502        0.128      337.893       10.173      859.988
05/10/2014  03:24:00       34.393       76.214        7.627       51.860       33.879       24.512     2689.419     1147.812      600.818        0.574        0.222       83.615       25.105        0.090      337.986       10.332      859.976
05/10/2014  03:25:00      -48.079      110.599       -5.058       29.391       31.314       24.420      863.826      980.556      596.355        0.850        0.122      120.597       18.082        0.022      338.089       10.503      859.970
05/10/2014  03:26:00      -64.641        2.503        1.493       45.151       33.795       24.424     2038.613     1142.118      596.549        0.398        0.189       64.689       30.475        0.222      338.100       10.522      859.962
05/10/2014  03:27:00      -35.368       73.382      -11.248       26.519       33.269       18.378      703.275     1106.847      337.735        0.445        0.107       81.460       20.071        0.061      338.112       10.543      859.959
05/10/2014  03:28:00      -49.955       97.412      -12.008       32.179       56.517       23.630     1035.517     3194.120      558.399        0.846        0.239      109.474       24.732        0.051      338.053       10.443      859.961
05/10/2014  03:29:00      -43.343       47.483       -0.877       31.555       35.356       22.560      995.695     1250.075      508.975        0.344        0.138       64.290       18.052        0.079      338.077       10.484      859.963
05/10/2014  03:30:00      -35.186      122.987      -19.203       33.276       27.914       19.876     1107.274      779.192      395.075        0.951        0.114      127.921       12.736        0.010      337.987       10.333      859.967
05/10/2014  03:31:00      -27.673       94.888      -10.229       32.343       49.369       21.335     1046.046     2437.261      455.199        0.691        0.197       98.841       24.986        0.064      338.005       10.363      859.972
05/10/2014  03:32:00       28.189      150.183      -28.708       16.771       25.987        7.713      281.251      675.313       59.496        1.259        0.051      152.806        8.345        0.003      337.839       10.083      859.965
05/10/2014  03:33:00      -47.232       20.943       -7.301       83.566       66.179       24.459     6983.272     4379.682      598.231        0.734        0.598       51.667        6.347        0.015      337.850       10.103      859.963
05/10/2014  03:34:00     -104.220       27.118       -5.990       46.821       60.647       26.297     2192.204     3678.095      691.556        0.910        0.328      107.691       24.705        0.053      338.028       10.402      859.988
05/10/2014  03:35:00      -96.849      142.265      -27.384       48.183       32.256       22.180     2321.619     1040.434      491.936        1.711        0.193      172.102       21.890        0.016      337.866       10.127      860.008
05/10/2014  03:36:00     -151.890      163.737      -39.729       39.094       32.192       26.761     1528.317     1036.349      716.154        2.737        0.164      223.339       21.350        0.009      337.900       10.181      860.016
05/10/2014  03:37:00     -156.273       29.799       -5.850       75.717      109.966       39.000     5733.033    12092.537     1521.018        2.234        0.967      159.089       31.254        0.039      338.028       10.400      860.013
05/10/2014  03:38:00     -165.400       93.608      -26.778      110.015      103.483       42.689    12103.192    10708.795     1822.349        3.073        1.232      190.051       42.164        0.049      338.053       10.439      860.019
05/10/2014  03:39:00      -32.294      123.719       -0.938       46.861       72.228       41.964     2195.997     5216.844     1761.019        1.276        0.459      127.865       32.238        0.064      337.995       10.345      859.996
05/10/2014  03:40:00      -94.668       51.266      -14.207       38.007       37.006       26.865     1444.510     1369.420      721.724        0.766        0.177      107.658       19.244        0.032      338.037       10.416      860.022
05/10/2014  03:41:00     -154.699      -36.941      -12.815       31.675       42.830       23.264     1003.283     1834.415      541.235        1.442        0.169      159.049       18.498        0.014      337.852       10.107      860.034
05/10/2014  03:42:00     -100.329      -23.711       -1.983       53.157       32.325       22.646     2825.656     1044.887      512.844        0.751        0.219      103.093       22.711        0.049      337.846       10.096      860.037
05/10/2014  03:43:00      -76.539       14.050       -0.927       36.462       25.966       15.364     1329.507      674.232      236.050        0.415        0.112       77.818       18.166        0.054      337.745        9.927      860.034
05/10/2014  03:44:00      -89.888       34.239       -2.421       29.711       25.411       16.822      882.751      645.721      282.991        0.553        0.091       96.189       16.838        0.031      337.698        9.847      860.034
05/10/2014  03:45:00      -52.613       62.450      -10.287       33.527       33.194       19.659     1124.035     1101.834      386.459        0.469        0.131       81.659        9.854        0.015      337.778        9.984      860.023
05/10/2014  03:46:00      -92.259       72.035      -23.729       14.017       28.343       12.978      196.469      803.342      168.424        0.772        0.058      117.050       13.366        0.013      337.826       10.064      860.015
05/10/2014  03:47:00      -37.646       69.363       -8.896       30.875       26.009       15.685      953.271      676.443      246.022        0.409        0.094       78.920       10.558        0.018      337.852       10.107      859.998
05/10/2014  03:48:00      -83.456        2.561       -7.360       48.164       62.096       18.754     2319.783     3855.880      351.717        0.678        0.326       83.495       13.743        0.027      337.825       10.061      859.993
05/10/2014  03:49:00     -182.726      -98.644       -7.199      100.640       52.695       36.467    10128.498     2776.770     1329.825        2.870        0.712      207.652       37.879        0.033      337.726        9.893      860.005
05/10/2014  03:50:00     -154.583      -53.359      -13.599       71.284       61.757       30.895     5081.397     3813.915      954.531        1.839        0.492      163.533       30.631        0.035      337.619        9.715      860.028
05/10/2014  03:51:00      -80.718       -7.668        1.505       48.440       40.461       23.166     2346.451     1637.109      536.648        0.555        0.226       81.081       15.663        0.037      337.576        9.644      860.012
05/10/2014  03:52:00     -147.963        9.752       -7.388       60.071       31.641       21.151     3608.563     1001.138      447.378        1.355        0.253      148.284       26.054        0.031      337.574        9.639      859.997
05/10/2014  03:53:00     -102.535      -21.789       -1.585       64.661       26.629       23.568     4181.108      709.092      555.456        0.822        0.272      104.825       31.291        0.089      337.521        9.552      859.993
05/10/2014  03:54:00      -27.226        7.465        5.403       38.305       15.107       17.409     1467.249      228.226      303.074        0.141        0.100       28.231       18.074        0.410      337.543        9.587      859.991
05/10/2014  03:55:00     -106.091       24.570       -7.520       16.370       12.708       10.777      267.963      161.491      116.138        0.623        0.027      108.899        6.111        0.003      337.701        9.854      859.987
05/10/2014  03:56:00      -55.405      -89.199       -2.835       39.746       61.246       20.534     1579.775     3751.088      421.663        0.839        0.288      105.005       21.528        0.042      337.835       10.075      859.984
05/10/2014  03:57:00      -26.220       -5.267       -1.338       34.524       67.870       24.757     1191.896     4606.309      612.888        0.356        0.321       26.744       21.489        0.646      337.762        9.954      859.985
05/10/2014  03:58:00      -71.776       10.178       -7.176       33.661       37.720       13.201     1133.090     1422.820      174.273        0.402        0.137       72.494       15.926        0.048      337.785        9.996      859.997
05/10/2014  03:59:00      -84.961      -29.561       -4.321       13.928       23.116       13.810      193.985      534.356      190.710        0.451        0.046       89.957        6.921        0.006      337.777        9.982      859.984
05/10/2014  04:00:00      -81.848      -28.207       -6.725       25.657       24.093       16.947      658.288      580.472      287.200        0.453        0.076       86.572        9.721        0.013      337.749        9.931      859.977
05/10/2014  04:01:00      -69.304       10.738      -14.029       19.988       30.269       17.730      399.506      916.227      314.339        0.337        0.082       70.131       11.941        0.029      337.681        9.819      859.973
05/10/2014  04:02:00      -53.777      -19.728       -0.905       32.153       19.782       12.256     1033.793      391.310      150.207        0.243        0.079       57.282       14.460        0.064      337.610        9.701      859.970
05/10/2014  04:03:00      -85.254       -6.758       -6.870       26.347       20.801       15.716      694.189      432.686      247.003        0.437        0.069       85.521       14.482        0.029      337.570        9.632      859.971
05/10/2014  04:04:00      -20.455      -34.323        5.911       26.986       20.745       14.815      728.253      430.363      219.487        0.150        0.069       39.956        7.836        0.038      337.597        9.677      859.960
05/10/2014  04:05:00       -9.905      -55.558       -6.092       20.282       25.947       14.056      411.350      673.267      197.576        0.225        0.064       56.434        7.510        0.018      337.644        9.757      859.937
05/10/2014  04:06:00      -48.061      -45.948      -14.711        8.324       18.305        9.093       69.288      335.066       82.674        0.256        0.024       66.491        3.556        0.003      337.618        9.714      859.922
05/10/2014  04:07:00       -5.157      -59.922      -10.829       28.944       19.325       17.073      837.740      373.465      291.474        0.262        0.075       60.143       17.252        0.082      337.696        9.844      859.899
05/10/2014  04:08:00      -81.782       63.204      -18.043       64.089       46.882       31.138     4107.339     2197.888      969.562        0.914        0.364      103.359       37.726        0.133      337.659        9.783      859.875
05/10/2014  04:09:00     -115.342       32.705      -17.700       45.048       49.214       20.124     2029.353     2421.980      404.986        0.977        0.243      119.889       19.104        0.025      337.590        9.668      859.858
05/10/2014  04:10:00     -111.558       23.498       -5.592       35.816       33.669       20.196     1282.806     1133.588      407.892        0.793        0.141      114.006        9.929        0.008      337.494        9.505      859.837
05/10/2014  04:11:00      -91.017      108.776      -11.923       36.032       59.623       31.893     1298.317     3554.930     1017.176        1.306        0.294      141.832       30.467        0.046      337.576        9.643      859.833
05/10/2014  04:12:00     -180.408       53.200      -25.267       64.885       67.461       27.164     4210.076     4550.954      737.892        2.276        0.475      188.088       25.951        0.019      337.647        9.760      859.836
05/10/2014  04:13:00     -176.324       36.183       -8.331       59.658       55.499       34.189     3559.132     3080.101     1168.860        2.014        0.390      179.998       30.260        0.028      337.552        9.602      859.842
05/10/2014  04:14:00      -99.358      113.249      -23.100       80.152       88.167       39.136     6424.335     7773.454     1531.606        1.948        0.786      150.656       34.131        0.051      337.582        9.652      859.848
05/10/2014  04:15:00      -72.609       30.596       -5.754       62.088       65.730       30.389     3854.900     4320.441      923.506        0.767        0.455       78.792       29.271        0.138      337.498        9.510      859.843
05/10/2014  04:16:00     -168.778      -23.154      -16.990       80.284       69.612       22.595     6445.511     4845.897      510.519        2.055        0.590      170.359       13.678        0.006      337.532        9.567      859.854
05/10/2014  04:17:00     -129.961        4.848      -14.815       45.934       51.166       28.779     2109.914     2618.010      828.253        1.134        0.278      130.051       23.292        0.032      337.464        9.454      859.859
05/10/2014  04:18:00     -145.362      -25.340      -18.347       48.498       34.845       24.251     2352.013     1214.149      588.107        1.313        0.208      147.554       22.264        0.023      337.423        9.389      859.851
05/10/2014  04:19:00     -170.975      -23.064      -21.180       37.473       39.517       20.443     1404.251     1561.614      417.909        1.680        0.169      172.523       15.397        0.008      337.405        9.355      859.851
05/10/2014  04:20:00     -138.275       -6.630      -17.349       42.449       35.112       25.277     1801.892     1232.839      638.909        1.157        0.184      138.434       19.279        0.019      337.392        9.335      859.849
05/10/2014  04:21:00     -121.591       -2.139      -14.859       37.567       28.401       26.050     1411.291      806.633      678.582        0.895        0.145      121.610       22.216        0.033      337.393        9.337      859.836
05/10/2014  04:22:00     -145.566      -60.728       -7.203       53.764       56.191       30.966     2890.546     3157.389      958.912        1.597        0.350      157.726       25.613        0.026      337.404        9.353      859.826
05/10/2014  04:23:00     -175.209      -67.285        2.063       75.968       61.208       35.807     5771.141     3746.415     1282.121        2.301        0.540      187.684       35.696        0.036      337.384        9.319      859.818
05/10/2014  04:24:00     -244.396      -26.155      -18.090       71.749       64.068       38.059     5147.928     4104.700     1448.524        3.572        0.535      245.792       33.863        0.019      337.376        9.304      859.851
05/10/2014  04:25:00     -197.621       -9.176      -14.675       51.726       51.398       28.586     2675.607     2641.778      817.187        2.274        0.307      197.834       14.045        0.005      337.387        9.325      859.859
05/10/2014  04:26:00      -92.652      -21.318       -0.323       84.509       42.622       37.123     7141.717     1816.617     1378.142        0.969        0.517       95.072       44.238        0.217      337.364        9.287      859.852
05/10/2014  04:27:00     -119.496       -9.548        1.356       79.347       78.559       36.783     6295.966     6171.592     1352.957        1.409        0.691      119.877       30.479        0.065      337.511        9.533      859.850
05/10/2014  04:28:00     -128.190        6.648      -14.035       63.522       47.308       30.619     4034.989     2238.083      937.523        1.194        0.361      128.363       22.607        0.031      337.564        9.624      859.868
05/10/2014  04:29:00     -102.881       22.794       -7.545       30.344       28.832       17.484      920.758      831.305      305.697        0.661        0.103      105.376       15.207        0.021      337.564        9.623      859.843
05/10/2014  04:30:00      -66.296       -4.179       -6.101       41.331       22.438       18.142     1708.283      503.461      329.118        0.349        0.127       66.427       18.841        0.080      337.511        9.533      859.839
05/10/2014  04:31:00      -70.530       52.889       -7.414       38.197       60.528       23.249     1459.004     3663.631      540.524        0.674        0.283       88.157       27.012        0.094      337.575        9.640      859.825
05/10/2014  04:32:00     -105.360       68.631      -15.794       44.952       49.867       19.037     2020.689     2486.705      362.404        1.046        0.243      125.741       18.834        0.022      337.633        9.739      859.822
05/10/2014  04:33:00     -156.930       43.404      -15.472       31.164       23.978       17.551      971.180      574.951      308.029        1.430        0.093      162.822        9.751        0.004      337.562        9.619      859.823
05/10/2014  04:34:00      -93.457        0.867       -4.415       32.741       46.605       19.230     1071.959     2171.980      369.782        0.618        0.181       93.461       18.454        0.039      337.473        9.472      859.831
05/10/2014  04:35:00      -55.707       44.041       -2.349       27.469       21.713       17.029      754.529      471.435      289.990        0.328        0.076       71.014       16.586        0.055      337.479        9.481      859.825
05/10/2014  04:36:00      -53.474       50.303      -15.359       18.849       21.924       12.757      355.269      480.641      162.745        0.331        0.050       73.416        8.820        0.014      337.609        9.699      859.805
05/10/2014  04:37:00      -38.237       26.503       -5.068       13.915       23.543       10.975      193.640      554.275      120.446        0.153        0.043       46.524       11.522        0.061      337.531        9.567      859.789
05/10/2014  04:38:00      -66.451       -4.030       -3.558       18.808       13.539       10.468      353.730      183.316      109.586        0.255        0.032       66.573        8.497        0.016      337.386        9.324      859.800
05/10/2014  04:39:00      -40.799       13.943      -10.854       14.016       17.142        9.320      196.453      293.862       86.863        0.128        0.029       43.116        7.217        0.028      337.375        9.305      859.813
05/10/2014  04:40:00     -112.473      -17.064       -7.803       36.876       40.608       19.680     1359.848     1649.023      387.286        0.820        0.170      113.760       19.514        0.029      337.374        9.306      859.803
05/10/2014  04:41:00      -61.941       46.453      -10.629       55.898       60.387       27.190     3124.590     3646.530      739.287        0.681        0.376       77.425       29.695        0.147      337.473        9.470      859.778
05/10/2014  04:42:00      -44.923       40.012       -1.957       54.533       72.261       25.424     2973.880     5221.630      646.362        0.623        0.442       60.159       19.406        0.104      337.451        9.433      859.776
05/10/2014  04:43:00     -113.925       94.059      -28.650       52.122       57.523       24.671     2716.725     3308.930      608.671        1.464        0.332      147.736       24.139        0.027      337.518        9.545      859.771
05/10/2014  04:44:00      -89.751      -15.165        0.451       54.609       57.139       22.001     2982.109     3264.887      484.030        0.751        0.337       91.023       18.806        0.043      337.457        9.442      859.785
05/10/2014  04:45:00     -122.929       15.195      -11.157       44.983       40.875       25.556     2023.494     1670.749      653.103        0.991        0.217      123.865       26.512        0.046      337.297        9.177      859.787
05/10/2014  04:46:00      -34.142      -27.499        5.001       29.518       25.883       19.736      871.326      669.946      389.502        0.194        0.097       43.839       11.369        0.067      337.289        9.164      859.779
05/10/2014  04:47:00      -26.396        6.018       -3.462       26.258       45.943       15.541      689.492     2110.739      241.531        0.189        0.152       27.074       19.644        0.526      337.341        9.248      859.778
05/10/2014  04:48:00      -55.118      -45.074        2.726       56.447       47.667       30.872     3186.214     2272.137      953.087        0.574        0.321       71.202       30.957        0.189      337.313        9.203      859.784
05/10/2014  04:49:00     -111.393      -49.703       -3.973       63.572       33.827       22.421     4041.417     1144.291      502.708        1.029        0.284      121.979       23.620        0.037      337.302        9.183      859.789
05/10/2014  04:50:00     -188.816      -50.891      -11.380       50.374       61.838       31.844     2537.571     3823.922     1014.023        2.287        0.369      195.554       25.139        0.017      337.298        9.176      859.776
05/10/2014  04:51:00     -146.199      -32.846      -15.719       48.803       43.570       21.691     2381.716     1898.355      470.482        1.372        0.238      149.844        8.276        0.003      337.347        9.258      859.780
05/10/2014  04:52:00     -144.281      -51.305      -18.565       60.192       24.281       19.779     3623.107      589.581      391.207        1.420        0.230      153.131       12.899        0.007      337.293        9.170      859.799
05/10/2014  04:53:00     -102.595       71.042      -25.665       49.712       46.228       25.293     2471.282     2137.048      639.724        1.074        0.262      124.791       13.574        0.012      337.517        9.544      859.790
05/10/2014  04:54:00     -105.436       49.309       -6.774       66.514       36.518       24.134     4424.132     1333.589      582.437        0.997        0.317      116.396       23.469        0.041      337.359        9.280      859.777
05/10/2014  04:55:00      -66.305       63.336      -13.667       39.735       45.761       27.649     1578.903     2094.066      764.474        0.652        0.222       91.694       23.850        0.068      337.479        9.480      859.772
05/10/2014  04:56:00      -78.907      114.373       -9.604       51.480       62.079       32.129     2650.224     3853.797     1032.271        1.347        0.377      138.952       31.830        0.052      337.421        9.383      859.778
05/10/2014  04:57:00      -36.357       31.450      -12.617       35.823       65.286       19.057     1283.289     4262.264      363.185        0.419        0.295       48.072       17.440        0.132      337.438        9.412      859.769
05/10/2014  04:58:00      -55.482      -20.435      -16.698       28.531       24.206       19.856      814.038      585.925      394.255        0.278        0.090       59.126        7.623        0.017      337.368        9.295      859.767
05/10/2014  04:59:00       -2.748       -0.627      -16.445       27.015       31.408       22.535      729.791      986.432      507.823        0.125        0.111        2.818       18.331       42.307      337.412        9.368      859.752
05/10/2014  05:00:00      -25.606      -17.664        1.374       18.443       20.046       15.929      340.134      401.848      253.730        0.098        0.050       31.107       10.868        0.122      337.434        9.406      859.747
05/10/2014  05:01:00      -51.024      -44.264        6.507       72.919       45.381       31.529     5317.182     2059.415      994.099        0.649        0.419       67.548       32.189        0.227      337.358        9.278      859.749
05/10/2014  05:02:00     -131.180      -59.469        0.789       68.116       71.905       32.388     4639.770     5170.272     1048.993        1.580        0.543      144.031       29.103        0.041      337.313        9.202      859.736
05/10/2014  05:03:00     -240.177      -68.647      -10.624       83.706       52.582       34.217     7006.686     2764.821     1170.834        3.672        0.547      249.794       25.024        0.010      337.310        9.195      859.734
05/10/2014  05:04:00     -184.576      -67.349       -1.119       76.057       65.174       37.374     5784.642     4247.640     1396.809        2.501        0.571      196.479       34.067        0.030      337.251        9.095      859.725
05/10/2014  05:05:00     -147.123      -51.501       -2.597       49.920       58.967       27.607     2492.013     3477.124      762.172        1.552        0.337      155.877       19.617        0.016      337.369        9.297      859.724
05/10/2014  05:06:00     -135.000       -4.269      -14.068       44.503       42.605       24.935     1980.485     1815.185      621.778        1.143        0.221      135.067       18.419        0.019      337.224        9.053      859.718
05/10/2014  05:07:00     -122.079       34.532      -16.555       45.598       47.463       28.413     2079.217     2252.759      807.318        1.075        0.257      126.869       27.702        0.048      337.173        8.968      859.693
05/10/2014  05:08:00     -100.671      -23.667      -25.069       34.066       27.105       15.265     1160.495      734.705      233.013        0.673        0.106      103.416        9.717        0.009      337.254        9.105      859.690
05/10/2014  05:09:00     -120.651      -20.850      -15.916       24.697       20.805       17.945      609.922      432.841      322.018        0.830        0.068      122.439       13.194        0.012      337.215        9.038      859.725
05/10/2014  05:10:00      -98.468      -21.877       -3.030       30.067       34.406       17.932      904.047     1183.774      321.556        0.630        0.120      100.869       16.587        0.027      337.169        8.961      859.738
05/10/2014  05:11:00      -51.661      -14.501        1.525       45.352       32.209       19.998     2056.845     1037.444      399.933        0.319        0.175       53.658       19.187        0.128      337.113        8.867      859.731
05/10/2014  05:12:00       15.171       34.661       14.969       45.491       27.879       27.370     2069.421      777.229      749.138        0.262        0.180       37.835       30.416        0.646      337.065        8.787      859.706
05/10/2014  05:13:00      -48.674       45.850       -6.679       25.723       56.569       18.270      661.690     3200.092      333.780        0.435        0.210       66.869       23.293        0.121      337.184        8.987      859.722
05/10/2014  05:14:00      -22.599       14.521       -7.544       20.375       23.585       20.340      415.156      556.266      413.719        0.108        0.069       26.862       13.361        0.247      337.140        8.914      859.725
05/10/2014  05:15:00      -28.381       87.888       -5.635       48.556       55.628       28.380     2357.717     3094.441      805.414        0.741        0.313       92.357       25.078        0.074      337.303        9.187      859.717
05/10/2014  05:16:00      -72.940        6.003       -7.152       45.776       39.575       17.872     2095.409     1566.159      319.405        0.469        0.199       73.187       22.223        0.092      337.143        8.917      859.709
05/10/2014  05:17:00      -82.312       -1.806      -10.440       24.708       26.925       14.519      610.474      724.963      210.790        0.422        0.077       82.332        8.847        0.012      337.001        8.680      859.706
05/10/2014  05:18:00      -32.318       58.462       -9.614       21.236       36.408       11.905      450.949     1325.539      141.731        0.324        0.096       66.800       11.031        0.027      337.216        9.042      859.680
05/10/2014  05:19:00      -23.757      207.687      -22.184       46.657       54.923       31.928     2176.890     3016.503     1019.411        2.520        0.311      209.042       11.741        0.003      337.256        9.106      859.673
05/10/2014  05:20:00     -111.871      154.568      -26.948       82.907      109.079       37.646     6873.568    11898.165     1417.195        2.866        1.009      190.805       33.597        0.031      337.360        9.279      859.661
05/10/2014  05:21:00     -273.047       61.277      -23.813      151.127       75.797       52.968    22839.316     5745.219     2805.623        5.513        1.570      279.839       64.083        0.052      337.318        9.209      859.702
05/10/2014  05:22:00     -138.946       51.832      -19.804       64.398       75.989       44.291     4147.160     5774.323     1961.667        1.713        0.594      148.299       36.965        0.062      337.388        9.327      859.714
05/10/2014  05:23:00     -113.053       19.125      -21.232       52.333       44.376       26.689     2738.769     1969.205      712.309        0.951        0.271      114.659       27.250        0.056      337.345        9.258      859.720
05/10/2014  05:24:00     -125.061       -2.827      -34.085       52.961       31.392       25.177     2804.838      985.478      633.891        1.062        0.221      125.093       18.757        0.022      337.346        9.256      859.730
05/10/2014  05:25:00      -42.091      -46.582       12.101       82.174       71.474       37.187     6752.563     5108.599     1382.877        0.866        0.662       62.781       43.809        0.487      337.267        9.127      859.730
05/10/2014  05:26:00     -114.315      -39.264      -20.733       52.839       47.223       28.266     2791.951     2230.007      798.965        1.043        0.291      120.871       18.107        0.022      337.271        9.131      859.712
05/10/2014  05:27:00      -72.748      -27.209       -8.521       45.381       35.316       21.794     2059.471     1247.233      474.961        0.494        0.189       77.669       15.679        0.041      337.266        9.124      859.708
05/10/2014  05:28:00      -28.009       -0.036       11.630       43.410       27.643       23.144     1884.416      764.129      535.636        0.205        0.159       28.009       20.935        0.559      337.122        8.882      859.699
05/10/2014  05:29:00      -95.101        8.236      -13.489       44.263       39.473       18.068     1959.189     1558.094      326.465        0.657        0.192       95.457       14.452        0.023      337.190        8.997      859.732
05/10/2014  05:30:00     -168.335      -49.819      -19.410       93.492       46.464       35.733     8740.739     2158.880     1276.865        2.168        0.609      175.552       22.594        0.017      337.109        8.859      859.748
05/10/2014  05:31:00     -198.475       -7.546      -30.423       63.191       59.309       31.620     3993.043     3517.615      999.845        2.444        0.426      198.618       27.037        0.019      337.172        8.964      859.748
05/10/2014  05:32:00     -167.284      -50.794      -18.580       64.429       50.726       44.192     4151.098     2573.099     1952.967        1.979        0.434      174.826       35.852        0.042      337.293        9.168      859.714
05/10/2014  05:33:00      -94.444      -36.459       -4.800       79.324       75.520       37.600     6292.302     5703.336     1413.793        1.184        0.670      101.237       23.156        0.052      337.212        9.033      859.711
05/10/2014  05:34:00     -155.146      -68.524        1.246       80.741       59.192       39.451     6519.046     3503.667     1556.411        2.017        0.579      169.605       19.420        0.013      337.153        8.933      859.720
05/10/2014  05:35:00     -208.355       17.038      -15.859       72.144       59.080       30.463     5204.706     3490.447      927.976        2.679        0.481      209.051       25.458        0.015      337.098        8.840      859.728
05/10/2014  05:36:00      -80.148       32.155        3.649       51.705       36.379       35.163     2673.373     1323.461     1236.433        0.635        0.262       86.358       27.769        0.103      337.178        8.975      859.721
05/10/2014  05:37:00     -177.166      -57.535       -8.892       83.723       62.647       33.955     7009.480     3924.655     1152.916        2.343        0.604      186.275       30.076        0.026      337.173        8.967      859.712
05/10/2014  05:38:00     -142.215      -27.001       -2.841       59.668       77.995       31.162     3560.247     6083.197      971.083        1.579        0.531      144.756       20.866        0.021      337.130        8.894      859.702
05/10/2014  05:39:00     -196.097      -11.793      -17.862       94.841       45.935       39.583     8994.856     2110.015     1566.851        2.579        0.634      196.452       40.247        0.042      337.179        8.976      859.675
05/10/2014  05:40:00     -115.387       -4.584      -11.739       76.679       99.076       41.671     5879.651     9816.028     1736.477        1.545        0.872      115.478       38.511        0.111      337.108        8.858      859.658
05/10/2014  05:41:00      -97.792       11.816       -3.222       73.425       80.692       51.951     5391.203     6511.130     2698.918        1.215        0.730       98.503       33.113        0.113      337.056        8.772      859.658
05/10/2014  05:42:00     -221.334      -37.880      -32.671      101.873       82.575       55.908    10378.110     6818.688     3125.684        3.590        1.016      224.552       49.132        0.048      337.138        8.907      859.663
05/10/2014  05:43:00     -110.480       15.138      -10.557       60.116       69.996       30.974     3613.939     4899.448      959.410        1.101        0.474      111.512       27.256        0.060      337.168        8.960      859.641
05/10/2014  05:44:00      -63.955       -7.804        4.490       64.396       69.835       32.486     4146.898     4876.877     1055.309        0.712        0.504       64.430       31.933        0.246      337.069        8.793      859.648
05/10/2014  05:45:00     -170.936      -70.636       -5.444       64.000       72.271       35.076     4096.005     5223.063     1230.358        2.239        0.527      184.956       27.201        0.022      337.076        8.803      859.666
05/10/2014  05:46:00     -123.763        3.563       -7.170       42.291       31.025       24.702     1788.544      962.539      610.197        0.937        0.168      123.814       16.391        0.018      337.068        8.792      859.674
05/10/2014  05:47:00     -154.124       53.303      -23.903       86.259       83.002       39.150     7440.658     6889.308     1532.757        2.151        0.793      163.081       38.497        0.056      337.180        8.978      859.678
05/10/2014  05:48:00      -64.145      -37.374        4.541       59.565       47.656       32.157     3547.944     2271.111     1034.081        0.619        0.343       74.239       27.990        0.142      337.186        8.990      859.682
05/10/2014  05:49:00     -100.303       -3.713        1.724       49.720       66.464       28.080     2472.101     4417.507      788.508        0.888        0.384      100.371       24.367        0.059      337.186        8.990      859.712
05/10/2014  05:50:00      -44.325      -29.476       -3.952       45.011       59.134       25.898     2025.963     3496.780      670.695        0.452        0.310       53.231       21.796        0.168      337.173        8.969      859.712
05/10/2014  05:51:00      -15.405       -6.174       -3.549       29.961       23.387       24.493      897.652      546.950      599.920        0.117        0.102       16.596       18.813        1.285      337.163        8.953      859.701
05/10/2014  05:52:00      -16.953       10.046       11.671       41.466       68.513       25.114     1719.463     4694.065      630.713        0.378        0.352       19.706       32.449        2.712      337.182        8.984      859.697
05/10/2014  05:53:00      -99.746       54.573      -13.390       58.582       37.896       24.893     3431.903     1436.118      619.669        0.930        0.274      113.699       19.723        0.030      337.192        9.002      859.703
05/10/2014  05:54:00      -87.328      -12.145      -13.161       43.752       35.713       20.799     1914.262     1275.393      432.595        0.578        0.181       88.168       22.940        0.068      337.206        9.024      859.719
05/10/2014  05:55:00     -107.307       49.980      -11.813       50.445       42.019       25.131     2544.665     1765.606      631.561        0.955        0.247      118.375       23.425        0.039      337.135        8.904      859.737
05/10/2014  05:56:00     -237.604       56.622      -22.701       43.754       43.700       26.875     1914.413     1909.695      722.253        3.236        0.227      244.257       20.766        0.007      337.140        8.911      859.741
05/10/2014  05:57:00     -186.957      -12.360      -20.684       53.482       53.658       31.151     2860.297     2879.205      970.354        2.112        0.335      187.366       30.336        0.026      337.250        9.095      859.713
05/10/2014  05:58:00     -139.759       36.257        1.188       40.032       33.011       29.362     1602.529     1089.701      862.118        1.220        0.178      144.386       22.898        0.025      337.171        8.965      859.697
05/10/2014  05:59:00     -143.108      -28.851      -15.447       63.238       51.780       19.951     3999.078     2681.127      398.050        1.431        0.354      145.987       10.584        0.005      337.185        8.989      859.715
05/10/2014  06:00:00     -114.585      -56.453       11.059      109.985       68.103       47.476    12096.608     4638.024     2253.999        1.771        0.949      127.737       52.265        0.167      337.161        8.947      859.709
05/10/2014  06:01:00     -138.755       10.927       -5.426       60.235       49.473       34.987     3628.257     2447.590     1224.063        1.335        0.365      139.185       34.970        0.063      337.197        9.009      859.694
05/10/2014  06:02:00      -92.418      -24.509       -6.775       56.182       55.450       23.797     3156.374     3074.675      566.315        0.799        0.340       95.612       14.120        0.022      337.150        8.930      859.707
05/10/2014  06:03:00      -56.653      -36.077       -7.843       62.140       25.893       21.448     3861.341      670.440      460.013        0.478        0.250       67.165       24.481        0.133      337.113        8.867      859.714
05/10/2014  06:04:00      -12.181       -1.849       -6.446       15.343       21.146        9.943      235.407      447.133       98.867        0.049        0.039       12.320        9.889        0.644      337.115        8.872      859.705
05/10/2014  06:05:00      -49.248        7.753       -5.246       41.818       36.575       16.418     1748.737     1337.747      269.561        0.293        0.168       49.854        6.478        0.017      337.176        8.974      859.697
05/10/2014  06:06:00      -33.170        3.225      -17.086       29.010       26.340       14.452      841.604      693.775      208.850        0.157        0.087       33.327       13.557        0.165      337.225        9.058      859.699
05/10/2014  06:07:00      -18.766       -6.453      -13.032       13.013       15.297       11.712      169.342      233.989      137.179        0.055        0.027       19.845        5.344        0.073      337.269        9.129      859.688
05/10/2014  06:08:00      -24.021       27.650       -6.079       16.185       16.264        9.633      261.969      264.514       92.790        0.100        0.031       36.627        6.741        0.034      337.174        8.973      859.681
05/10/2014  06:09:00      -21.609       28.408      -14.688       24.911       23.517       18.878      620.579      553.070      356.372        0.151        0.077       35.693        9.904        0.077      337.193        9.004      859.685
05/10/2014  06:10:00      -21.941       -3.312       -3.873        9.632        8.145        8.079       92.775       66.337       65.267        0.037        0.011       22.189        2.711        0.015      337.249        9.097      859.705
05/10/2014  06:11:00      -19.427        0.994       -1.023        5.734        6.734        5.926       32.876       45.352       35.117        0.025        0.006       19.452        3.553        0.033      337.242        9.085      859.732
05/10/2014  06:12:00       -1.365      -20.867       -6.575        8.161        9.693        7.455       66.598       93.948       55.582        0.035        0.011       20.911        6.572        0.099      337.235        9.073      859.756
05/10/2014  06:13:00       -5.621       -2.521       16.616        7.606       12.495        8.715       57.855      156.118       75.959        0.030        0.014        6.160        6.345        1.061      337.323        9.218      859.778
05/10/2014  06:14:00      -15.388        1.145       10.182        9.617       15.535        9.266       92.491      241.330       85.865        0.038        0.021       15.431        2.427        0.025      337.233        9.069      859.774
05/10/2014  06:15:00       -7.141        2.925        5.203       12.369       12.830        9.725      152.986      164.604       94.568        0.025        0.021        7.717        9.477        1.508      337.324        9.220      859.756
05/10/2014  06:16:00        0.577        8.840        1.706        8.595        8.753        8.601       73.878       76.623       73.979        0.015        0.011        8.859        6.151        0.482      337.317        9.209      859.727
05/10/2014  06:17:00       -1.537       16.674        0.702       14.567        9.253        9.568      212.191       85.612       91.541        0.034        0.019       16.745       10.091        0.363      337.294        9.173      859.705
05/10/2014  06:18:00       -9.312       10.886       -6.345       12.070       10.232        7.276      145.689      104.696       52.943        0.027        0.015       14.325        7.371        0.265      337.165        8.954      859.688
05/10/2014  06:19:00       -3.315       12.302       -7.918        6.101       10.376        5.166       37.220      107.665       26.685        0.020        0.009       12.741        4.362        0.117      337.148        8.926      859.692
05/10/2014  06:20:00      -10.468        5.615        2.717       12.262       13.723        9.302      150.352      188.309       86.534        0.029        0.021       11.878        9.731        0.671      337.200        9.013      859.692
05/10/2014  06:21:00       26.338       17.534       17.969       23.710       31.176       12.622      562.153      971.943      159.311        0.151        0.085       31.641       13.724        0.188      337.241        9.081      859.685
05/10/2014  06:22:00       73.588       45.866        6.843       20.380       14.877       19.442      415.334      221.311      377.983        0.429        0.051       86.712       14.885        0.029      337.227        9.058      859.662
05/10/2014  06:23:00       24.237        3.010        5.226       23.484       33.244       13.075      551.516     1105.184      170.965        0.123        0.091       24.423        8.693        0.127      337.293        9.169      859.669
05/10/2014  06:24:00       -3.636      -37.811        4.792       15.446       16.669       19.708      238.590      277.868      388.388        0.119        0.045       37.986       11.045        0.085      337.315        9.206      859.679
05/10/2014  06:25:00      -31.878      -30.321        5.306       53.085       29.635       24.769     2818.009      878.237      613.526        0.314        0.215       43.995       18.363        0.174      337.352        9.270      859.676
05/10/2014  06:26:00     -115.570      -55.365       -5.721       77.204       46.006       32.418     5960.389     2116.591     1050.941        1.279        0.456      128.147       40.601        0.100      337.321        9.216      859.682
05/10/2014  06:27:00      -42.952      -14.517        3.826       67.420       50.736       26.333     4545.499     2574.141      693.448        0.494        0.391       45.339       28.448        0.394      337.260        9.113      859.681
05/10/2014  06:28:00      -95.223        3.782      -24.716       56.854       48.278       31.487     3232.360     2330.805      991.409        0.812        0.328       95.298       20.970        0.048      337.291        9.166      859.682
05/10/2014  06:29:00      -72.065      -15.904        5.804       67.601       48.736       27.424     4569.883     2375.150      752.075        0.659        0.385       73.799       27.322        0.137      337.229        9.062      859.710
05/10/2014  06:30:00     -150.113      -22.737       -0.821       52.088       48.145       27.720     2713.203     2317.903      768.371        1.442        0.290      151.825       25.662        0.029      337.149        8.928      859.694
05/10/2014  06:31:00      -91.597      -80.634        7.159       48.661       32.379       25.435     2367.889     1048.421      646.961        0.950        0.203      122.033       22.550        0.034      337.213        9.038      859.687
05/10/2014  06:32:00      -78.812      -21.808        5.739       43.834       26.676       19.240     1921.430      711.629      370.171        0.486        0.150       81.774       21.585        0.070      337.217        9.043      859.689
05/10/2014  06:33:00      -78.086      -15.306       -2.539       52.427       20.817       21.518     2748.569      433.362      463.030        0.499        0.182       79.572       25.262        0.101      337.305        9.189      859.704
05/10/2014  06:34:00      -20.541      -19.392       -8.532       34.279       12.549       19.097     1175.069      157.474      364.710        0.128        0.085       28.249       22.228        0.619      337.308        9.193      859.700
05/10/2014  06:35:00        9.006       -2.217       16.719       12.882       10.815       13.527      165.959      116.961      182.984        0.042        0.023        9.275       12.039        1.685      337.467        9.461      859.676
05/10/2014  06:36:00      -30.029       -0.993        5.131       17.244       15.912       12.657      297.358      253.202      160.207        0.082        0.036       30.046       10.444        0.121      337.421        9.384      859.710
05/10/2014  06:37:00       91.913      108.890        8.522      105.876       37.023       36.104    11209.829     1370.702     1303.473        1.713        0.694      142.495       32.014        0.050      337.349        9.262      859.677
05/10/2014  06:38:00       33.672      145.166       -0.565       96.146       81.768       47.433     9244.128     6686.052     2249.852        2.019        0.909      149.020       47.901        0.103      337.353        9.268      859.646
05/10/2014  06:39:00      -71.082       42.768       19.240       88.243       75.881       51.345     7786.836     5757.872     2636.334        1.171        0.809       82.956       45.000        0.294      337.357        9.275      859.682
05/10/2014  06:40:00     -154.471       15.664        5.869       96.156       96.524       51.694     9245.964     9316.867     2672.317        2.268        1.062      155.263       58.505        0.142      337.238        9.075      859.731
05/10/2014  06:41:00     -217.629       90.808      -23.093       98.750       70.935       43.544     9751.560     5031.746     1896.052        3.641        0.834      235.814       47.912        0.041      337.245        9.087      859.730
05/10/2014  06:42:00     -209.979      -65.891       -5.318       91.543       59.402       43.646     8380.112     3528.652     1904.960        3.113        0.691      220.075       38.478        0.031      337.307        9.190      859.711
05/10/2014  06:43:00     -100.619      -45.232       11.344      108.398       61.177       46.335    11750.129     3742.628     2146.954        1.497        0.882      110.318       52.216        0.224      337.334        9.237      859.722
05/10/2014  06:44:00     -214.996      -30.183      -22.208       43.083       60.584       24.694     1856.129     3670.406      609.786        2.688        0.307      217.105       19.600        0.008      337.316        9.206      859.737
05/10/2014  06:45:00      -98.665      -67.466       -3.204       56.974       38.119       26.688     3245.985     1453.060      712.224        0.985        0.271      119.526       23.130        0.037      337.325        9.223      859.738
05/10/2014  06:46:00      -35.047        0.203        8.023       41.960       45.555       22.971     1760.680     2075.271      527.650        0.283        0.218       35.048       21.505        0.376      337.472        9.468      859.752
05/10/2014  06:47:00      -67.337       37.443      -18.014       27.660       37.480       17.359      765.069     1404.780      301.351        0.437        0.124       77.047        9.577        0.015      337.284        9.153      859.760
05/10/2014  06:48:00      -47.280       35.853       -4.021       38.052       24.770       19.442     1447.929      613.544      377.990        0.299        0.122       59.336       19.891        0.112      337.374        9.306      859.776
05/10/2014  06:49:00      -24.918        3.727       -2.213       19.162       12.377        9.239      367.175      153.192       85.367        0.062        0.030       25.195        8.471        0.113      337.471        9.468      859.767
05/10/2014  06:50:00      -65.365        6.817      -19.414       26.984       30.827       23.026      728.117      950.277      530.215        0.345        0.110       65.720       21.275        0.105      337.326        9.226      859.769
05/10/2014  06:51:00       -7.281      -18.335       13.136       17.220       20.185       13.625      296.537      407.447      185.647        0.073        0.044       19.728       12.381        0.394      337.489        9.497      859.777
05/10/2014  06:52:00      -20.809       31.257        2.555       17.032       19.896       18.883      290.074      395.842      356.567        0.123        0.052       37.551       11.142        0.088      337.518        9.546      859.761
05/10/2014  06:53:00       14.315       41.194        9.801       21.182       27.138       19.211      448.685      736.455      369.063        0.178        0.078       43.611       10.558        0.059      337.539        9.583      859.755
05/10/2014  06:54:00       92.059       53.945        5.273       35.886       26.935       21.703     1287.829      725.507      471.003        0.695        0.124      106.700        8.547        0.006      337.452        9.434      859.739
05/10/2014  06:55:00      103.591       63.461       -2.749       41.283       22.557       21.165     1704.261      508.809      447.958        0.871        0.133      121.484       10.720        0.008      337.446        9.425      859.743
05/10/2014  06:56:00       78.852       57.476        4.639       24.632       27.831       19.917      606.738      774.564      396.683        0.566        0.089       97.576        7.832        0.006      337.532        9.570      859.749
05/10/2014  06:57:00       58.705       57.843        5.813       30.514       28.518       27.248      931.128      813.291      742.474        0.466        0.124       82.415       19.469        0.056      337.556        9.609      859.747
05/10/2014  06:58:00       57.073       30.671       10.799       31.905       25.642       24.074     1017.902      657.514      579.563        0.328        0.113       64.792       12.176        0.035      337.690        9.834      859.751
05/10/2014  06:59:00       23.319       28.554       -5.499       37.638       26.992       19.965     1416.639      728.563      398.601        0.197        0.127       36.867       10.341        0.079      337.680        9.819      859.745
05/10/2014  07:00:00       -2.567       94.112      -12.931       19.564       16.671       13.005      382.766      277.932      169.130        0.493        0.041       94.147        8.163        0.008      337.546        9.593      859.740
05/10/2014  07:01:00      -20.114       93.278       -8.195       24.332       24.792       20.015      592.027      614.644      400.582        0.539        0.080       95.422        9.792        0.011      337.631        9.736      859.734
05/10/2014  07:02:00      -12.450       55.853        2.392       14.915       39.486       19.999      222.450     1559.182      399.946        0.273        0.109       57.224       22.598        0.156      337.668        9.798      859.734
05/10/2014  07:03:00      -21.557      105.016       -9.327       29.077       54.996       20.887      845.500     3024.551      436.285        0.794        0.215      107.206       23.792        0.049      337.603        9.688      859.722
05/10/2014  07:04:00      -48.281       45.581       -4.218       21.786       37.664       20.958      474.611     1418.560      439.248        0.338        0.117       66.398       16.047        0.058      337.649        9.766      859.730
05/10/2014  07:05:00       10.921      -17.112       -1.189       39.025       35.622       22.298     1522.917     1268.954      497.179        0.185        0.164       20.300       18.278        0.811      337.601        9.684      859.724
05/10/2014  07:06:00        8.265       -9.163       19.179       38.174       15.142       20.084     1457.222      229.293      403.377        0.130        0.104       12.340       22.164        3.226      337.762        9.955      859.716
05/10/2014  07:07:00      -47.333       17.214       -6.594       21.434       20.875       20.501      459.433      435.782      420.309        0.195        0.066       50.366       15.494        0.095      337.488        9.494      859.714
05/10/2014  07:08:00      -69.049       35.541       -9.972       55.380       70.741       32.896     3066.899     5004.245     1082.166        0.764        0.458       77.659       30.359        0.153      337.548        9.595      859.713
05/10/2014  07:09:00      -45.145      118.497       -6.358       56.449       91.151       41.417     3186.497     8308.534     1715.376        1.466        0.661      126.805       27.609        0.047      337.606        9.693      859.695
05/10/2014  07:10:00      -70.692       26.860        0.540       55.985       81.017       30.962     3134.275     6563.745      958.625        0.819        0.533       75.623       31.310        0.171      337.691        9.834      859.659
05/10/2014  07:11:00     -170.011        5.522      -12.491       61.687       77.104       33.565     3805.326     5945.098     1126.642        1.998        0.544      170.100       25.125        0.022      337.445        9.423      859.664
05/10/2014  07:12:00     -202.394       14.821       -7.200      113.344       74.724       45.753    12846.862     5583.627     2093.335        3.088        1.026      202.936       58.162        0.082      337.459        9.444      859.633
05/10/2014  07:13:00     -163.497       14.069       -5.315      121.392       58.256       36.691    14736.107     3393.731     1346.227        2.321        0.974      164.101       46.728        0.081      337.617        9.709      859.594
05/10/2014  07:14:00     -124.965      -24.122       -6.943       54.874       66.071       32.647     3011.177     4365.355     1065.843        1.234        0.422      127.272       25.888        0.041      337.586        9.660      859.584
05/10/2014  07:15:00     -246.620      -16.493      -17.254       93.196       76.466       47.301     8685.528     5846.979     2237.343        3.908        0.838      247.171       53.306        0.047      337.541        9.582      859.583
05/10/2014  07:16:00     -318.925      -59.004      -21.619       83.050       80.412       45.872     6897.269     6466.022     2104.225        6.056        0.773      324.337       43.232        0.018      337.552        9.600      859.556
05/10/2014  07:17:00     -199.813      -67.798       -2.898       92.853       85.142       49.306     8621.760     7249.171     2431.125        3.141        0.915      211.002       44.485        0.044      337.637        9.743      859.539
05/10/2014  07:18:00     -208.541     -121.694        0.593      107.024       85.098       54.469    11454.041     7241.615     2966.909        3.998        1.083      241.452       54.705        0.051      337.649        9.762      859.531
05/10/2014  07:19:00     -255.632     -103.372      -14.895      106.252       78.254       52.497    11289.427     6123.668     2755.920        4.821        1.008      275.742       51.157        0.034      337.647        9.761      859.530
05/10/2014  07:20:00     -237.100       14.583      -25.098       61.443       93.323       42.830     3775.195     8709.164     1834.378        3.569        0.716      237.548       31.931        0.018      337.667        9.793      859.518
05/10/2014  07:21:00     -154.672        6.430       -8.707       87.146       80.510       49.745     7594.389     6481.861     2474.614        2.029        0.828      154.805       40.530        0.069      337.784        9.990      859.506
05/10/2014  07:22:00     -248.001       33.328      -23.741       72.311       65.431       49.866     5228.891     4281.279     2486.667        3.759        0.600      250.231       44.322        0.031      337.693        9.837      859.507
05/10/2014  07:23:00      -66.444       -4.296       19.701       72.853       52.269       40.001     5307.623     2732.029     1600.043        0.723        0.482       66.583       44.495        0.447      338.062       10.460      859.511
05/10/2014  07:24:00     -240.978      -44.717      -20.551      102.945       69.650       34.003    10597.655     4851.159     1156.213        3.855        0.830      245.091       30.092        0.015      337.799       10.013      859.533
05/10/2014  07:25:00     -180.941       -7.785        9.425      126.461       94.903       54.035    15992.430     9006.615     2919.772        3.040        1.396      181.108       59.454        0.108      337.894       10.174      859.513
05/10/2014  07:26:00     -188.990      -91.437      -11.087       88.458       68.889       40.817     7824.805     4745.746     1665.998        2.922        0.712      209.948       39.083        0.035      337.785        9.992      859.531
05/10/2014  07:27:00     -189.941      -26.520      -12.947       52.714       75.207       32.880     2778.774     5656.101     1081.116        2.323        0.476      191.783       27.298        0.020      337.821       10.051      859.542
05/10/2014  07:28:00     -141.278      -86.594       -5.155       72.983       74.783       36.794     5326.447     5592.545     1353.766        1.988        0.614      165.704       32.294        0.038      337.958       10.281      859.553
05/10/2014  07:29:00     -202.188     -102.408      -11.970       81.694       56.530       40.295     6673.938     3195.615     1623.689        3.150        0.575      226.644       38.102        0.028      337.927       10.228      859.534
05/10/2014  07:30:00     -260.298      -62.388       -2.312      142.530       71.130       52.101    20314.741     5059.494     2714.534        4.987        1.404      267.670       53.928        0.041      337.876       10.144      859.540
05/10/2014  07:31:00     -259.918      -67.010      -12.436      159.446       81.505       61.090    25423.124     6643.028     3731.991        5.399        1.790      268.417       69.851        0.068      337.834       10.073      859.549
05/10/2014  07:32:00     -119.536       -5.589       12.342      113.271       82.480       65.613    12830.298     6802.871     4305.095        1.920        1.197      119.666       61.789        0.267      338.059       10.451      859.560
05/10/2014  07:33:00     -177.446       25.452        1.146      136.222       81.181       56.790    18556.447     6590.415     3225.077        3.025        1.419      179.262       69.267        0.149      338.053       10.442      859.577
05/10/2014  07:34:00     -200.409       17.279       -6.638      101.864       91.845       51.655    10376.179     8435.577     2668.272        3.099        1.074      201.152       38.152        0.036      337.936       10.244      859.583
05/10/2014  07:35:00     -544.910     -127.780      -30.284      161.643      165.138       72.937    26128.437    27270.444     5319.745       18.643        2.936      559.691       55.199        0.010      337.791       10.001      859.536
05/10/2014  07:36:00     -427.432      -94.772       -2.725      208.780      125.407       82.004    43589.144    15726.944     6724.621       12.885        3.302      437.812      106.563        0.059      337.827       10.061      859.528
05/10/2014  07:37:00     -356.613      -94.990       -4.112      120.919      114.359       69.810    14621.371    13078.000     4873.393        8.439        1.629      369.047       70.976        0.037      337.925       10.226      859.575
05/10/2014  07:38:00     -326.846     -221.500        2.263      194.581      168.612       95.761    37861.645    28430.159     9170.226       11.566        3.773      394.830      110.709        0.079      337.915       10.208      859.594
05/10/2014  07:39:00     -168.170     -126.617       12.838      109.158       85.669       67.127    11915.378     7339.217     4506.044        3.411        1.188      210.507       58.268        0.077      337.951       10.269      859.574
05/10/2014  07:40:00     -181.744     -139.426      -12.197      156.420      127.644       65.321    24467.362    16292.878     4266.829        4.881        2.251      229.064       62.029        0.073      338.020       10.386      859.601
05/10/2014  07:41:00     -317.493     -144.256        2.118      134.022      122.186       65.632    17961.911    14929.499     4307.527        7.940        1.860      348.729       63.321        0.033      337.927       10.227      859.580
05/10/2014  07:42:00     -494.779      -81.403      -38.423      140.952      128.404       72.105    19867.426    16487.583     5199.105       14.722        2.078      501.431       68.379        0.019      337.851       10.102      859.571
05/10/2014  07:43:00     -471.109      -97.146      -30.521      183.567      104.928       75.324    33696.868    11009.833     5673.649       14.134        2.519      481.020       78.616        0.027      337.880       10.150      859.576
05/10/2014  07:44:00     -351.407      -17.901       -4.986      171.038      178.130       73.196    29253.989    31730.346     5357.674        9.507        3.317      351.863       84.379        0.058      337.957       10.280      859.580
05/10/2014  07:45:00     -400.847     -171.989      -26.064      183.718      170.645       94.328    33752.122    29119.663     8897.861       13.134        3.588      436.186      106.387        0.059      338.007       10.363      859.606
05/10/2014  07:46:00     -202.860      -67.460       -0.830      155.768      131.822       58.600    24263.658    17377.145     3433.946        4.538        2.254      213.783       73.722        0.119      338.097       10.515      859.598
05/10/2014  07:47:00     -412.930      -85.589      -19.454      159.377      156.569       65.673    25401.176    24513.921     4312.952       11.621        2.711      421.707       72.202        0.029      337.868       10.130      859.569
05/10/2014  07:48:00     -219.722      -14.673       -4.427      128.403      123.837       74.762    16487.396    15335.691     5589.406        4.296        1.871      220.211       66.179        0.090      338.001       10.353      859.584
05/10/2014  07:49:00     -378.216      -84.947      -13.370      179.080       88.510       60.937    32069.748     7833.962     3713.347        9.702        2.181      387.638       71.828        0.034      337.882       10.153      859.595
05/10/2014  07:50:00     -286.549      -94.677       -3.676      135.934      115.858       63.390    18477.999    13423.096     4018.353        6.350        1.796      301.785       72.087        0.057      337.941       10.251      859.618
05/10/2014  07:51:00     -359.872     -152.644        0.748      220.636      195.542       78.638    48680.377    38236.531     6183.898       12.294        4.655      390.907       97.078        0.062      337.873       10.139      859.605
05/10/2014  07:52:00     -314.444     -151.187        0.969      225.860      183.651       90.431    51012.965    33727.771     8177.843       10.731        4.646      348.902       95.928        0.076      337.933       10.239      859.614
05/10/2014  07:53:00     -228.267     -144.519      -12.993      190.957      140.410       66.238    36464.759    19714.854     4387.530        6.685        3.028      270.169       65.704        0.059      337.872       10.137      859.628
05/10/2014  07:54:00     -269.123      -88.437       17.155      193.827      138.200       93.730    37569.032    19099.292     8785.292        7.298        3.273      283.281      105.619        0.139      337.953       10.273      859.598
05/10/2014  07:55:00     -449.976     -255.571       -8.903      171.831      125.105       74.936    29525.813    15651.269     5615.344       15.932        2.540      517.489       83.002        0.026      337.783        9.987      859.601
05/10/2014  07:56:00     -175.495     -112.171       -6.335      139.269      123.465       60.870    19395.921    15243.497     3705.189        4.088        1.917      208.281       64.423        0.096      337.955       10.276      859.606
05/10/2014  07:57:00     -105.819      -13.865       11.169       87.272      109.566       46.832     7616.423    12004.695     2193.220        1.666        1.091      106.724       44.157        0.171      338.138       10.584      859.594
05/10/2014  07:58:00     -168.225      -83.598        6.496      215.474       88.042       49.647    46429.177     7751.434     2464.853        4.598        2.832      187.851       83.266        0.196      338.076       10.480      859.602
05/10/2014  07:59:00     -242.575     -173.727       -7.394      144.680      104.933       54.096    20932.195    11010.854     2926.424        6.197        1.743      298.369       48.690        0.027      337.992       10.339      859.601
05/10/2014  08:00:00     -241.029     -212.163       -2.164      163.925      133.064       69.788    26871.518    17705.985     4870.372        7.627        2.472      321.104       78.011        0.059      338.042       10.421      859.586
05/10/2014  08:01:00     -261.987     -148.150      -11.749      160.731      150.215       67.588    25834.315    22564.691     4568.193        7.183        2.648      300.975       79.812        0.070      337.994       10.341      859.562
05/10/2014  08:02:00     -265.898     -156.849        1.054      181.679      131.435       77.694    33007.080    17275.152     6036.373        7.580        2.816      308.713       59.110        0.037      338.028       10.398      859.561
05/10/2014  08:03:00     -277.315     -245.575      -13.249      184.353      141.508       73.899    33986.004    20024.414     5461.043        9.842        2.974      370.420       89.245        0.058      337.966       10.294      859.562
05/10/2014  08:04:00     -392.528     -249.813      -19.298      150.181      140.229       70.204    22554.397    19664.036     4928.664       13.199        2.357      465.279       74.131        0.025      337.874       10.140      859.558
05/10/2014  08:05:00     -219.608     -126.486       14.488      211.245      139.061       69.500    44624.327    19337.916     4830.244        6.660        3.440      253.429       99.546        0.154      338.162       10.626      859.516
05/10/2014  08:06:00     -403.922     -380.260      -16.169      174.632      166.603       77.337    30496.413    27756.674     5981.050       18.611        3.212      554.752       82.804        0.022      337.994       10.340      859.514
05/10/2014  08:07:00     -311.421     -317.247        0.664      211.403      148.805       80.172    44691.255    22143.044     6427.551       13.543        3.663      444.554       88.704        0.040      338.094       10.509      859.494
05/10/2014  08:08:00     -394.476     -108.513      -33.322      162.835      141.236       69.340    26515.099    19947.697     4808.022       10.987        2.564      409.128       64.040        0.025      338.047       10.430      859.520
05/10/2014  08:09:00     -409.617      -92.046      -21.745      165.058      124.581       58.979    27244.133    15520.364     3478.471       11.148        2.312      419.832       60.059        0.020      338.057       10.445      859.530
05/10/2014  08:10:00     -399.559     -255.398      -13.454      182.456      160.632       90.052    33290.331    25802.489     8109.444       14.612        3.360      474.211       95.618        0.041      338.011       10.369      859.518
05/10/2014  08:11:00     -335.381     -115.532      -14.655      170.487      150.909       66.562    29065.897    22773.658     4430.436        9.115        2.813      354.723       81.211        0.052      337.967       10.296      859.507
05/10/2014  08:12:00     -123.661      -76.691       29.786      114.852       72.848       61.960    13191.083     5306.826     3838.997        2.219        1.117      145.511       62.540        0.185      338.349       10.938      859.511
05/10/2014  08:13:00     -247.755     -186.308        4.834      170.527      123.253       64.039    29079.321    15191.264     4100.968        7.223        2.419      309.989       81.450        0.069      338.128       10.565      859.500
05/10/2014  08:14:00     -271.875     -152.786       -4.761      125.741       74.237       49.491    15810.716     5511.088     2449.408        6.052        1.189      311.864       63.137        0.041      337.987       10.329      859.472
05/10/2014  08:15:00     -111.628      -84.645       11.725       83.399       76.406       54.194     6955.370     5837.917     2936.975        1.774        0.787      140.091       51.358        0.134      338.245       10.765      859.460
05/10/2014  08:16:00     -124.378      -55.898       -4.025       79.158       87.648       41.450     6265.921     7682.171     1718.098        1.714        0.783      136.362       38.744        0.081      338.376       10.984      859.468
05/10/2014  08:17:00      -55.744      -77.392       17.597       83.085       83.619       56.563     6903.049     6992.132     3199.416        1.325        0.855       95.378       52.556        0.304      338.456       11.119      859.461
05/10/2014  08:18:00     -126.995     -232.250       -8.628       80.667      112.436       53.683     6507.234    12641.845     2881.844        4.608        1.102      264.703       61.235        0.054      338.075       10.478      859.470
05/10/2014  08:19:00     -187.381     -178.055        7.730      135.516      111.025       59.536    18364.568    12326.537     3544.593        5.055        1.712      258.486       70.755        0.075      338.126       10.564      859.456
05/10/2014  08:20:00     -179.156     -201.170       -9.230      139.971      106.307       62.177    19591.889    11301.263     3865.919        5.370        1.738      269.382       52.434        0.038      338.137       10.581      859.441
05/10/2014  08:21:00     -312.103     -173.603        3.341      154.154       93.443       60.919    23763.599     8731.562     3711.141        8.187        1.810      357.136       69.068        0.037      338.192       10.672      859.431
05/10/2014  08:22:00     -173.448       58.192       -8.563      121.721       77.744       50.368    14816.062     6044.107     2536.916        2.847        1.170      182.950       55.368        0.092      338.560       11.292      859.456
05/10/2014  08:23:00     -258.273      110.364      -14.616      116.444       66.229       53.116    13559.202     4386.243     2821.304        4.993        1.038      280.865       52.942        0.036      338.213       10.708      859.461
05/10/2014  08:24:00     -152.525       15.283        4.937       99.099       81.874       46.538     9820.602     6703.302     2165.803        2.110        0.934      153.289       47.368        0.095      338.555       11.287      859.448
05/10/2014  08:25:00     -227.629      -56.961       -5.957      168.784       93.114       64.907    28488.117     8670.207     4212.929        4.822        2.069      234.648       79.070        0.114      338.390       11.007      859.446
05/10/2014  08:26:00     -441.098      -94.661      -14.605      153.233      119.195       69.332    23480.226    14207.485     4806.948       12.311        2.125      451.141       76.557        0.029      338.043       10.424      859.456
05/10/2014  08:27:00     -317.333      -34.405      -28.418       96.054       70.828       51.716     9226.362     5016.638     2674.507        5.980        0.846      319.193       53.260        0.028      338.120       10.552      859.449
05/10/2014  08:28:00     -335.978       45.749      -39.507       64.462       75.602       40.292     4155.411     5715.588     1623.482        6.401        0.575      339.078       34.705        0.010      338.052       10.438      859.465
05/10/2014  08:29:00     -122.240        9.613       -0.889       77.969       64.761       37.459     6079.154     4194.015     1403.146        1.335        0.584      122.618       37.433        0.093      338.435       11.082      859.465
05/10/2014  08:30:00     -228.140       38.620       -1.411      114.812       75.123       45.808    13181.730     5643.408     2098.409        3.723        1.046      231.386       40.567        0.031      338.239       10.752      859.458
05/10/2014  08:31:00      -96.032       18.008        6.850       63.542       50.558       33.848     4037.644     2556.127     1145.693        0.866        0.387       97.706       34.061        0.122      338.679       11.496      859.450
05/10/2014  08:32:00      -69.713       14.085       -2.685       46.803       36.525       29.101     2190.520     1334.072      846.865        0.472        0.219       71.122       17.744        0.062      338.883       11.839      859.466
05/10/2014  08:33:00      -90.864      -38.183       -5.351       64.844       63.550       26.367     4204.784     4038.622      695.213        0.934        0.447       98.561       24.467        0.062      338.558       11.291      859.480
05/10/2014  08:34:00     -174.741      -31.903        6.491      141.208      134.706       66.848    19939.572    18145.809     4468.640        3.707        2.128      177.629       67.167        0.143      338.667       11.473      859.497
05/10/2014  08:35:00     -172.781     -104.769        6.323      155.733       87.184       58.671    24252.848     7601.077     3442.250        3.808        1.765      202.064       68.830        0.116      338.286       10.832      859.487
05/10/2014  08:36:00      -98.782       56.168      -14.796       85.379       98.319       45.160     7289.508     9666.538     2039.415        1.606        0.950      113.634       30.532        0.072      338.436       11.085      859.455
05/10/2014  08:37:00      -76.427      181.856      -25.417       85.334       92.709       47.672     7281.905     8594.866     2272.646        2.885        0.907      197.263       45.049        0.052      338.386       11.001      859.439
05/10/2014  08:38:00      -58.683       39.842       -9.241       91.893       77.137       39.474     8444.283     5950.183     1558.222        1.053        0.798       70.930       43.173        0.370      338.341       10.926      859.438
05/10/2014  08:39:00     -102.981        0.862        4.474       74.663       92.899       41.200     5574.596     8630.255     1697.462        1.326        0.795      102.984       38.573        0.140      338.385       11.001      859.430
05/10/2014  08:40:00     -213.198      -33.169      -26.849       90.039       72.043       34.479     8106.963     5190.204     1188.831        3.088        0.724      215.762       19.547        0.008      338.309       10.870      859.435
05/10/2014  08:41:00     -149.336      -65.390       -2.045      103.042       55.268       35.609    10617.626     3054.543     1268.018        2.076        0.747      163.024       42.827        0.069      338.393       11.012      859.445
05/10/2014  08:42:00     -107.679     -115.233       11.988      103.250       90.564       61.798    10660.648     8201.834     3819.014        2.384        1.134      157.713       67.317        0.182      338.439       11.090      859.419
05/10/2014  08:43:00      -62.182       -3.077       -0.133       58.275       37.858       33.833     3395.950     1433.200     1144.695        0.492        0.299       62.258       27.620        0.197      338.430       11.078      859.388
05/10/2014  08:44:00      -42.949     -107.361       11.902       59.484       62.318       33.400     3538.351     3883.485     1115.582        1.102        0.427      115.633       30.257        0.068      338.245       10.764      859.389
05/10/2014  08:45:00      -95.680      -71.224        0.431       66.567       76.073       29.112     4431.121     5787.124      847.524        1.264        0.553      119.279       27.777        0.054      338.271       10.808      859.362
05/10/2014  08:46:00      -23.564     -106.453        1.765       75.861       49.041       39.967     5754.967     2405.021     1597.323        1.082        0.488      109.030       46.164        0.179      338.302       10.861      859.334
05/10/2014  08:47:00       11.731      -11.531       38.404       41.389       71.310       35.319     1713.083     5085.099     1247.426        0.489        0.402       16.449       41.135        6.253      338.983       12.006      859.280
05/10/2014  08:48:00     -350.155     -173.125       -8.743      197.273      125.873       64.501    38916.790    15843.945     4160.436       10.578        2.946      390.616       65.705        0.028      338.329       10.904      859.265
05/10/2014  08:49:00     -182.226      -27.259        5.109      149.982       82.729       61.826    22494.454     6844.116     3822.400        3.356        1.658      184.254       65.771        0.127      338.477       11.155      859.288
05/10/2014  08:50:00     -112.518      -93.283       19.493      104.442       87.204       57.326    10908.032     7604.502     3286.244        2.177        1.090      146.158       64.250        0.193      338.585       11.335      859.234
05/10/2014  08:51:00     -209.335       45.170       -7.487      224.136      124.227       69.922    50236.790    15432.377     4889.124        5.822        3.528      214.153      100.558        0.220      338.459       11.124      859.245
05/10/2014  08:52:00     -329.774       68.773      -59.333      146.946      131.902       67.677    21593.067    17398.125     4580.154        8.028        2.179      336.869       66.061        0.038      338.155       10.611      859.253
05/10/2014  08:53:00     -279.624       49.933      -23.703      141.227       80.845       62.267    19944.967     6535.932     3877.230        5.580        1.518      284.048       65.820        0.054      338.292       10.842      859.224
05/10/2014  08:54:00     -299.804      -42.796      -24.830       98.847      115.653       54.296     9770.705    13375.642     2948.024        5.921        1.305      302.843       38.136        0.016      338.245       10.761      859.228
05/10/2014  08:55:00     -159.462      -72.286        1.033       72.930       63.135       36.729     5318.766     3985.993     1348.993        2.065        0.533      175.081       30.185        0.030      338.585       11.336      859.233
05/10/2014  08:56:00      -90.604      -41.759        4.953       86.425       64.749       36.882     7469.202     4192.444     1360.271        1.150        0.651       99.764       46.208        0.215      338.889       11.846      859.248
05/10/2014  08:57:00     -151.243      -28.339       -7.821       79.062       45.761       31.138     6250.847     2094.099      969.566        1.652        0.466      153.875       35.410        0.053      338.785       11.673      859.250
05/10/2014  08:58:00      -80.631       11.714        2.716       56.464       54.283       31.937     3188.227     2946.683     1019.989        0.690        0.358       81.478       26.988        0.110      338.975       11.992      859.217
05/10/2014  08:59:00      -32.794        8.443        2.700       42.308       45.600       30.102     1789.938     2079.333      906.144        0.296        0.239       33.863       23.222        0.470      339.006       12.045      859.183
05/10/2014  09:00:00      -89.747       44.264      -13.930       72.566       84.656       47.469     5265.763     7166.633     2253.261        1.244        0.734      100.069       50.615        0.256      338.845       11.772      859.160
05/10/2014  09:01:00     -220.361       84.922      -17.042      112.048       68.463       42.466    12554.788     4687.250     1803.354        3.755        0.952      236.159       44.421        0.035      338.531       11.243      859.142
05/10/2014  09:02:00     -196.679       44.351      -17.756      119.635       75.788       54.418    14312.549     5743.827     2961.355        3.199        1.151      201.618       54.755        0.074      338.598       11.356      859.106
05/10/2014  09:03:00     -238.484     -108.096       -7.581      165.559      102.611       66.415    27409.826    10528.993     4410.935        5.547        2.117      261.839       50.657        0.037      338.596       11.352      859.081
05/10/2014  09:04:00     -248.268      -97.851       -3.256      125.388      141.172       60.387    15722.191    19929.412     3646.535        5.525        1.965      266.856       63.157        0.056      338.496       11.184      859.082
05/10/2014  09:05:00     -297.423      -82.524       -6.556       87.772      117.236       46.515     7703.839    13744.393     2163.674        5.946        1.181      308.660       39.488        0.016      338.240       10.752      859.075
05/10/2014  09:06:00     -208.970      -43.781       -9.810      114.515       81.481       54.075    13113.671     6639.077     2924.115        3.417        1.134      213.507       65.457        0.094      338.273       10.810      859.078
05/10/2014  09:07:00     -303.643       19.761      -11.817      130.183       78.744       43.615    16947.736     6200.555     1902.275        5.888        1.253      304.285       58.000        0.036      338.174       10.642      859.058
05/10/2014  09:08:00     -104.274     -115.495       -2.006       80.645      159.050       40.193     6503.556    25296.817     1615.448        2.881        1.671      155.603       52.143        0.112      338.436       11.086      859.061
05/10/2014  09:09:00     -111.963     -313.765        8.526      124.651      160.667       55.180    15537.877    25814.021     3044.818        7.772        2.220      333.143       52.264        0.025      338.317       10.882      859.028
05/10/2014  09:10:00     -185.301     -217.962      -14.188      103.356      123.778       58.769    10682.503    15320.993     3453.782        5.575        1.473      286.084       59.580        0.043      338.277       10.817      859.034
05/10/2014  09:11:00     -207.746     -123.177       -6.748      138.226      104.140       51.933    19106.482    10845.148     2697.071        4.551        1.632      241.518       60.936        0.064      338.494       11.183      859.024
05/10/2014  09:12:00     -301.362     -163.298      -14.782      109.839       78.238       50.181    12064.589     6121.158     2518.140        6.920        1.035      342.761       44.725        0.017      338.311       10.872      859.018
05/10/2014  09:13:00     -270.687      -68.912       -1.737       95.334       71.666       45.524     9088.505     5135.969     2072.441        4.716        0.815      279.321       43.849        0.025      338.251       10.770      859.015
05/10/2014  09:14:00     -168.397       25.216      -20.603       73.529       70.439       42.751     5406.551     4961.647     1827.672        2.080        0.610      170.275       11.568        0.005      338.438       11.088      859.013
05/10/2014  09:15:00     -158.069       25.949       -9.803       59.542       61.570       37.681     3545.281     3790.836     1419.840        1.725        0.438      160.185       31.194        0.038      338.493       11.181      858.992
05/10/2014  09:16:00      -28.130       29.408        4.084      128.400       58.496       50.131    16486.605     3421.738     2513.126        1.204        1.121       40.696       51.802        1.620      338.567       11.305      858.964
05/10/2014  09:17:00     -235.377       -1.266      -21.822       46.330       63.884       29.788     2146.435     4081.171      887.302        3.150        0.356      235.381       26.036        0.012      338.335       10.910      858.957
05/10/2014  09:18:00     -358.952       -5.845      -30.844      106.506      105.935       61.885    11343.588    11222.245     3829.813        7.811        1.320      358.999       60.894        0.029      338.308       10.867      858.941
05/10/2014  09:19:00     -216.261      -75.164      -21.685      103.654       53.874       43.187    10744.239     2902.436     1865.157        3.420        0.776      228.951       53.144        0.054      338.298       10.851      858.925
05/10/2014  09:20:00     -164.637      -29.335      -21.994       48.860       40.226       32.155     2387.283     1618.094     1033.966        1.674        0.252      167.230       28.674        0.029      338.168       10.636      858.869
05/10/2014  09:21:00     -137.438      -87.845       -8.943       89.416       46.396       38.096     7995.241     2152.583     1451.286        1.914        0.580      163.113       43.124        0.070      338.268       10.804      858.841
05/10/2014  09:22:00     -190.027      -52.199      -18.006       63.653       70.398       37.131     4051.678     4955.837     1378.690        2.477        0.519      197.066       27.464        0.019      338.287       10.833      858.828
05/10/2014  09:23:00     -128.566     -109.581       -0.733       57.640       53.049       40.937     3322.325     2814.169     1675.843        1.817        0.391      168.929       30.254        0.032      338.395       11.017      858.813
05/10/2014  09:24:00     -266.657     -221.452        5.819      206.714      157.690       98.262    42730.550    24866.038     9655.419        9.870        3.863      346.622      103.224        0.089      338.449       11.105      858.799
05/10/2014  09:25:00     -387.794     -213.993       -9.191      227.301      135.943       71.722    51665.790    18480.576     5144.108       13.576        3.765      442.919       86.319        0.038      338.370       10.971      858.757
05/10/2014  09:26:00     -322.558     -212.431       -8.189      147.379      144.958       68.280    21720.696    21012.940     4662.127        9.831        2.370      386.226       62.917        0.027      338.387       11.001      858.750
05/10/2014  09:27:00     -224.210     -103.521        3.878      110.001       92.575       52.029    12100.164     8570.181     2707.012        4.218        1.169      246.955       50.740        0.042      338.588       11.338      858.768
05/10/2014  09:28:00     -265.135      -93.529      -11.174      125.474      105.083       52.649    15743.734    11042.383     2771.917        5.436        1.478      281.147       58.731        0.044      338.550       11.275      858.797
05/10/2014  09:29:00     -266.174       78.474      -20.880      129.761      107.234       59.346    16837.830    11499.127     3521.912        5.464        1.593      277.501       53.047        0.037      338.421       11.059      858.784
05/10/2014  09:30:00     -416.739     -247.110      -25.971      177.203      119.489       80.544    31400.929    14277.707     6487.274       14.378        2.608      484.494       87.721        0.033      338.357       10.950      858.772
05/10/2014  09:31:00     -436.282     -147.726      -31.688      214.235      123.842       85.244    45896.462    15336.853     7266.520       14.082        3.425      460.614       98.194        0.045      338.273       10.810      858.769
05/10/2014  09:32:00     -214.543      -28.886      -11.265       76.238       58.650       46.079     5812.157     3439.878     2123.283        2.918        0.569      216.479       40.852        0.036      338.280       10.822      858.762
05/10/2014  09:33:00     -168.239      -26.606       -6.047       85.358       57.631       37.078     7286.011     3321.342     1374.772        2.051        0.599      170.330       35.648        0.044      338.335       10.914      858.729
05/10/2014  09:34:00     -230.060      -22.743      -13.128      136.633       67.152       51.422    18668.666     4509.343     2644.252        3.971        1.291      231.181       66.391        0.082      338.471       11.143      858.727
05/10/2014  09:35:00     -168.689      -25.549      -10.988      100.816       90.363       42.834    10163.881     8165.543     1834.738        2.469        1.008      170.612       49.040        0.083      338.507       11.203      858.721
05/10/2014  09:36:00      -49.931        5.064       26.691       64.981       58.757       46.192     4222.520     3452.412     2133.690        0.652        0.490       50.187       34.402        0.470      338.862       11.801      858.693
05/10/2014  09:37:00       -8.529        5.237       10.010       56.863       35.210       28.029     3233.437     1239.729      785.647        0.273        0.263       10.008       17.665        3.115      338.979       12.000      858.668
05/10/2014  09:38:00       12.798      -62.731        3.424       33.336       35.851       31.782     1111.264     1285.298     1010.072        0.376        0.170       64.023       19.230        0.090      338.766       11.641      858.648
05/10/2014  09:39:00      -10.583      -52.163        7.573       54.290       46.860       34.411     2947.377     2195.863     1184.091        0.461        0.316       53.226       27.497        0.267      339.009       12.049      858.646
05/10/2014  09:40:00      -14.382      -54.377       11.567       90.884       64.257       38.202     8259.991     4129.024     1459.375        0.857        0.692       56.247       26.758        0.226      338.855       11.789      858.650
05/10/2014  09:41:00      -67.313       25.238       14.915      108.135       94.909       40.246    11693.124     9007.634     1619.752        1.385        1.116       71.889       41.912        0.340      339.283       12.509      858.656
05/10/2014  09:42:00     -276.382      -29.906       -4.078      148.642      139.180       67.714    22094.340    19371.094     4585.243        6.167        2.303      277.995       73.498        0.070      338.803       11.699      858.644
05/10/2014  09:43:00     -298.960     -104.253       -4.366      117.161      113.464       65.321    13726.676    12873.990     4266.865        6.556        1.543      316.616       53.604        0.029      338.827       11.739      858.638
05/10/2014  09:44:00     -218.893      -81.522       15.902      140.252      105.412       55.415    19670.711    11111.645     3070.795        4.433        1.693      233.581       68.905        0.087      338.924       11.903      858.680
05/10/2014  09:45:00      -95.058       91.562       -1.909       73.814      109.920       51.301     5448.466    12082.321     2631.746        1.879        1.008      131.983       40.940        0.096      338.919       11.899      858.719
05/10/2014  09:46:00     -326.276      -53.639      -25.848      159.514       88.583       53.757    25444.706     7846.892     2889.784        7.308        1.809      330.656       72.085        0.048      338.702       11.531      858.743
05/10/2014  09:47:00     -199.762       91.927      -18.206      144.915      116.736       54.399    21000.434    13627.324     2959.249        4.313        1.879      219.899       66.885        0.093      338.714       11.550      858.776
05/10/2014  09:48:00     -172.654      124.549      -48.933      101.456       76.363       51.032    10293.421     5831.262     2604.281        3.322        0.936      212.890       41.516        0.038      338.493       11.180      858.773
05/10/2014  09:49:00       -6.464      157.514       -5.968       50.425       93.471       39.208     2542.638     8736.860     1537.280        1.885        0.641      157.646       43.913        0.078      338.754       11.618      858.735
05/10/2014  09:50:00      -47.703       64.092       28.045       93.857       78.199       62.525     8809.190     6115.151     3909.403        1.300        0.942       79.896       55.450        0.482      338.962       11.969      858.727
05/10/2014  09:51:00      -59.441      274.454       -4.341       58.034      114.662       58.075     3367.994    13147.475     3372.704        4.938        0.994      280.817       60.780        0.047      338.671       11.481      858.774
05/10/2014  09:52:00      -73.636      212.987      -14.474       44.299       79.762       38.575     1962.366     6361.980     1488.016        3.040        0.491      225.357       37.099        0.027      338.473       11.146      858.784
05/10/2014  09:53:00     -135.573       92.683      -26.619      138.092      128.440       43.083    19069.374    16496.809     1856.102        3.254        1.871      164.226       31.215        0.036      338.519       11.223      858.769
05/10/2014  09:54:00      -45.195       75.667        1.699       81.260      102.833       52.404     6603.109    10574.605     2746.199        1.384        0.996       88.137       54.696        0.385      338.641       11.429      858.745
05/10/2014  09:55:00      -38.156      136.486       -0.780       84.872       76.873       55.358     7203.186     5909.474     3064.517        1.813        0.809      141.719       49.478        0.122      338.763       11.635      858.742
05/10/2014  09:56:00      -66.627      279.045      -24.381       97.448      170.305       65.939     9496.158    29003.623     4347.950        6.286        2.142      286.889       85.023        0.088      338.529       11.239      858.762
05/10/2014  09:57:00      -57.607      245.882      -24.371       70.543       97.006       43.221     4976.315     9410.138     1868.050        4.031        0.813      252.541       41.923        0.028      338.443       11.096      858.777
05/10/2014  09:58:00     -134.978      288.576      -37.477       83.430      108.184       44.877     6960.582    11703.762     2013.961        6.178        1.034      318.583       43.951        0.019      338.255       10.779      858.772
05/10/2014  09:59:00      -23.067      457.710      -61.549       91.817      101.375       44.809     8430.400    10276.869     2007.861       11.726        1.036      458.291       35.430        0.006      338.007       10.362      858.754
05/10/2014  10:00:00      -91.517      423.961      -40.962       75.658       79.256       48.194     5724.083     6281.543     2322.702       10.206        0.716      433.726       41.794        0.009      338.060       10.450      858.756
05/10/2014  10:01:00      -34.345      345.299      -48.745      103.517      133.481       50.047    10715.730    17817.116     2504.730        7.691        1.552      347.003       52.798        0.023      338.019       10.383      858.763
05/10/2014  10:02:00      -65.544      245.822      -18.563       74.697      105.954       52.427     5579.682    11226.292     2748.601        4.231        0.978      254.410       52.053        0.042      338.278       10.817      858.756
05/10/2014  10:03:00      -59.104      276.281      -18.173       81.030       98.079       55.989     6565.814     9619.571     3134.728        4.973        0.966      282.532       59.325        0.044      338.422       11.059      858.762
05/10/2014  10:04:00       95.560      251.006       -3.433      130.898      154.222       95.820    17134.300    23784.286     9181.492        6.111        2.505      268.581       99.236        0.137      338.390       11.006      858.749
05/10/2014  10:05:00      -18.171      322.940      -37.557       86.162      126.047       65.519     7423.874    15887.951     4292.727        6.681        1.380      323.450       66.488        0.042      338.304       10.861      858.743
05/10/2014  10:06:00       27.215      253.759      -20.709       82.233      149.185       73.521     6762.206    22256.227     5405.290        4.999        1.721      255.214       85.880        0.113      338.410       11.040      858.704
05/10/2014  10:07:00       36.697      264.012      -39.994       52.233      103.989       53.433     2728.283    10813.689     2855.043        4.452        0.820      266.550       59.846        0.050      338.436       11.082      858.676
05/10/2014  10:08:00       91.189      205.482       -5.688      118.057      139.591       61.888    13937.500    19485.612     3830.183        4.390        1.863      224.807       70.123        0.097      338.427       11.069      858.675
05/10/2014  10:09:00       38.831      266.602      -25.593      105.427      156.329       70.736    11114.825    24438.605     5003.643        5.689        2.028      269.415       78.033        0.084      338.420       11.056      858.672
05/10/2014  10:10:00       17.190      382.644      -62.491       82.098      109.908       57.114     6740.025    12079.768     3262.031        8.635        1.104      383.030       54.689        0.020      338.331       10.908      858.711
05/10/2014  10:11:00      -52.349      318.996      -33.695       84.984       82.433       56.090     7222.279     6795.229     3146.119        6.140        0.858      323.263       55.711        0.030      338.348       10.934      858.745
05/10/2014  10:12:00     -119.859      336.544      -38.250       99.772      127.482       53.025     9954.367    16251.690     2811.631        7.905        1.451      357.251       57.189        0.026      338.243       10.757      858.777
05/10/2014  10:13:00      -20.840      376.449      -49.372       89.123      102.628       43.742     7942.909    10532.486     1913.326        8.248        1.019      377.025       41.754        0.012      338.182       10.656      858.785
05/10/2014  10:14:00      -32.657      226.020      -17.534       76.537      110.257       57.220     5857.898    12156.713     3274.161        3.687        1.064      228.368       66.130        0.084      338.436       11.084      858.795
05/10/2014  10:15:00      -26.198      314.437      -43.139      126.077      128.622       59.864    15895.475    16543.633     3583.657        6.871        1.801      315.527       58.380        0.034      338.401       11.025      858.820
05/10/2014  10:16:00      -20.482      341.200      -46.607       67.168      109.703       46.120     4511.484    12034.697     2127.014        6.884        0.934      341.814       49.839        0.021      338.114       10.542      858.840
05/10/2014  10:17:00      -61.684      282.606      -36.396       97.695       84.080       47.288     9544.235     7069.474     2236.152        5.192        0.942      289.260       32.106        0.012      338.172       10.640      858.822
05/10/2014  10:18:00      -25.265      478.287      -56.143      107.194      201.975       72.237    11490.575    40794.001     5218.217       14.501        2.875      478.954       95.981        0.040      338.023       10.389      858.817
05/10/2014  10:19:00       18.357      382.181      -15.048      155.065      205.380      108.162    24045.193    42180.937    11698.916       11.226        3.896      382.622      115.881        0.092      337.978       10.313      858.817
05/10/2014  10:20:00      -75.682      607.096      -72.725      121.460      162.143       62.271    14752.627    26290.320     3877.633       21.224        2.246      611.795       58.522        0.009      337.763        9.954      858.867
05/10/2014  10:21:00     -161.951      437.727      -59.845      127.797      176.339       75.756    16332.160    31095.438     5739.015       13.728        2.658      466.726       83.823        0.032      337.775        9.974      858.901
05/10/2014  10:22:00     -112.072      531.054      -55.650      107.091      180.544       73.406    11468.495    32596.094     5388.411       17.355        2.473      542.751       77.235        0.020      337.700        9.849      858.887
05/10/2014  10:23:00     -126.078      479.474      -70.334      129.951      159.315       69.774    16887.155    25381.376     4868.375       14.893        2.357      495.773       73.316        0.022      337.680        9.816      858.881
05/10/2014  10:24:00     -184.320      304.895      -36.520      152.070      174.311       86.378    23125.345    30384.386     7461.133        9.461        3.049      356.279       90.385        0.064      337.819       10.048      858.879
05/10/2014  10:25:00      -44.781      407.105      -34.827       93.625      136.417       70.812     8765.725    18609.508     5014.395       10.066        1.619      409.561       70.299        0.029      337.802       10.019      858.863
05/10/2014  10:26:00      -67.227      301.103      -34.215       58.749      116.486       54.360     3451.418    13569.097     2955.058        5.816        0.999      308.517       48.576        0.025      337.999       10.350      858.843
05/10/2014  10:27:00      -17.126      240.501      -24.460       96.173      105.550       62.371     9249.232    11140.799     3890.197        4.150        1.214      241.110       66.067        0.075      338.000       10.350      858.833
05/10/2014  10:28:00      -48.819      287.994      -27.972       68.969      106.877       51.187     4756.756    11422.770     2620.110        5.245        0.940      292.102       55.509        0.036      338.058       10.449      858.806
05/10/2014  10:29:00     -145.875      334.851      -52.223      121.696      168.686       67.028    14809.957    28455.099     4492.726        9.194        2.388      365.246       75.887        0.043      337.809       10.030      858.826
05/10/2014  10:30:00     -132.069      339.319      -47.526      113.923      145.763       70.854    12978.479    21246.850     5020.333        8.703        1.962      364.115       62.595        0.030      337.904       10.191      858.819
05/10/2014  10:31:00     -109.062      434.184      -40.433      118.908      204.996       75.285    14139.035    42023.256     5667.881       13.193        3.092      447.672       89.014        0.040      337.888       10.163      858.833
05/10/2014  10:32:00     -175.905      351.479      -43.390      126.419      186.448       79.016    15981.744    34762.758     6243.454       10.666        2.849      393.040       86.834        0.049      337.880       10.150      858.850
05/10/2014  10:33:00     -130.795      446.973      -62.254      166.493      175.660       70.067    27719.950    30856.445     4909.396       14.211        3.174      465.717       66.771        0.021      337.771        9.967      858.862
05/10/2014  10:34:00      -80.527      504.916      -70.436       93.760      180.248       59.220     8791.021    32489.229     3506.990       15.558        2.239      511.297       59.964        0.014      337.615        9.704      858.894
05/10/2014  10:35:00      -76.984      423.116      -38.082       91.745      219.303       74.075     8417.120    48093.877     5487.056       12.419        3.100      430.063      110.606        0.066      337.755        9.941      858.885
05/10/2014  10:36:00       -5.728      483.664      -54.062       97.149      167.965       82.702     9437.905    28212.333     6839.561       14.068        2.224      483.698       90.970        0.035      337.758        9.946      858.877
05/10/2014  10:37:00        8.402      335.946      -22.418      112.715      172.362       85.797    12704.599    29708.653     7361.136        8.159        2.489      336.051       90.133        0.072      337.793       10.005      858.856
05/10/2014  10:38:00      103.656      248.887       -7.708      121.905      139.788       82.444    14860.716    19540.802     6796.981        5.697        2.060      269.609       86.596        0.103      337.874       10.140      858.816
05/10/2014  10:39:00      117.532      188.490        1.086      150.353      133.695       88.227    22606.050    17874.431     7783.958        4.879        2.413      222.132       74.435        0.112      337.857       10.111      858.770
05/10/2014  10:40:00       20.699      294.038      -20.857       91.221      153.422       77.934     8321.336    23538.161     6073.733        6.262        1.897      294.766       88.876        0.091      338.058       10.450      858.814
05/10/2014  10:41:00       44.035      352.415      -17.597      185.492      256.712      118.561    34407.108    65900.801    14056.595       12.038        5.718      355.156      148.486        0.175      337.960       10.283      858.826
05/10/2014  10:42:00       32.331      615.382      -82.310      145.335      182.677       87.930    21122.153    33370.713     7731.710       22.436        3.111      616.231       90.291        0.021      337.746        9.925      858.841
05/10/2014  10:43:00       96.526      421.894      -33.459      145.195      250.402      133.741    21081.502    62701.297    17886.646       14.503        5.083      432.795      158.005        0.133      337.841       10.086      858.817
05/10/2014  10:44:00       43.309      446.678      -44.191      128.044      197.708       95.528    16395.148    39088.445     9125.507       13.397        3.230      448.773      113.235        0.064      337.764        9.953      858.827
05/10/2014  10:45:00       54.930      406.498      -38.487      112.362      192.438       95.391    12625.180    37032.478     9099.396       11.424        2.938      410.193      111.645        0.074      337.852       10.103      858.821
05/10/2014  10:46:00       39.569      442.908      -19.166      123.651      206.137      113.295    15289.634    42492.471    12835.711       13.434        3.531      444.672      121.146        0.074      337.803       10.021      858.837
05/10/2014  10:47:00       23.422      415.696      -40.296      117.751      173.454       85.090    13865.392    30086.438     7240.237       11.307        2.560      416.355       93.636        0.051      337.768        9.961      858.868
05/10/2014  10:48:00     -124.134      397.550      -40.885      122.037      154.462       67.570    14893.052    23858.623     4565.679       10.921        2.166      416.480       67.368        0.026      337.944       10.257      858.892
05/10/2014  10:49:00        3.247      466.386      -61.559      110.844      143.447       74.382    12286.390    20577.025     5532.752       12.985        1.920      466.398       70.241        0.023      337.901       10.185      858.896
05/10/2014  10:50:00       97.357      359.707      -26.609      125.829      226.070       93.107    15832.827    51107.656     8668.930       10.758        3.780      372.649      119.990        0.104      337.743        9.919      858.889
05/10/2014  10:51:00      183.310      298.795       -7.322      162.540      210.556      105.264    26419.245    44333.873    11080.557       10.237        4.092      350.544      115.100        0.108      337.810       10.032      858.851
05/10/2014  10:52:00      -18.411      373.974      -39.521       88.089      141.750       63.251     7759.602    20093.176     4000.750        8.680        1.593      374.427       71.791        0.037      337.914       10.206      858.879
05/10/2014  10:53:00     -113.958      362.452      -52.316      144.822      182.754       85.478    20973.547    33399.090     7306.509       10.437        3.084      379.944       92.022        0.059      337.863       10.121      858.877
05/10/2014  10:54:00      -18.110      467.166      -52.175      106.118      162.208       71.164    11261.135    26311.570     5064.354       13.196        2.132      467.517       78.762        0.028      337.754        9.939      858.900
05/10/2014  10:55:00       34.531      341.912      -33.607      119.399      205.795       83.651    14256.055    42351.465     6997.449        9.140        3.180      343.651       99.153        0.083      337.795       10.008      858.889
05/10/2014  10:56:00       99.321      206.957      -14.293      105.466      120.805       70.604    11122.986    14593.919     4984.911        4.179        1.535      229.556       67.914        0.088      337.907       10.196      858.862
05/10/2014  10:57:00      126.380      224.521      -17.382      126.533      132.823       64.724    16010.506    17641.982     4189.147        5.226        1.892      257.646       60.754        0.056      337.929       10.232      858.817
05/10/2014  10:58:00       96.860      286.386      -32.288      115.731      141.106       79.038    13393.660    19910.880     6246.995        6.599        1.978      302.322       70.573        0.054      337.872       10.137      858.807
05/10/2014  10:59:00      116.085      208.715       25.329      141.793      144.010      109.417    20105.310    20738.762    11971.974        5.524        2.641      238.826       90.606        0.144      337.808       10.029      858.803
05/10/2014  11:00:00      169.231      266.660       -5.432      141.203      162.970      110.912    19938.335    26559.295    12301.381        7.928        2.940      315.827      102.154        0.105      337.766        9.957      858.785
05/10/2014  11:01:00       99.011      375.737      -56.953      141.981      143.797       73.991    20158.505    20677.548     5474.614       10.026        2.316      388.563       65.879        0.029      337.629        9.730      858.781
05/10/2014  11:02:00      158.998      261.145      -20.391      142.567      138.877       98.740    20325.310    19286.707     9749.573        7.162        2.468      305.741       77.418        0.064      337.766        9.958      858.754
05/10/2014  11:03:00       94.614      206.739       14.665      145.409      170.025      112.677    21143.693    28908.585    12696.121        5.732        3.137      227.361       93.205        0.168      337.766        9.959      858.744
05/10/2014  11:04:00      196.881      256.109      -13.801      142.486      165.933       94.471    20302.214    27533.781     8924.807        8.064        2.838      323.039       85.138        0.069      337.812       10.036      858.722
05/10/2014  11:05:00      160.473      235.631       -2.526      160.638      160.512      103.729    25804.659    25764.044    10759.726        7.179        3.116      285.085       95.729        0.113      337.812       10.035      858.744
05/10/2014  11:06:00       65.935      217.702      -14.156       96.283      154.594       90.054     9270.357    23899.358     8109.652        4.660        2.064      227.468       91.135        0.161      337.961       10.286      858.768
05/10/2014  11:07:00      176.020      229.606       -7.544      144.500      111.429       91.299    20880.219    12416.392     8335.595        6.269        2.082      289.313       73.301        0.064      337.795       10.008      858.763
05/10/2014  11:08:00      271.953      180.061       -0.815      173.904      140.740       73.368    30242.591    19807.885     5382.915        8.090        2.772      326.160       49.105        0.023      337.768        9.962      858.712
05/10/2014  11:09:00      213.392      158.818       23.921      188.805      116.263       92.899    35647.282    13517.057     8630.235        6.455        2.890      266.006       66.297        0.062      337.827       10.061      858.658
05/10/2014  11:10:00      186.754      268.962        5.049      192.577      152.925      104.769    37085.867    23386.102    10976.471        8.933        3.572      327.442       90.506        0.076      337.828       10.065      858.677
05/10/2014  11:11:00      236.219      316.391       -8.585      203.746      174.833      120.276    41512.451    30566.667    14466.345       12.124        4.327      394.846      103.592        0.069      337.702        9.850      858.659
05/10/2014  11:12:00      232.988      238.721       15.143      150.380      146.325      111.967    22614.019    21411.109    12536.667        8.402        2.828      333.573       93.265        0.078      337.767        9.960      858.642
05/10/2014  11:13:00      103.854      340.152      -33.186      145.766      200.756       98.184    21247.677    40303.111     9640.175        9.938        3.560      355.653      104.574        0.086      337.839       10.081      858.658
05/10/2014  11:14:00      -20.876      343.165      -46.602       85.009      161.012       56.925     7226.573    25924.791     3240.409        7.837        1.820      343.799       67.705        0.039      337.947       10.261      858.705
05/10/2014  11:15:00      -22.314      306.069      -24.909       91.233      163.573       63.937     8323.515    26756.020     4087.945        6.697        1.958      306.881       78.918        0.066      337.995       10.343      858.702
05/10/2014  11:16:00      -14.224       92.171        7.497       57.558      112.215       51.264     3312.912    12592.129     2628.023        1.364        0.927       93.262       64.942        0.485      338.116       10.550      858.655
05/10/2014  11:17:00      -48.903      -33.326       20.317       71.031       68.625       37.685     5045.344     4709.409     1420.156        0.754        0.559       59.179       31.916        0.291      338.121       10.557      858.591
05/10/2014  11:18:00      -22.138      100.914       -3.001      117.567      117.502       69.486    13822.033    13806.794     4828.294        2.156        1.623      103.314       71.717        0.482      338.099       10.520      858.555
05/10/2014  11:19:00      -74.730      134.916       -0.107       89.666      163.536       57.047     8040.060    26744.039     3254.354        3.091        1.902      154.230       68.701        0.198      338.247       10.767      858.573
05/10/2014  11:20:00     -126.222      397.014      -34.701      145.759      193.486       79.340    21245.815    37436.973     6294.784       11.985        3.249      416.596       83.497        0.040      337.914       10.207      858.615
05/10/2014  11:21:00      -98.583      240.362      -12.482      176.437      207.979       90.040    31129.981    43255.110     8107.187        7.505        4.125      259.793      113.336        0.190      338.096       10.512      858.579
05/10/2014  11:22:00      -42.566      330.535      -20.612       81.340      130.294       79.185     6616.201    16976.532     6270.271        7.067        1.493      333.264       72.329        0.047      338.084       10.493      858.577
05/10/2014  11:23:00       33.813      395.894      -24.359      110.749      226.795      122.836    12265.390    51435.927    15088.709       11.861        3.940      397.335      132.753        0.112      338.075       10.476      858.549
05/10/2014  11:24:00       47.349      218.374        2.331      141.642      170.136       72.948    20062.407    28946.206     5321.454        5.212        2.717      223.448       83.531        0.140      338.208       10.699      858.522
05/10/2014  11:25:00      145.331      173.409       10.972      137.845      131.829       84.325    19001.132    17378.888     7110.747        4.739        2.175      226.256       59.841        0.070      338.232       10.740      858.479
05/10/2014  11:26:00     -119.811      313.097      -40.398      141.920      137.301       75.451    20141.224    18851.576     5692.894        7.934        2.234      335.238       75.838        0.051      338.108       10.533      858.538
05/10/2014  11:27:00      -59.229      301.634       -7.890      134.449      146.251       86.035    18076.618    21389.341     7402.004        7.070        2.343      307.394       96.619        0.099      338.125       10.561      858.489
05/10/2014  11:28:00      -21.639      453.141      -42.161      105.758      204.181       81.563    11184.757    41690.030     6652.567       13.354        2.976      453.658      100.803        0.049      338.101       10.521      858.451
05/10/2014  11:29:00      -87.015      543.912      -58.664      117.022      158.990       80.589    13694.249    25277.662     6494.648       17.615        2.273      550.828       63.842        0.013      338.038       10.415      858.487
05/10/2014  11:30:00     -177.393      681.210      -85.866      151.697      206.822       84.279    23012.103    42775.506     7102.936       28.787        3.645      703.929       67.122        0.009      337.843       10.087      858.489
05/10/2014  11:31:00     -162.325      290.768      -39.054      110.735      158.028       72.030    12262.132    24972.872     5188.280        7.741        2.121      333.009       78.743        0.056      337.980       10.318      858.482
05/10/2014  11:32:00     -149.672      243.644      -36.985      103.902      128.744       58.635    10795.556    16575.073     3438.058        5.696        1.540      285.944       48.885        0.029      337.994       10.340      858.431
05/10/2014  11:33:00      -96.888      341.381      -41.658       77.970      128.888       59.371     6079.387    16612.014     3524.880        7.693        1.311      354.864       66.012        0.035      338.084       10.493      858.417
05/10/2014  11:34:00      -89.223      269.632      -32.658       91.591      120.326       58.985     8388.979    14478.440     3479.282        5.403        1.317      284.011       60.085        0.045      338.225       10.729      858.431
05/10/2014  11:35:00     -154.899      418.589      -68.476      178.889      155.442       86.281    32001.169    24162.282     7444.490       13.374        3.180      446.330       85.575        0.037      338.124       10.560      858.443
05/10/2014  11:36:00      -93.179      525.994      -55.602      146.926      165.527       78.107    21587.241    27399.180     6100.684       17.175        2.754      534.183       70.855        0.018      338.012       10.370      858.383
05/10/2014  11:37:00     -204.706      406.894      -61.751       99.608      180.356       70.229     9921.769    32528.449     4932.143       12.932        2.369      455.485       67.817        0.022      337.913       10.204      858.425
05/10/2014  11:38:00     -144.536      246.714      -34.213      144.843      106.194       57.373    20979.483    11277.231     3291.689        5.923        1.777      285.934       49.933        0.030      338.163       10.626      858.405
05/10/2014  11:39:00     -251.291      317.550      -63.213      142.276      148.901       89.361    20242.554    22171.533     7985.397       10.918        2.520      404.951       73.270        0.033      338.050       10.436      858.431
05/10/2014  11:40:00     -143.835      404.337      -33.038      104.991      147.365       73.436    11023.156    21716.423     5392.862       11.169        1.907      429.159       72.360        0.028      337.922       10.219      858.471
05/10/2014  11:41:00     -151.653      399.873      -44.602       87.553      118.951       63.136     7665.610    14149.374     3986.163       10.534        1.290      427.665       59.668        0.019      337.948       10.263      858.414
05/10/2014  11:42:00      -74.833      352.643      -32.957      115.092      178.883       69.174    13246.133    31999.290     4785.049        9.053        2.502      360.495       68.710        0.036      338.045       10.426      858.391
05/10/2014  11:43:00     -109.325      377.449      -42.294      127.208      202.286       62.753    16181.759    40919.674     3937.903       10.861        3.052      392.962       73.893        0.035      338.021       10.386      858.399
05/10/2014  11:44:00     -134.301      380.681      -45.787      107.317      130.097       67.088    11516.838    16925.323     4500.804        9.899        1.647      403.677       59.571        0.022      338.078       10.481      858.406
05/10/2014  11:45:00     -133.331      429.314      -45.867      143.810      121.709       73.512    20681.280    14812.992     5404.015       12.254        2.045      449.542       61.705        0.019      338.086       10.495      858.420
05/10/2014  11:46:00     -247.598      290.597      -67.228      125.697      169.848       65.731    15799.810    28848.216     4320.584        9.961        2.448      381.775       66.864        0.031      338.000       10.353      858.433
05/10/2014  11:47:00      -37.632      219.480      -27.358      113.799      134.672       53.074    12950.175    18136.455     2816.848        4.211        1.695      222.683       64.955        0.085      338.156       10.615      858.421
05/10/2014  11:48:00      -17.212      410.283      -49.087       95.534      175.963       69.529     9126.740    30963.074     4834.327       10.797        2.246      410.644       83.357        0.041      338.207       10.699      858.443
05/10/2014  11:49:00      -86.663      500.139      -55.863      106.450      140.967       62.034    11331.644    19871.744     3848.204       14.790        1.753      507.592       60.892        0.014      337.922       10.220      858.443
05/10/2014  11:50:00     -157.992      232.821      -14.459      188.060      147.467       77.987    35366.606    21746.372     6082.020        7.127        3.160      281.366       70.691        0.063      338.169       10.635      858.431
05/10/2014  11:51:00      -34.644      424.268      -42.957      114.183      203.121       91.206    13037.859    41257.943     8318.577       12.282        3.131      425.680      107.033        0.063      338.125       10.560      858.437
05/10/2014  11:52:00     -138.587      377.921      -47.094      103.260      135.453       70.593    10662.593    18347.502     4983.385        9.911        1.700      402.530       64.528        0.026      337.985       10.326      858.427
05/10/2014  11:53:00     -166.459      237.572      -26.908      131.272      154.435       68.362    17232.250    23850.225     4673.325        6.531        2.288      290.085       84.944        0.086      338.241       10.755      858.407
05/10/2014  11:54:00     -127.167      284.854      -27.195       97.795       89.957       60.465     9563.815     8092.329     3656.066        5.968        1.066      311.951       50.223        0.026      338.246       10.763      858.382
05/10/2014  11:55:00      -97.125      202.661      -23.826       75.417      115.582       39.295     5687.700    13359.258     1544.087        3.583        1.030      224.733       21.465        0.009      338.414       11.048      858.386
05/10/2014  11:56:00     -268.702      237.268      -64.865      138.806      172.759       64.526    19266.968    29845.639     4163.667        9.298        2.664      358.464       76.743        0.046      338.185       10.662      858.404
05/10/2014  11:57:00     -222.655      284.062      -54.783      145.287      126.900       74.967    21108.298    16103.673     5620.061        8.804        2.142      360.924       79.538        0.049      338.026       10.395      858.398
05/10/2014  11:58:00     -179.994      291.879      -37.299      100.338      130.258       67.977    10067.734    16967.087     4620.825        7.531        1.583      342.916       73.697        0.046      338.046       10.428      858.381
05/10/2014  11:59:00     -101.877      250.376      -16.092      115.697      135.854       64.071    13385.803    18456.223     4105.060        5.463        1.797      270.309       62.579        0.054      338.127       10.565      858.382
05/10/2014  12:00:00      -80.138      437.352      -45.529       86.109      101.708       61.657     7414.767    10344.438     3801.582       11.066        1.078      444.633       47.481        0.011      338.147       10.598      858.373
05/10/2014  12:01:00        3.546      433.455      -58.919       89.218      120.328       61.558     7959.937    14478.760     3789.446       10.879        1.311      433.470       61.046        0.020      338.275       10.812      858.359
05/10/2014  12:02:00      -60.173      325.117      -26.458      109.565      151.091       66.794    12004.584    22828.616     4461.472        7.465        1.965      330.639       62.630        0.036      338.435       11.082      858.381
05/10/2014  12:03:00     -145.415      237.383      -12.230      143.566      162.393       84.138    20611.121    26371.573     7079.131        6.584        2.703      278.381       91.890        0.109      338.426       11.066      858.391
05/10/2014  12:04:00     -141.150      460.371      -45.930      113.056      177.216       87.729    12781.611    31405.601     7696.427       14.292        2.594      481.523       91.695        0.036      338.164       10.626      858.400
05/10/2014  12:05:00     -184.000      521.281      -72.591      139.137      177.340       81.681    19359.026    31449.427     6671.817       18.416        2.874      552.802       76.129        0.019      337.895       10.174      858.425
05/10/2014  12:06:00      -29.345      198.466       -5.089       97.555      153.769       73.926     9517.049    23644.992     5465.050        3.944        1.931      200.624       68.044        0.115      338.455       11.116      858.386
05/10/2014  12:07:00     -192.456      284.760      -42.570      151.325      205.938       71.745    22899.145    42410.550     5147.334        9.518        3.523      343.697       70.590        0.042      338.358       10.953      858.381
05/10/2014  12:08:00     -279.969      212.777      -49.916      124.873      182.545       71.391    15593.254    33322.800     5096.677        9.007        2.701      351.649       59.762        0.029      338.229       10.736      858.403
05/10/2014  12:09:00     -181.869      256.935      -17.786      159.175      153.240      102.269    25336.535    23482.415    10458.962        7.933        2.964      314.789      107.414        0.116      338.182       10.656      858.417
05/10/2014  12:10:00     -207.460      343.617      -43.253      182.536      170.890       96.522    33319.521    29203.258     9316.520       11.740        3.592      401.388       93.298        0.054      338.096       10.513      858.395
05/10/2014  12:11:00     -189.951      451.693      -48.946      173.619      228.669       89.287    30143.535    52289.299     7972.133       16.644        4.520      490.008      102.766        0.044      337.971       10.303      858.365
05/10/2014  12:12:00      -85.524      258.504      -14.418      106.235      164.218       69.195    11285.783    26967.642     4787.883        5.869        2.152      272.284       60.136        0.049      338.307       10.866      858.330
05/10/2014  12:13:00     -189.139      406.466      -56.484      184.385      244.404       97.901    33997.968    59733.097     9584.514       15.373        5.166      448.317       97.368        0.047      337.862       10.119      858.341
05/10/2014  12:14:00     -182.740      443.793      -61.684      170.049      198.687       85.368    28916.743    39476.509     7287.662       15.490        3.784      479.944       79.031        0.027      337.804       10.022      858.305
05/10/2014  12:15:00     -105.359      362.982      -21.961      123.691      216.553       81.139    15299.425    46895.361     6583.494       10.604        3.439      377.963       93.691        0.061      337.997       10.346      858.254
05/10/2014  12:16:00     -124.124      524.529      -66.083      132.619      203.030       88.743    17587.750    41221.260     7875.321       18.078        3.334      539.015       82.436        0.023      337.831       10.069      858.226
05/10/2014  12:17:00      -86.461      423.111      -35.648      134.510      191.149       90.017    18092.953    36538.025     8102.973       12.524        3.137      431.855       96.779        0.050      337.879       10.149      858.202
05/10/2014  12:18:00     -198.135      484.897      -53.781      121.427      184.349       79.253    14744.606    33984.626     6281.079       16.613        2.751      523.816       78.028        0.022      337.849       10.096      858.175
05/10/2014  12:19:00     -164.841      200.694      -23.925      108.568      112.263       66.598    11786.923    12602.871     4435.237        4.842        1.441      259.713       58.346        0.050      337.986       10.327      858.177
05/10/2014  12:20:00     -149.841      299.017      -35.412       92.977      151.453       75.617     8644.768    22938.089     5717.871        7.520        1.865      334.460       71.730        0.046      338.111       10.537      858.159
05/10/2014  12:21:00     -141.195      476.524      -54.284      131.263      188.282       75.074    17229.961    35449.960     5636.031       15.413        2.916      497.002       73.091        0.022      337.858       10.112      858.186
05/10/2014  12:22:00      -86.417      445.650      -50.308       96.578      182.010       65.120     9327.382    33127.709     4240.679       12.764        2.335      453.951       72.014        0.025      337.827       10.061      858.140
05/10/2014  12:23:00     -247.025      207.651      -30.089      136.378       94.999       84.950    18598.919     9024.750     7216.457        6.994        1.742      322.707       84.090        0.068      337.880       10.150      858.110
05/10/2014  12:24:00     -288.820      370.138      -72.372      113.232      132.867       82.906    12821.457    17653.519     6873.347       13.149        1.867      469.488       73.072        0.024      337.803       10.019      858.087
05/10/2014  12:25:00     -199.164      455.404      -52.709      165.497      200.285       98.179    27389.108    40114.165     9639.065       16.347        3.857      497.050       95.598        0.037      337.846       10.094      858.118
05/10/2014  12:26:00     -188.547      321.387      -41.071      156.049      173.519       87.801    24351.148    30108.796     7708.976       10.134        3.108      372.612       76.649        0.042      338.013       10.373      858.105
05/10/2014  12:27:00     -188.065      310.179      -52.531      136.882      130.630       73.955    18736.620    17064.196     5469.378        8.780        2.064      362.738       73.616        0.041      338.165       10.628      858.103
05/10/2014  12:28:00     -197.612      403.071      -51.522      168.486      170.036       94.434    28387.649    28912.117     8917.860       13.518        3.311      448.906       92.023        0.042      338.090       10.504      858.105
05/10/2014  12:29:00     -162.905      222.540      -25.859      153.499      159.428       88.275    23562.076    25417.396     7792.412        6.674        2.839      275.793       79.678        0.083      338.320       10.888      858.117
05/10/2014  12:30:00     -217.055      424.803      -59.469      162.305      162.276       98.370    26342.900    26333.462     9676.650       14.672        3.118      477.044       96.992        0.041      337.999       10.349      858.177
05/10/2014  12:31:00     -360.155      578.020      -94.724      212.389      190.447      106.459    45109.220    36270.097    11333.546       28.273        4.636      681.043      105.482        0.024      337.754        9.939      858.226
05/10/2014  12:32:00     -146.485      434.169      -58.401      165.866      231.298       96.691    27511.456    53498.988     9349.188       15.185        4.518      458.214      103.360        0.051      337.849       10.098      858.241
05/10/2014  12:33:00     -225.072      539.987      -64.402      190.630      192.716      105.313    36339.970    37139.373    11090.909       21.546        4.229      585.016      121.584        0.043      337.969       10.298      858.262
05/10/2014  12:34:00     -263.794      403.390      -50.594      158.628      193.819       99.559    25162.942    37565.751     9912.046       15.374        3.632      481.987       93.977        0.038      337.857       10.111      858.313
05/10/2014  12:35:00     -237.292      460.766      -69.017      149.016      174.896       87.226    22205.633    30588.728     7608.376       16.688        3.020      518.278       87.433        0.028      337.770        9.966      858.332
05/10/2014  12:36:00     -265.984      592.442      -76.554      161.348      239.609      112.162    26033.181    57412.711    12580.415       26.179        4.801      649.412      110.854        0.029      337.749        9.932      858.316
05/10/2014  12:37:00     -265.489      330.251      -43.585      183.819      192.035       92.540    33789.442    36877.263     8563.593       13.032        3.962      423.733       98.625        0.054      337.847       10.094      858.350
05/10/2014  12:38:00     -317.132      387.463      -76.813      159.628      250.577       94.296    25481.009    62788.646     8891.781       17.686        4.858      500.700       99.761        0.040      337.534        9.569      858.343
05/10/2014  12:39:00     -300.935      394.725      -69.242      147.761      168.728       95.632    21833.354    28468.992     9145.515       15.529        2.972      496.356       92.584        0.035      337.336        9.239      858.354
05/10/2014  12:40:00     -277.274      587.824      -82.966      200.965      279.147      110.051    40387.123    77922.830    12111.221       27.984        6.521      649.937      138.794        0.046      337.237        9.073      858.383
05/10/2014  12:41:00     -249.709      659.120      -81.850      155.630      173.819       98.849    24220.609    30213.084     9771.173       28.384        3.210      704.836       85.635        0.015      337.128        8.889      858.367
05/10/2014  12:42:00     -184.756      644.215      -72.314      141.703      146.061       75.733    20079.789    21333.680     5735.523       25.075        2.357      670.185       70.548        0.011      337.256        9.104      858.344
05/10/2014  12:43:00      -58.170      601.320      -57.973      152.467      253.590      110.310    23246.117    64307.784    12168.229       23.401        4.986      604.127      134.842        0.050      337.299        9.177      858.334
05/10/2014  12:44:00     -101.709      583.160      -51.433      154.029      226.399      100.668    23724.869    51256.504    10134.109       21.907        4.256      591.963      110.444        0.035      337.264        9.117      858.323
05/10/2014  12:45:00     -150.115      217.262       -9.234      183.986      195.809       92.744    33850.776    38341.203     8601.538        7.529        4.040      264.078      120.816        0.209      337.576        9.642      858.338
05/10/2014  12:46:00     -305.092      386.870      -73.603      168.366      221.708      107.815    28347.043    49154.658    11624.042       16.863        4.456      492.696      114.206        0.054      337.300        9.179      858.330
05/10/2014  12:47:00     -206.900      292.430      -50.808      170.850      148.243       79.987    29189.881    21976.025     6397.939        9.422        2.878      358.222       88.018        0.060      337.423        9.384      858.313
05/10/2014  12:48:00       10.993      518.726      -58.244      155.437      240.867       95.812    24160.727    58016.687     9179.972       18.196        4.568      518.843      111.670        0.046      337.415        9.369      858.326
05/10/2014  12:49:00        1.853      608.749      -52.802      151.192      275.037      125.688    22859.072    75645.445    15797.462       24.381        5.715      608.751      149.447        0.060      337.321        9.213      858.320
05/10/2014  12:50:00      -67.391      629.653      -69.743      157.755      252.104      101.116    24886.718    63556.669    10224.449       25.225        4.933      633.250      112.852        0.032      337.198        9.006      858.288
05/10/2014  12:51:00      -97.331      435.756      -25.720      151.777      202.019       98.974    23036.308    40811.694     9795.793       13.682        3.682      446.494      112.148        0.063      337.386        9.322      858.306
05/10/2014  12:52:00     -140.941      471.169      -39.597      217.767      287.915      132.807    47422.301    82894.913    17637.702       19.566        7.398      491.797      130.778        0.071      337.322        9.214      858.287
05/10/2014  12:53:00     -119.048      511.212      -42.134      117.670      218.263       92.396    13846.160    47638.521     8537.036       17.364        3.501      524.890      107.867        0.042      337.310        9.193      858.235
05/10/2014  12:54:00       35.105      289.034       13.728      139.296      205.365      118.304    19403.247    42174.856    13995.803        8.025        3.779      291.158      120.156        0.170      337.479        9.477      858.093
05/10/2014  12:55:00      -88.811      376.560      -31.167      145.062      185.515       94.838    21042.992    34415.983     8994.242       10.754        3.223      386.892       91.473        0.056      337.651        9.765      858.056
05/10/2014  12:56:00     -177.301      441.561      -44.518      146.053      200.164       84.946    21331.437    40065.485     7215.740       14.849        3.431      475.827      103.601        0.047      337.670        9.797      858.085
05/10/2014  12:57:00     -294.270      716.976      -92.216      216.639      247.967      116.940    46932.547    61487.872    13675.041       36.560        6.105      775.016      125.671        0.026      337.256        9.104      858.159
05/10/2014  12:58:00     -232.445      318.120      -72.942      178.533      190.242       88.471    31873.958    36192.039     7827.200       11.821        3.795      393.994      111.016        0.079      337.270        9.126      858.140
05/10/2014  12:59:00     -121.623      303.670      -29.241      108.040      190.165       79.513    11672.718    36162.597     6322.383        8.100        2.708      327.120       93.802        0.082      337.487        9.492      858.091
05/10/2014  13:00:00     -266.871      292.375      -50.498      184.863      155.846       94.704    34174.324    24287.841     8968.928       11.333        3.372      395.857      101.171        0.065      337.486        9.489      858.117
05/10/2014  13:01:00     -259.827      428.597      -54.590      216.226      202.992      106.931    46753.542    41205.615    11434.287       17.677        4.970      501.204      110.738        0.049      337.333        9.233      858.119
05/10/2014  13:02:00     -367.393      354.616      -78.906      208.733      233.910      114.868    43569.427    54713.745    13194.595       18.919        5.574      510.617      139.002        0.074      337.281        9.146      858.139
05/10/2014  13:03:00     -358.052      123.996      -43.316      188.059      346.779      103.620    35366.095   120255.760    10737.080       15.587        8.318      378.915       98.484        0.068      337.145        8.920      858.112
05/10/2014  13:04:00     -177.771      471.232      -65.838      145.387      247.909       80.422    21137.294    61458.908     6467.738       17.351        4.453      503.649       91.092        0.033      337.187        8.989      858.125
05/10/2014  13:05:00     -127.280      566.653      -67.288      146.506      197.175      102.339    21464.052    38877.934    10473.294       20.631        3.541      580.772      108.309        0.035      337.121        8.879      858.161
05/10/2014  13:06:00     -132.949      620.343      -72.609      168.895      189.623       99.397    28525.591    35956.886     9879.859       24.105        3.718      634.430      105.078        0.027      336.980        8.642      858.202
05/10/2014  13:07:00      -76.247      661.822      -72.199      164.782      255.066      111.049    27152.950    65058.427    12331.833       27.677        5.227      666.200      126.728        0.036      336.936        8.568      858.181
05/10/2014  13:08:00      -30.088      779.124     -101.266      178.625      219.595       98.401    31906.777    48221.934     9682.660       35.398        4.491      779.704      109.878        0.020      336.840        8.409      858.176
05/10/2014  13:09:00     -100.633      668.740      -85.095      149.295      190.279       90.906    22288.980    36206.084     8263.886       26.566        3.338      676.269       82.380        0.015      336.964        8.616      858.167
05/10/2014  13:10:00     -192.425      522.720      -66.936      137.694      179.901       82.577    18959.609    32364.456     6818.883       18.643        2.907      557.013       73.221        0.017      337.092        8.830      858.175
05/10/2014  13:11:00     -236.674      573.789      -72.535      163.127      222.937      107.794    26610.362    49700.844    11619.648       23.920        4.397      620.684      106.533        0.029      336.969        8.625      858.211
05/10/2014  13:12:00     -239.667      498.597      -70.740      163.807      183.150      105.340    26832.661    33543.805    11096.525       19.124        3.574      553.208       93.750        0.029      336.900        8.508      858.188
05/10/2014  13:13:00     -163.709      569.731      -76.962      190.850      189.905       98.330    36423.694    36064.002     9668.739       21.972        4.108      592.785       95.123        0.026      336.963        8.614      858.138
05/10/2014  13:14:00     -234.808      373.102      -34.187      175.986      219.277      111.355    30971.224    48082.285    12399.849       14.346        4.573      440.840      100.405        0.052      337.097        8.838      858.197
05/10/2014  13:15:00     -399.915      500.877     -115.716      235.959      227.610      136.658    55676.850    51806.514    18675.341       27.515        6.308      640.944      144.951        0.051      336.938        8.572      858.249
05/10/2014  13:16:00     -254.685      209.212      -42.841      222.981      133.647       88.317    49720.666    17861.526     7799.839        9.291        3.769      329.597       82.611        0.063      337.065        8.784      858.170
05/10/2014  13:17:00     -288.065      253.858      -55.653      182.181      186.128       99.985    33190.096    34643.787     9996.913       11.416        3.892      383.960       76.881        0.040      337.193        8.998      858.131
05/10/2014  13:18:00     -184.528      271.983      -34.184      136.731      203.909       95.889    18695.478    41578.859     9194.718        8.932        3.473      328.672       93.348        0.081      337.301        9.180      858.150
05/10/2014  13:19:00     -326.002      466.389      -71.340      198.617      186.356      126.594    39448.598    34728.643    16026.075       20.953        4.510      569.031      112.370        0.039      337.108        8.856      858.140
05/10/2014  13:20:00     -336.402      442.571      -75.442      214.858      288.850      133.457    46163.998    83434.243    17810.739       23.104        7.370      555.909      129.709        0.054      337.103        8.848      858.142
05/10/2014  13:21:00     -344.295      543.932      -66.164      263.927      267.383      125.221    69657.571    71493.721    15680.233       28.777        7.842      643.740      149.310        0.054      336.984        8.649      858.177
05/10/2014  13:22:00     -386.298      196.627      -48.775      249.441      151.232       89.568    62220.937    22871.210     8022.494       14.167        4.656      433.461       79.570        0.034      337.081        8.811      858.136
05/10/2014  13:23:00     -365.943      265.557      -62.502      235.662      271.176      129.632    55536.727    73536.444    16804.426       17.708        7.294      452.144      112.651        0.062      337.035        8.733      858.131
05/10/2014  13:24:00     -404.649      426.920      -91.151      235.790      235.968      102.182    55596.782    55681.124    10441.075       23.799        6.086      588.219      107.705        0.034      337.068        8.789      858.111
05/10/2014  13:25:00     -365.349      457.867      -66.749      244.092      252.108      132.967    59581.032    63558.446    17680.137       24.417        7.041      585.766      118.322        0.041      337.092        8.829      858.130
05/10/2014  13:26:00     -329.554      420.634      -52.636      190.248      227.280      113.808    36194.121    51656.370    12952.282       19.454        5.040      534.359      119.301        0.050      337.080        8.808      858.134
05/10/2014  13:27:00     -306.271      343.066      -62.447      227.812      253.204      121.922    51898.088    64112.513    14864.904       17.311        6.544      459.887      134.831        0.086      337.137        8.906      858.120
05/10/2014  13:28:00     -336.568      445.188      -66.007      232.682      231.342      115.811    54140.785    53519.002    13412.195       21.843        6.054      558.096      137.830        0.061      337.030        8.727      858.162
05/10/2014  13:29:00     -456.366      499.448     -122.046      249.065      327.226      123.457    62033.147   107076.908    15241.677       32.845        9.218      676.549      119.783        0.031      336.864        8.450      858.185
05/10/2014  13:30:00     -370.715      446.380      -78.004      219.791      246.081      116.879    48308.268    60556.012    13660.750       23.262        6.126      580.246      131.470        0.051      336.957        8.604      858.191
05/10/2014  13:31:00     -413.009      442.024      -74.112      237.048      233.419      134.811    56191.625    54484.419    18173.920       25.013        6.442      604.947      136.777        0.051      336.766        8.284      858.235
05/10/2014  13:32:00     -413.703      499.791      -76.059      262.823      260.456      127.277    69075.956    67837.448    16199.335       28.989        7.656      648.800      144.105        0.049      336.638        8.071      858.174
05/10/2014  13:33:00     -381.314      411.317      -80.583      188.104      168.762      102.148    35383.019    28480.579    10434.273       19.767        3.715      560.876      101.982        0.033      336.655        8.100      858.143
05/10/2014  13:34:00     -321.203      526.285      -82.644      244.960      248.408      116.406    60005.431    61706.358    13550.289       26.109        6.763      616.561      120.691        0.038      336.671        8.127      858.162
05/10/2014  13:35:00     -230.132      417.213      -50.708      153.856      193.185      107.946    23671.583    37320.392    11652.281       15.111        3.632      476.474      106.705        0.050      336.770        8.291      858.155
05/10/2014  13:36:00     -191.871      394.141      -43.302      170.385      232.706      102.705    29031.046    54152.287    10548.400       14.387        4.687      438.363      111.531        0.065      336.686        8.152      858.156
05/10/2014  13:37:00     -426.606      455.661     -101.019      219.586      208.653      105.204    48217.966    43536.073    11067.973       25.130        5.141      624.195      115.124        0.034      336.550        7.925      858.200
05/10/2014  13:38:00     -248.590      184.694      -53.861      173.627      180.641       90.877    30146.373    32631.045     8258.542        8.491        3.552      309.692       95.435        0.095      336.710        8.192      858.137
05/10/2014  13:39:00      -98.458      264.657      -17.126      130.876      135.824       85.435    17128.552    18448.159     7299.092        6.144        2.144      282.378       75.675        0.072      336.875        8.468      858.109
05/10/2014  13:40:00     -234.341      378.152      -44.334      199.921      181.218      110.369    39968.279    32839.894    12181.304       14.242        4.249      444.876       96.378        0.047      336.884        8.483      858.067
05/10/2014  13:41:00     -288.953      299.207      -38.490      229.804      262.870       91.633    52809.880    69100.408     8396.552       15.238        6.515      415.955      107.657        0.067      337.047        8.755      857.986
05/10/2014  13:42:00     -385.024      393.437      -89.011      226.961      237.556      106.359    51511.308    56432.639    11312.202       21.508        5.963      550.488      126.846        0.053      337.083        8.816      858.002
05/10/2014  13:43:00     -491.109      533.253     -103.818      217.959      232.127      135.294    47506.270    53883.001    18304.458       32.799        5.985      724.946      135.071        0.035      337.064        8.782      858.012
05/10/2014  13:44:00     -428.948      445.053      -97.010      211.461      200.705      101.842    44715.614    40282.572    10371.835       24.341        4.769      618.117      100.894        0.027      337.072        8.796      858.039
05/10/2014  13:45:00     -374.343      469.963      -67.432      191.225      210.785      109.900    36567.012    44430.484    12077.908       22.929        4.654      600.831      109.202        0.033      337.072        8.796      858.092
05/10/2014  13:46:00     -272.369      306.965      -46.242      159.487      145.547       83.246    25436.137    21183.833     6929.938       11.204        2.677      410.381       77.156        0.035      337.187        8.988      858.120
05/10/2014  13:47:00     -338.227      377.945      -66.293      186.353      206.740      117.858    34727.514    42741.224    13890.585       17.648        4.568      507.188      122.328        0.058      337.144        8.919      858.121
05/10/2014  13:48:00     -305.359      506.082      -84.100      196.308      191.111       98.550    38536.947    36523.288     9712.020       22.059        4.239      591.070       99.906        0.029      337.140        8.910      858.091
05/10/2014  13:49:00     -248.818      367.468      -44.444      151.074      145.308       89.948    22823.239    21114.424     8090.705       12.546        2.601      443.782       82.512        0.035      337.224        9.052      858.098
05/10/2014  13:50:00     -174.711      284.736      -27.784      123.283      187.868       73.850    15198.758    35294.207     5453.756        8.415        2.797      334.063       68.066        0.042      337.290        9.162      858.099
05/10/2014  13:51:00     -214.757      431.902      -36.803      133.594      226.401      103.348    17847.285    51257.209    10680.827       15.688        3.989      482.348      112.675        0.055      337.294        9.168      858.036
05/10/2014  13:52:00     -171.098      395.699      -45.322      132.275      216.000       88.852    17496.786    46656.146     7894.697       12.996        3.602      431.106      101.045        0.055      337.488        9.493      857.998
05/10/2014  13:53:00     -229.205      257.555      -50.309      149.053      190.964       81.285    22216.786    36467.196     6607.182        9.333        3.265      344.775       97.307        0.080      337.640        9.747      858.043
05/10/2014  13:54:00     -142.253      335.048      -41.095      113.853      151.429       75.633    12962.476    22930.742     5720.387        8.789        2.081      363.996       67.662        0.035      337.670        9.798      858.043
05/10/2014  13:55:00     -266.665      371.589      -50.536      154.795      218.599       93.170    23961.371    47785.732     8680.739       14.607        4.021      457.371       91.600        0.040      337.612        9.700      858.048
05/10/2014  13:56:00     -219.590      287.781      -46.906      150.856      118.610       78.228    22757.525    14068.250     6119.558        8.808        2.147      361.991       76.943        0.045      337.658        9.778      858.054
05/10/2014  13:57:00     -155.930      225.620       -8.860      116.601      174.479       81.695    13595.881    30442.798     6674.012        6.299        2.536      274.260       89.524        0.107      337.748        9.928      858.057
05/10/2014  13:58:00     -286.211      332.447      -42.152      175.343      183.528      104.422    30745.215    33682.427    10903.984       13.476        3.767      438.677       95.528        0.047      337.618        9.712      858.070
05/10/2014  13:59:00     -274.430      306.685      -46.170      179.707      154.362       87.041    32294.461    23827.548     7576.129       11.759        3.185      411.543       69.793        0.029      337.622        9.717      858.083
05/10/2014  14:00:00     -241.624      353.780      -37.414      131.286      165.677       87.042    17236.088    27448.979     7576.322       11.859        2.613      428.418       82.933        0.037      337.643        9.752      858.108
05/10/2014  14:01:00     -254.147      330.381      -57.379      125.594      129.389       71.389    15773.816    16741.561     5096.392       10.732        1.881      416.824       63.673        0.023      337.653        9.768      858.118
05/10/2014  14:02:00     -429.037      391.332      -94.080      151.236      159.168       90.479    22872.258    25334.416     8186.512       20.122        2.820      580.701       86.032        0.022      337.489        9.494      858.119
05/10/2014  14:03:00     -301.603      295.100      -47.549      197.048      159.120       94.184    38828.038    25319.070     8870.633       12.665        3.651      421.958      107.316        0.065      337.612        9.701      858.119
05/10/2014  14:04:00     -258.260      280.368      -42.114      114.856      155.665       77.917    13191.827    24231.733     6071.037        9.528        2.175      381.188       77.870        0.042      337.719        9.879      858.108
05/10/2014  14:05:00     -186.792      248.690      -47.763      130.885       98.111       62.579    17130.876     9625.814     3916.133        6.484        1.534      311.028       61.972        0.040      337.825       10.057      858.120
05/10/2014  14:06:00     -113.504      409.228      -47.825       73.491      166.409       56.463     5400.858    27691.825     3188.099       10.945        1.814      424.677       64.801        0.023      337.733        9.903      858.104
05/10/2014  14:07:00     -133.909      253.972      -37.171       87.106      190.284       51.005     7587.375    36207.825     2601.494        6.510        2.320      287.112       63.726        0.049      337.895       10.174      858.077
05/10/2014  14:08:00     -175.258      278.681      -48.132      102.283      179.785       59.298    10461.732    32322.690     3516.270        7.849        2.315      329.209       74.960        0.052      337.899       10.181      858.063
05/10/2014  14:09:00     -138.483      156.064      -23.316       98.453      113.838       53.472     9693.040    12959.190     2859.217        3.479        1.276      208.647       66.906        0.103      338.049       10.435      858.042
05/10/2014  14:10:00     -100.693       64.196        4.229       68.503      124.000       51.426     4692.618    15376.014     2644.615        1.849        1.136      119.416       59.810        0.251      338.206       10.699      858.056
05/10/2014  14:11:00     -112.924      247.238      -10.008       93.045      182.479       60.620     8657.324    33298.725     3674.802        5.980        2.282      271.806       70.498        0.067      338.137       10.582      858.063
05/10/2014  14:12:00     -103.713      357.487      -36.923      142.035      183.317       78.628    20173.862    33605.262     6182.290        9.993        2.998      372.227       86.135        0.054      337.971       10.303      858.058
05/10/2014  14:13:00     -146.549      348.191      -43.020       84.969      145.729       65.372     7219.766    21236.967     4273.458        8.864        1.637      377.774       60.614        0.026      338.017       10.379      858.050
05/10/2014  14:14:00     -187.602      231.220      -43.060      113.739      109.030       60.538    12936.617    11887.443     3664.907        5.949        1.424      297.753       75.092        0.064      338.075       10.477      858.070
05/10/2014  14:15:00     -207.805      261.279      -42.495      122.305      126.843       73.788    14958.615    16089.268     5444.716        7.487        1.825      333.841       69.263        0.043      338.069       10.465      858.089
05/10/2014  14:16:00     -121.112      239.906      -24.192      148.166      152.473       73.854    21953.037    23248.041     5454.397        6.172        2.533      268.744       74.944        0.078      338.121       10.554      858.089
05/10/2014  14:17:00     -178.698      152.813      -33.728      111.688      183.467       57.669    12474.303    33660.139     3325.734        5.293        2.473      235.127       62.625        0.071      338.157       10.614      858.102
05/10/2014  14:18:00     -104.307      231.750      -17.432       79.786       98.413       58.435     6365.811     9685.201     3414.601        4.217        0.973      254.142       48.366        0.036      338.276       10.814      858.186
05/10/2014  14:19:00      -88.558      421.103      -30.678      116.636      153.945       78.377    13603.867    23699.058     6143.023       11.477        2.172      430.314       80.042        0.035      338.081       10.488      858.210
05/10/2014  14:20:00      -69.789      340.012      -37.748      114.984      131.254       78.181    13221.290    17227.565     6112.266        7.922        1.828      347.100       73.924        0.045      338.054       10.442      858.194
05/10/2014  14:21:00     -160.108      341.872      -44.156      134.725      114.789       62.087    18150.719    13176.458     3854.835        8.981        1.759      377.507       58.782        0.024      338.097       10.514      858.215
05/10/2014  14:22:00     -108.792      305.105      -28.625      106.265      159.800       71.873    11292.170    25536.037     5165.667        7.386        2.100      323.921       81.104        0.063      338.103       10.524      858.231
05/10/2014  14:23:00     -217.631      263.734      -61.120       90.900       83.182       62.337     8262.734     6919.205     3885.961        6.986        0.953      341.934       54.297        0.025      338.163       10.625      858.266
05/10/2014  14:24:00     -235.791        7.677      -19.188      122.643      130.932       64.200    15041.357    17143.208     4121.670        4.616        1.815      235.916       53.449        0.051      338.316       10.881      858.294
05/10/2014  14:25:00     -203.725       70.870      -20.430      129.635      122.027       60.738    16805.228    14890.529     3689.079        4.116        1.769      215.700       61.150        0.080      338.264       10.796      858.324
05/10/2014  14:26:00     -372.127       86.466      -46.729      114.566      178.639       63.560    13125.441    31911.838     4039.828        9.860        2.454      382.041       56.462        0.022      338.120       10.552      858.378
05/10/2014  14:27:00     -153.562      -30.672      -17.719      100.857       91.530       49.708    10172.089     8377.670     2470.866        2.292        1.051      156.595       51.789        0.109      338.259       10.788      858.397
05/10/2014  14:28:00     -118.974       63.249        7.484      103.231       84.428       52.771    10656.625     7128.126     2784.792        1.939        1.028      134.741       48.036        0.127      338.331       10.908      858.403
05/10/2014  14:29:00      -98.742       19.375       -4.210       82.737       46.294       29.976     6845.366     2143.107      898.588        1.001        0.494      100.625       24.528        0.059      338.340       10.924      858.404
05/10/2014  14:30:00     -298.913      -50.331      -24.766      122.285      110.903       61.849    14953.503    12299.380     3825.331        6.178        1.554      303.121       63.174        0.043      338.233       10.744      858.403
05/10/2014  14:31:00     -215.442      231.226      -52.742      110.398      111.681       65.388    12187.765    12472.573     4275.533        6.579        1.447      316.039       49.890        0.025      338.264       10.794      858.439
05/10/2014  14:32:00     -269.159      244.539      -49.857      163.781      133.035       83.360    26824.057    17698.224     6948.895        9.309        2.574      363.656       88.383        0.059      338.349       10.938      858.496
05/10/2014  14:33:00     -347.053      404.074      -89.687      188.843      184.803      111.265    35661.797    34152.304    12380.011       18.696        4.110      532.655      114.555        0.046      338.070       10.468      858.555
05/10/2014  14:34:00     -319.289      113.875      -37.186      178.871      249.965       95.189    31994.700    62482.274     9060.875       10.990        5.177      338.988       71.212        0.044      337.962       10.287      858.538
05/10/2014  14:35:00     -169.922      285.945      -28.615      104.878      276.270       83.813    10999.321    76325.384     7024.660       10.288        4.717      332.623      114.012        0.117      337.995       10.344      858.569
05/10/2014  14:36:00      -93.170      145.380      -22.441      121.596      130.779       81.087    14785.608    17103.156     6575.166        3.438        1.923      172.673       60.813        0.124      337.992       10.339      858.564
05/10/2014  14:37:00     -173.960      382.043      -47.969      115.069      233.846       78.165    13240.761    54683.886     6109.844       12.626        3.702      419.785       96.391        0.053      337.988       10.331      858.579
05/10/2014  14:38:00     -149.359      272.989      -28.379      118.199      156.953       64.804    13970.985    24634.397     4199.617        7.021        2.140      311.177       82.154        0.070      337.988       10.331      858.595
05/10/2014  14:39:00     -232.299      337.454      -46.691      147.492      243.222       80.478    21753.851    59156.708     6476.749       12.869        4.369      409.681       97.904        0.057      337.891       10.169      858.617
05/10/2014  14:40:00     -256.173      289.494      -41.297      161.733      157.276       79.384    26157.559    24735.670     6301.812       10.415        2.860      386.564       71.825        0.035      337.866       10.124      858.643
05/10/2014  14:41:00     -274.465      428.449      -62.852      194.076      216.759      105.777    37665.524    46984.307    11188.803       17.932        4.792      508.821       93.545        0.034      337.775        9.973      858.703
05/10/2014  14:42:00     -285.011      380.178      -52.945      200.741      260.591      108.332    40297.091    67907.894    11735.787       17.423        5.997      475.149      125.216        0.069      337.656        9.775      858.749
05/10/2014  14:43:00     -351.174      394.765     -101.121      176.804      191.219       95.948    31259.505    36564.670     9205.956       18.319        3.852      528.358      109.838        0.043      337.525        9.553      858.766
05/10/2014  14:44:00     -382.222      445.557      -95.070      160.286      224.519       99.333    25691.687    50408.992     9867.127       21.979        4.298      587.038       99.705        0.029      337.418        9.377      858.796
05/10/2014  14:45:00     -293.189      390.556      -70.269      197.404      180.438      102.210    38968.291    32557.791    10446.944       16.269        4.099      488.358      115.494        0.056      337.499        9.511      858.780
05/10/2014  14:46:00     -142.143      419.648      -49.860      102.718      228.293       79.824    10551.069    52117.604     6371.833       13.390        3.452      443.068       92.502        0.044      337.524        9.553      858.796
05/10/2014  14:47:00     -149.170      159.302       -2.129      164.724      177.697       82.677    27133.950    31576.239     6835.518        5.658        3.277      218.241       88.410        0.164      337.631        9.734      858.812
05/10/2014  14:48:00     -243.619      311.450      -39.832      157.071      151.338       89.225    24671.306    22903.077     7961.158       10.673        2.777      395.413       82.215        0.043      337.459        9.444      858.878
05/10/2014  14:49:00     -340.945      393.643      -65.049      215.513      274.237      127.253    46445.756    75205.882    16193.237       20.661        6.892      520.767      141.369        0.074      337.207        9.023      858.937
05/10/2014  14:50:00     -385.661      442.494      -72.298      200.921      194.368      112.854    40369.447    37778.828    12735.942       22.031        4.544      586.972      107.554        0.034      337.050        8.760      858.948
05/10/2014  14:51:00     -266.841      282.627      -31.567      138.760      235.339       86.216    19254.416    55384.605     7433.200       11.706        4.104      388.693       81.673        0.044      337.115        8.868      858.943
05/10/2014  14:52:00     -228.543      104.623      -38.338      158.418      210.248      108.879    25096.295    44204.092    11854.583        7.289        4.058      251.352       79.879        0.101      337.075        8.800      858.948
05/10/2014  14:53:00     -251.428      149.836      -29.452      184.031      134.456       95.707    33867.383    18078.526     9159.855        7.381        3.055      292.689      105.567        0.130      337.112        8.864      858.993
05/10/2014  14:54:00     -230.241      241.331      -22.561      181.932      178.960      104.034    33099.197    32026.663    10823.165        9.384        3.797      333.544      113.626        0.116      337.035        8.734      859.002
05/10/2014  14:55:00     -343.143      174.192      -36.414      250.075      124.349      107.662    62537.345    15462.597    11591.106       11.949        4.480      384.825      123.903        0.104      337.012        8.695      859.020
05/10/2014  14:56:00     -254.442       85.582      -28.568      163.476      162.325       83.714    26724.444    26349.477     7008.054        6.647        3.004      268.449       76.043        0.080      337.039        8.741      859.074
05/10/2014  14:57:00     -515.142      -31.063      -40.380      339.643      299.583      128.409   115357.451    89750.201    16488.865       24.474       11.080      516.078      136.491        0.070      336.804        8.348      859.143
05/10/2014  14:58:00     -630.029     -146.610      -72.880      290.557      170.237       96.666    84423.288    28980.676     9344.373       27.322        6.137      646.862       89.090        0.019      336.675        8.133      859.255
05/10/2014  14:59:00     -162.856     -263.519        3.888      195.538      172.725       85.996    38235.292    29833.968     7395.383        8.571        3.773      309.781       87.841        0.080      336.681        8.141      859.023
05/10/2014  15:00:00     -284.886       27.957      -36.005      149.822      113.961       44.326    22446.722    12987.075     1964.756        6.031        1.870      286.255       53.113        0.034      336.762        8.278      859.081
05/10/2014  15:01:00     -214.787      -14.957       -6.252      162.281       70.393       56.905    26335.163     4955.181     3238.180        4.046        1.726      215.307       73.924        0.118      336.709        8.192      859.259
05/10/2014  15:02:00      -44.346      -30.458       12.219       79.232       63.273       38.733     6277.727     4003.483     1500.217        0.741        0.589       53.799       34.892        0.421      336.768        8.290      859.177
05/10/2014  15:03:00     -212.891     -182.253       -5.250      118.601       94.542       67.139    14066.100     8938.266     4507.617        5.303        1.376      280.248       59.043        0.044      336.564        7.946      859.010
05/10/2014  15:04:00     -225.059     -134.676        2.810      117.101       84.644       53.470    13712.753     7164.593     2859.013        4.626        1.187      262.277       57.381        0.048      336.521        7.876      858.932
05/10/2014  15:05:00     -184.381     -165.077      -10.329      117.109      114.531       47.570    13714.564    13117.253     2262.942        4.522        1.455      247.481       31.170        0.016      336.546        7.917      858.973
05/10/2014  15:06:00     -226.847       -3.772       -3.576      145.119       96.631       63.124    21059.493     9337.473     3984.600        4.293        1.719      226.878       62.026        0.075      336.667        8.123      859.076
05/10/2014  15:07:00     -193.477       36.822      -10.717       67.633       66.799       38.705     4574.222     4462.162     1498.054        2.472        0.527      196.949       32.227        0.027      336.672        8.129      859.095
05/10/2014  15:08:00     -175.697       86.827      -18.601       74.823       52.589       37.436     5598.539     2765.628     1401.468        2.426        0.488      195.981       42.665        0.047      336.717        8.204      859.129
05/10/2014  15:09:00     -199.888      -63.102       -6.124       64.861       49.793       34.353     4206.919     2479.343     1180.100        2.592        0.393      209.611       27.819        0.018      336.809        8.355      859.257
05/10/2014  15:10:00     -315.190     -177.784      -26.912      133.254      109.425       67.388    17756.697    11973.910     4541.121        8.297        1.714      361.873       72.336        0.040      336.854        8.434      859.429
05/10/2014  15:11:00     -297.714      -87.547        5.320      166.504      136.160       79.368    27723.488    18539.424     6299.299        7.443        2.628      310.319       87.971        0.080      336.655        8.100      859.549
05/10/2014  15:12:00     -456.403     -165.261      -19.994      135.674      122.134       67.564    18407.549    14916.594     4564.955       13.694        1.894      485.402       61.895        0.016      336.423        7.710      859.656
05/10/2014  15:13:00     -322.579      -82.826      -10.755      170.725      104.850       60.582    29147.087    10993.584     3670.153        7.741        2.191      333.043       72.178        0.047      336.359        7.604      859.708
05/10/2014  15:14:00     -103.091      233.403      -35.956      101.521      116.513       53.548    10306.544    13575.306     2867.397        4.657        1.337      255.156       44.351        0.030      336.404        7.678      859.902
05/10/2014  15:15:00     -168.118      158.303       -8.631      117.988      165.979       62.640    13921.144    27549.121     3923.734        4.939        2.270      230.919       55.842        0.058      336.355        7.597      860.065
05/10/2014  15:16:00     -170.102      168.281      -20.107      164.613      209.244       85.786    27097.403    43783.051     7359.255        6.793        3.912      239.277       96.086        0.161      336.183        7.310      860.080
05/10/2014  15:17:00     -289.947      556.871      -92.118      198.819      205.695      104.159    39529.028    42310.344    10849.064       24.766        4.634      627.833      113.450        0.033      336.048        7.084      860.083
05/10/2014  15:18:00     -277.402      457.616      -84.273      156.171      166.433       83.296    24389.512    27700.019     6938.165       17.624        2.951      535.130       68.257        0.016      336.074        7.128      860.042
05/10/2014  15:19:00     -260.097      416.326      -47.274      146.039      246.780       91.929    21327.245    60900.497     8450.871       16.693        4.534      490.895       94.235        0.037      336.121        7.207      859.986
05/10/2014  15:20:00     -205.209      333.325      -38.826      182.470      231.656      103.797    33295.412    53664.590    10773.793       12.621        4.887      391.429      121.050        0.096      336.202        7.343      860.023
05/10/2014  15:21:00     -247.013      283.477      -50.168      171.148      219.087       83.435    29291.499    47999.130     6961.437       11.405        4.213      375.998       86.883        0.053      336.189        7.321      860.041
05/10/2014  15:22:00     -230.136      572.797      -60.399      163.995      206.273       96.348    26894.235    42548.366     9283.014       23.170        3.936      617.300       83.421        0.018      336.236        7.399      860.054
05/10/2014  15:23:00     -247.734      400.164      -62.323      150.857      150.153      103.442    22757.762    22545.993    10700.324       14.068        2.800      470.641       86.755        0.034      336.261        7.441      860.103
05/10/2014  15:24:00     -129.296      463.874      -45.428      172.543      212.620      101.955    29770.934    45207.071    10394.745       15.965        4.269      481.556      102.728        0.046      336.267        7.450      860.097
05/10/2014  15:25:00     -134.231      583.671      -58.406      159.009      267.294       95.075    25283.980    71446.283     9039.206       23.391        5.288      598.907      104.355        0.030      336.282        7.475      860.093
05/10/2014  15:26:00     -281.121      559.313      -61.518      224.063      253.739      121.023    50204.252    64383.406    14646.549       26.241        6.462      625.987      124.149        0.039      336.271        7.456      860.172
05/10/2014  15:27:00     -258.447      522.315      -76.508      203.550      226.201      117.615    41432.458    51166.899    13833.326       22.593        5.322      582.759      126.937        0.047      336.223        7.376      860.220
05/10/2014  15:28:00     -278.056      456.346      -69.457      208.492      193.380      108.217    43468.750    37395.830    11711.027       19.146        4.629      534.385      108.438        0.041      336.108        7.187      860.281
05/10/2014  15:29:00     -299.114      628.862      -95.657      182.817      242.611       86.042    33422.130    58860.285     7403.298       29.687        4.984      696.374       82.204        0.014      335.827        6.714      860.346
05/10/2014  15:30:00     -355.405      241.751      -48.989      250.864      159.014      111.273    62932.915    25285.424    12381.713       14.386        5.030      429.833      111.968        0.068      335.848        6.752      860.401
05/10/2014  15:31:00     -261.779      274.989      -48.553      157.284      168.138       89.860    24738.289    28270.370     8074.736       10.378        3.054      379.668       88.216        0.054      335.839        6.736      860.418
05/10/2014  15:32:00     -153.128      203.383       -4.243      160.849      155.541       93.303    25872.519    24192.967     8705.495        6.179        2.939      254.583      103.068        0.164      335.893        6.827      860.388
05/10/2014  15:33:00     -164.274      218.169      -27.680      110.850      151.457       67.262    12287.730    22939.112     4524.120        5.754        1.988      273.100       60.435        0.049      335.891        6.823      860.427
05/10/2014  15:34:00     -147.873      254.497      -13.226      169.836      249.802       86.284    28844.206    62400.873     7444.908        9.273        4.934      294.338       95.516        0.105      335.873        6.794      860.469
05/10/2014  15:35:00     -149.361      210.673       -6.796      118.687      128.565       74.992    14086.642    16528.972     5623.765        5.148        1.812      258.247       66.508        0.066      335.919        6.869      860.491
05/10/2014  15:36:00     -271.485      325.735      -75.469       97.041      161.156       71.071     9416.939    25971.379     5051.143       11.296        2.022      424.037       74.022        0.030      335.856        6.764      860.484
05/10/2014  15:37:00     -161.200      236.879      -37.059       90.545      103.553       65.079     8198.408    10723.220     4235.324        5.331        1.158      286.526       58.342        0.041      335.948        6.919      860.443
05/10/2014  15:38:00     -235.448      373.419      -59.646      127.398      137.834       76.501    16230.354    18998.299     5852.476       11.975        2.054      441.449       80.539        0.033      336.057        7.099      860.408
05/10/2014  15:39:00     -232.525      249.743      -53.402      124.668      133.768       70.046    15542.109    17893.835     4906.420        7.881        1.917      341.232       68.720        0.041      336.131        7.224      860.399
05/10/2014  15:40:00     -170.517      188.088      -43.122      124.977      161.429       73.055    15619.170    26059.397     5337.043        5.665        2.351      253.876       72.350        0.081      336.195        7.331      860.368
05/10/2014  15:41:00     -144.000      227.999      -47.023      101.464      130.082       59.747    10294.916    16921.399     3569.697        5.285        1.539      269.665       58.052        0.046      336.250        7.423      860.421
05/10/2014  15:42:00     -239.352      199.399      -51.948      138.412       74.034       68.248    19157.916     5481.063     4657.818        6.452        1.465      311.528       73.400        0.056      336.296        7.498      860.444
05/10/2014  15:43:00      -91.683      135.506        3.843       97.492      126.964       61.389     9504.751    16119.765     3768.569        2.808        1.470      163.608       52.896        0.105      336.319        7.537      860.425
05/10/2014  15:44:00     -189.432       78.926      -27.426      122.145      118.149       57.403    14919.453    13959.194     3295.135        3.751        1.609      205.216       48.679        0.056      336.229        7.387      860.405
05/10/2014  15:45:00     -142.669      229.989      -32.570      113.686      142.197       69.196    12924.492    20219.998     4788.144        5.611        1.897      270.646       54.649        0.041      336.271        7.458      860.477
05/10/2014  15:46:00     -184.452      157.231       -1.843      144.080      170.485       87.691    20759.063    29064.977     7689.700        5.812        2.876      242.372       80.146        0.109      336.210        7.355      860.529
05/10/2014  15:47:00     -114.969      471.686      -42.996      117.361      172.058       72.784    13773.718    29603.948     5297.454       14.310        2.434      485.495       70.998        0.021      336.075        7.131      860.566
05/10/2014  15:48:00     -250.587      293.127      -47.715      174.880      182.181       86.824    30582.889    33189.941     7538.363       11.114        3.566      385.638       88.024        0.052      336.048        7.084      860.593
05/10/2014  15:49:00     -199.133      199.967        6.128      172.048      195.958      103.283    29600.472    38399.471    10667.347        7.916        3.933      282.206      102.807        0.133      335.929        6.887      860.524
05/10/2014  15:50:00     -122.308       74.848      -10.235      109.736      150.603       52.309    12042.026    22681.132     2736.255        2.906        1.873      143.393       36.941        0.066      335.980        6.972      860.505
05/10/2014  15:51:00     -221.501       67.711      -19.533      107.750      135.225       57.709    11609.982    18285.708     3330.366        4.362        1.661      231.619       61.996        0.072      336.011        7.025      860.512
05/10/2014  15:52:00     -224.968      130.989      -45.609      132.129      136.834       66.333    17458.014    18723.477     4400.076        5.521        2.029      260.324       58.430        0.050      336.081        7.142      860.443
05/10/2014  15:53:00     -265.998      232.672      -67.405      150.152      139.134       76.088    22545.619    19358.150     5789.329        8.855        2.385      353.400       67.497        0.036      336.216        7.365      860.393
05/10/2014  15:54:00     -251.411      275.044      -39.149      214.855      243.155      109.575    46162.582    59124.500    12006.714       12.882        5.865      372.635      138.439        0.138      336.397        7.667      860.397
05/10/2014  15:55:00     -335.785      406.869      -71.057      174.741      264.292       97.863    30534.392    69850.321     9577.183       19.663        5.498      527.536      120.714        0.052      336.395        7.665      860.485
05/10/2014  15:56:00     -282.834      366.986      -41.374      183.537      215.298       91.141    33685.695    46353.094     8306.618       15.235        4.417      463.329       89.177        0.037      336.275        7.464      860.552
05/10/2014  15:57:00     -130.777      417.151      -50.387      114.860      149.337       75.742    13192.861    22301.474     5736.797       11.744        2.062      437.170       64.971        0.022      336.380        7.638      860.467
05/10/2014  15:58:00      -73.972      395.731      -52.072       78.799      172.040       57.762     6209.227    29597.609     3336.484       10.196        1.957      402.585       70.330        0.031      336.481        7.809      860.450
05/10/2014  15:59:00      -86.544      298.511      -21.548      114.528      206.113       82.366    13116.565    42482.647     6784.122        7.971        3.119      310.804      104.863        0.114      336.590        7.994      860.426
05/10/2014  16:00:00     -259.514      325.089      -57.099      168.596      149.862       91.381    28424.620    22458.612     8350.502       11.775        2.962      415.969       96.683        0.054      336.586        7.986      860.479
05/10/2014  16:01:00     -117.275      261.828      -23.814       97.368      193.916       68.392     9480.484    37603.235     4677.447        6.731        2.588      286.893       80.529        0.079      336.670        8.126      860.465
05/10/2014  16:02:00     -160.274      344.767      -38.385      158.226      280.277       91.230    25035.563    78555.396     8322.919       12.895        5.596      380.200      122.596        0.104      336.642        8.078      860.504
05/10/2014  16:03:00     -230.406      520.778      -80.548      165.869      228.700       91.896    27512.567    52303.593     8444.790       20.951        4.413      569.471       97.189        0.029      336.569        7.955      860.530
05/10/2014  16:04:00     -228.250      353.584      -69.446      170.670      141.007       88.220    29128.386    19882.872     7782.823       11.936        2.840      420.855       98.904        0.055      336.631        8.060      860.521
05/10/2014  16:05:00     -206.581      394.682      -59.692      120.242      120.614       78.747    14458.070    14547.770     6201.028       11.860        1.760      445.477       59.015        0.018      336.602        8.010      860.557
05/10/2014  16:06:00     -123.299      430.591      -47.518       79.737      120.337       53.708     6357.952    14480.956     2884.502       11.329        1.186      447.897       52.097        0.014      336.616        8.036      860.536
05/10/2014  16:07:00     -143.422      322.759      -41.132      104.560      183.297       67.921    10932.846    33597.811     4613.291        8.778        2.457      353.191       64.709        0.034      336.697        8.170      860.504
05/10/2014  16:08:00      -78.548      529.341      -58.968       87.722      134.836       63.515     7695.112    18180.763     4034.163       15.987        1.496      535.137       60.244        0.013      336.671        8.127      860.504
05/10/2014  16:09:00     -125.141      276.268      -35.080      126.300      174.477       72.351    15951.758    30442.094     5234.621        7.241        2.581      303.289       71.263        0.055      336.786        8.318      860.505
05/10/2014  16:10:00     -182.102      284.886      -36.843      119.574      135.293       67.435    14297.981    18304.312     4547.464        7.641        1.857      338.114       69.660        0.042      336.781        8.311      860.544
05/10/2014  16:11:00     -173.706      120.247      -37.908       99.922      119.917       46.142     9984.385    14379.982     2129.110        3.628        1.325      211.266       50.687        0.058      336.792        8.330      860.517
05/10/2014  16:12:00     -314.114      323.460      -49.068      217.766      179.055       99.634    47421.983    32060.805     9926.958       14.754        4.470      450.881      112.944        0.063      336.768        8.288      860.531
05/10/2014  16:13:00     -222.251      301.194      -36.618      176.358      168.840       92.302    31102.111    28506.793     8519.641       10.478        3.406      374.317       93.840        0.063      336.774        8.299      860.571
05/10/2014  16:14:00     -212.252      409.642      -48.672      143.893      184.931       83.569    20705.325    34199.300     6983.816       13.854        3.094      461.365       95.989        0.043      336.724        8.215      860.567
05/10/2014  16:15:00     -144.626      360.825      -30.417       95.883      158.009       79.222     9193.621    24966.864     6276.204        9.623        2.022      388.731       79.687        0.042      336.767        8.287      860.535
05/10/2014  16:16:00     -123.576      293.965      -20.108      134.030      163.506       81.172    17964.137    26734.196     6588.946        7.668        2.564      318.883       89.344        0.078      336.855        8.433      860.527
05/10/2014  16:17:00      -56.874      372.936      -16.826       95.373      217.749       87.298     9096.042    47414.461     7621.005       10.335        3.207      377.248      107.469        0.081      336.856        8.434      860.530
05/10/2014  16:18:00     -140.760      378.657      -61.008      115.401      145.907       69.915    13317.419    21288.851     4888.072       10.320        1.975      403.974       69.939        0.030      336.887        8.487      860.524
05/10/2014  16:19:00     -222.463      280.364      -39.200      119.451      191.277       93.074    14268.449    36586.753     8662.784        9.456        2.976      357.902       88.500        0.061      336.903        8.513      860.504
05/10/2014  16:20:00      -93.969      327.957      -24.268      107.666      160.621       73.596    11592.028    25798.965     5416.438        7.988        2.140      341.154       75.375        0.049      336.942        8.579      860.498
05/10/2014  16:21:00     -140.500      348.829      -46.476      112.601      147.078       66.046    12679.032    21631.890     4362.018        9.112        1.934      376.061       59.841        0.025      336.880        8.475      860.517
05/10/2014  16:22:00     -117.962      251.803      -25.061      102.544      130.934       65.835    10515.373    17143.626     4334.283        5.496        1.600      278.064       68.012        0.060      336.934        8.565      860.523
05/10/2014  16:23:00     -104.890      218.052      -16.998       75.976      138.700       59.768     5772.377    19237.556     3572.154        4.370        1.429      241.968       65.856        0.074      336.952        8.595      860.510
05/10/2014  16:24:00     -108.618      355.510      -54.377      110.110      158.495       62.519    12124.212    25120.611     3908.581        9.114        2.058      371.732       64.346        0.030      336.940        8.574      860.489
05/10/2014  16:25:00     -170.406      352.011      -54.939       78.656      152.464       58.168     6186.800    23245.260     3383.533        9.439        1.641      391.088       50.057        0.016      336.972        8.628      860.481
05/10/2014  16:26:00      -72.367      239.320      -19.863       77.177      106.626       52.008     5956.335    11369.167     2704.793        4.146        1.002      250.022       59.309        0.056      337.086        8.819      860.480
05/10/2014  16:27:00     -104.242      331.865      -33.897      106.549      187.042       77.181    11352.625    34984.879     5956.861        8.721        2.615      347.852       80.668        0.054      337.046        8.754      860.497
05/10/2014  16:28:00     -183.271      376.151      -41.034      126.322      152.369       89.803    15957.253    23216.359     8064.626       11.199        2.362      418.423       88.258        0.044      337.049        8.758      860.501
05/10/2014  16:29:00     -209.642      289.736      -45.411      122.208      165.846       70.904    14934.728    27504.844     5027.361        8.870        2.373      357.626       69.588        0.038      337.107        8.853      860.475
05/10/2014  16:30:00     -232.187      174.783      -43.547       94.997      157.335       60.314     9024.429    24754.418     3637.825        6.188        1.871      290.620       64.721        0.050      337.136        8.903      860.478
05/10/2014  16:31:00     -122.636       48.900       -5.168       94.981      108.517       54.886     9021.483    11775.884     3012.510        2.063        1.190      132.026       61.989        0.220      337.284        9.153      860.460
05/10/2014  16:32:00     -238.221      104.890      -50.604       94.130      109.944       52.026     8860.466    12087.749     2706.673        4.698        1.183      260.290       44.154        0.029      337.133        8.899      860.506
05/10/2014  16:33:00     -235.056      127.453      -35.801      103.278      104.248       58.072    10666.321    10867.619     3372.315        4.884        1.245      267.386       32.354        0.015      337.095        8.835      860.504
05/10/2014  16:34:00     -140.798      145.569      -47.273       99.589       82.958       65.517     9918.054     6882.084     4292.419        3.217        1.055      202.520       47.022        0.054      337.133        8.900      860.508
05/10/2014  16:35:00      -84.741       82.184       -6.447      138.404      105.947       77.350    19155.800    11224.799     5983.064        2.516        1.818      118.047       84.743        0.515      337.189        8.995      860.522
05/10/2014  16:36:00     -197.639      198.506      -34.367      119.952       91.785       69.278    14388.471     8424.537     4799.452        5.362        1.381      280.117       71.269        0.065      337.178        8.975      860.576
05/10/2014  16:37:00     -191.537      334.118      -67.288      146.430      188.401       79.700    21441.784    35494.925     6352.165       10.806        3.164      385.126       89.868        0.054      337.085        8.818      860.611
05/10/2014  16:38:00     -207.684      216.682      -39.994      129.122      167.638       77.163    16672.392    28102.437     5954.065        7.120        2.536      300.139       97.165        0.105      337.100        8.842      860.593
05/10/2014  16:39:00     -139.190      136.798      -14.099      110.524       81.216       65.515    12215.589     6596.068     4292.166        3.069        1.155      195.160       28.995        0.022      337.143        8.917      860.576
05/10/2014  16:40:00     -136.804      219.648      -25.886      129.025      148.587       72.082    16647.537    22078.009     5195.756        5.577        2.196      258.768       61.883        0.057      337.207        9.022      860.577
05/10/2014  16:41:00     -273.970      305.652      -75.943      117.030      135.568       67.467    13696.092    18378.703     4551.860       10.543        1.831      410.466       56.958        0.019      337.115        8.868      860.577
05/10/2014  16:42:00      -71.625      256.838      -20.075       88.573      126.082       72.791     7845.213    15896.589     5298.543        5.026        1.452      266.638       76.644        0.083      337.192        8.998      860.558
05/10/2014  16:43:00      -57.990      299.076      -38.344       77.640      159.902       56.655     6027.979    25568.764     3209.807        6.454        1.740      304.646       62.562        0.042      337.200        9.010      860.534
05/10/2014  16:44:00      -92.738      189.067      -18.684       69.345       90.323       52.453     4808.765     8158.247     2751.332        3.020        0.786      210.587       37.798        0.032      337.313        9.199      860.544
05/10/2014  16:45:00      -83.160      213.773      -14.316      100.193      102.939       58.876    10038.618    10596.393     3466.427        3.846        1.205      229.379       57.225        0.062      337.206        9.021      860.545
05/10/2014  16:46:00     -207.164      188.998      -27.837      182.519       90.601       46.975    33313.037     8208.520     2206.676        6.156        2.186      280.423       32.539        0.013      337.232        9.064      860.538
05/10/2014  16:47:00      -66.732      195.116       -5.384      112.310       88.081       47.776    12613.639     7758.237     2282.568        3.260        1.133      206.212       40.388        0.038      337.222        9.047      860.536
05/10/2014  16:48:00      -17.647      327.222      -44.420       68.445       95.730       43.084     4684.719     9164.200     1856.242        6.253        0.785      327.697       31.371        0.009      337.154        8.933      860.500
05/10/2014  16:49:00     -152.343      192.456      -44.145       89.077       78.101       48.650     7934.767     6099.769     2366.820        3.930        0.820      245.454       46.221        0.035      337.342        9.248      860.529
05/10/2014  16:50:00     -223.550      187.950      -47.111      113.543      148.592       61.712    12891.942    22079.445     3808.385        6.314        1.939      292.061       74.861        0.066      337.305        9.188      860.539
05/10/2014  16:51:00      -73.000      225.907      -23.532       77.566      129.861       53.364     6016.480    16863.930     2847.726        4.132        1.286      237.409       58.825        0.061      337.350        9.263      860.530
05/10/2014  16:52:00     -127.023      130.792      -22.661       78.295       92.548       50.202     6130.181     8565.153     2520.237        2.548        0.861      182.323       45.254        0.062      337.432        9.400      860.479
05/10/2014  16:53:00     -127.410      212.941      -31.720       91.143      105.733       49.901     8306.980    11179.472     2490.140        4.228        1.099      248.148       49.027        0.039      337.390        9.329      860.464
05/10/2014  16:54:00      -12.810      260.257      -27.842       87.392       89.938       59.354     7637.396     8088.870     3522.887        4.396        0.962      260.572       56.086        0.046      337.479        9.477      860.464
05/10/2014  16:55:00      -18.812      253.902      -20.957       53.730      109.256       48.021     2886.942    11936.964     2306.001        4.119        0.856      254.598       49.635        0.038      337.471        9.464      860.465
05/10/2014  16:56:00        4.293      231.474      -12.804       95.658      138.916       65.650     9150.452    19297.713     4309.866        4.325        1.638      231.514       76.151        0.108      337.492        9.501      860.420
05/10/2014  16:57:00     -133.319      244.241      -36.758      112.734      138.381       67.019    12708.993    19149.302     4491.522        5.756        1.817      278.258       64.990        0.055      337.555        9.606      860.417
05/10/2014  16:58:00     -264.200       62.350      -18.359      136.822      102.534       50.189    18720.195    10513.320     2518.899        5.288        1.588      271.457       43.780        0.026      337.493        9.502      860.408
05/10/2014  16:59:00     -140.260       75.882      -10.078      102.359       68.337       48.522    10477.280     4669.980     2354.421        2.151        0.875      159.471       48.532        0.093      337.535        9.573      860.428
05/10/2014  17:00:00     -137.017       58.881      -22.621       74.744       76.035       40.074     5586.702     5781.291     1605.945        1.786        0.649      149.133       30.527        0.042      337.488        9.495      860.419
05/10/2014  17:01:00     -151.633        6.692        1.530      135.508       96.183       54.370    18362.462     9251.128     2956.044        2.680        1.528      151.780       63.109        0.173      337.528        9.561      860.415
05/10/2014  17:02:00        3.885      128.411       -1.939       60.358      111.713       54.844     3643.106    12479.729     3007.821        1.782        0.957      128.470       62.631        0.238      337.541        9.583      860.463
05/10/2014  17:03:00       67.394      325.566      -32.667       86.039      184.752       79.920     7402.629    34133.299     6387.212        7.975        2.396      332.468       99.440        0.089      337.462        9.451      860.457
05/10/2014  17:04:00       99.466      330.093      -14.966      114.586      200.946      113.944    13129.896    40379.294    12983.306        9.277        3.325      344.754      120.602        0.122      337.414        9.369      860.344
05/10/2014  17:05:00      -68.616      232.933      -28.518      100.825      212.128       76.675    10165.770    44998.318     5879.118        6.040        3.052      242.828       82.196        0.115      337.607        9.691      860.391
05/10/2014  17:06:00     -133.215      133.672      -31.065       81.230      129.563       53.637     6598.337    16786.584     2876.930        3.142        1.313      188.718       35.582        0.036      337.690        9.833      860.445
05/10/2014  17:07:00     -241.080      204.538      -48.538      142.315      149.381       72.988    20253.528    22314.566     5327.212        7.509        2.395      316.158       93.511        0.087      337.490        9.496      860.457
05/10/2014  17:08:00     -288.272       56.122      -25.780      101.012      108.235       55.059    10203.420    11714.709     3031.496        5.593        1.247      293.684       49.998        0.029      337.448        9.423      860.450
05/10/2014  17:09:00     -215.558       94.653      -28.491      128.709       73.172       47.254    16565.946     5354.114     2232.964        4.019        1.208      235.425       43.373        0.034      337.540        9.580      860.441
05/10/2014  17:10:00     -158.146      197.310      -36.856       89.111      110.529       54.173     7940.699    12216.593     2934.700        4.419        1.155      252.866       64.363        0.065      337.584        9.654      860.444
05/10/2014  17:11:00     -130.772      168.351      -15.783       87.813      104.187       51.688     7711.106    10854.874     2671.692        3.346        1.062      213.175       53.575        0.063      337.661        9.784      860.427
05/10/2014  17:12:00     -113.720      161.202      -23.821       71.281       71.660       41.283     5081.030     5135.173     1704.285        2.570        0.596      197.277       36.186        0.034      337.635        9.740      860.390
05/10/2014  17:13:00     -126.202      192.870      -23.331       92.417       80.138       50.936     8540.958     6422.161     2594.444        3.561        0.878      230.490       57.802        0.063      337.603        9.686      860.374
05/10/2014  17:14:00     -135.947      181.997      -36.176       69.168      116.737       42.804     4784.177    13627.515     1832.169        3.657        1.012      227.167       48.082        0.045      337.638        9.745      860.322
05/10/2014  17:15:00     -111.925      201.182      -18.741      138.118      128.292       75.108    19076.482    16458.853     5641.247        4.726        2.059      230.220       65.671        0.081      337.828       10.063      860.286
05/10/2014  17:16:00     -146.496       78.047      -24.445       57.513      109.144       44.608     3307.772    11912.476     1989.878        2.268        0.861      165.989       39.179        0.056      337.896       10.179      860.300
05/10/2014  17:17:00     -152.786       90.606       -6.786      178.989      169.999       75.460    32037.183    28899.612     5694.223        4.910        3.332      177.632       84.928        0.229      337.903       10.188      860.300
05/10/2014  17:18:00     -260.598      260.470      -59.497      140.870      139.453       79.760    19844.264    19447.074     6361.582        9.247        2.283      368.451       85.160        0.053      337.805       10.026      860.308
05/10/2014  17:19:00     -187.072      312.826      -53.807      131.683      125.436       70.089    17340.517    15734.102     4912.496        8.686        1.899      364.495       66.426        0.033      337.813       10.037      860.311
05/10/2014  17:20:00     -263.575      253.352      -61.287      123.018      165.794       71.855    15133.478    27487.556     5163.081        9.259        2.389      365.594       65.277        0.032      337.909       10.198      860.317
05/10/2014  17:21:00     -306.508      298.911      -51.074      136.881      174.498       88.150    18736.522    30449.651     7770.397       12.142        2.848      428.129       97.606        0.052      337.774        9.972      860.327
05/10/2014  17:22:00     -264.566      233.208      -38.180      157.027      153.352       69.709    24657.374    23516.713     4859.385        8.943        2.652      352.677       60.708        0.030      337.863       10.121      860.298
05/10/2014  17:23:00     -179.735      240.277      -34.441      123.154      137.415       71.579    15166.966    18882.967     5123.592        6.519        1.959      300.063       69.988        0.054      337.838       10.080      860.289
05/10/2014  17:24:00     -273.468      321.115      -61.110      173.734      213.229       95.912    30183.622    45466.486     9199.042       13.322        4.242      421.781      115.228        0.075      337.799       10.013      860.303
05/10/2014  17:25:00     -118.002      267.660      -24.090       89.594      125.735       65.776     8027.044    15809.318     4326.496        5.715        1.408      292.517       62.787        0.046      337.869       10.132      860.305
05/10/2014  17:26:00     -168.300      357.718      -55.871      105.549      201.754       71.877    11140.610    40704.863     5166.284       10.820        2.851      395.331       82.270        0.043      337.879       10.149      860.314
05/10/2014  17:27:00     -204.387      361.636      -61.409      107.830      142.452       77.708    11627.229    20292.696     6038.526       10.713        1.898      415.397       68.326        0.027      337.791       10.000      860.318
05/10/2014  17:28:00     -104.692      266.071      -36.071      121.295      168.471       62.759    14712.466    28382.576     3938.736        6.504        2.352      285.927       73.073        0.065      337.825       10.059      860.319
05/10/2014  17:29:00      -27.695      409.546      -45.537       77.487      109.870       50.948     6004.255    12071.499     2595.661        9.562        1.034      410.481       52.226        0.016      337.716        9.875      860.317
05/10/2014  17:30:00       57.341      164.845      -11.167      105.653      143.458       59.164    11162.533    20580.104     3500.424        3.291        1.762      174.533       55.126        0.100      337.797       10.012      860.308
05/10/2014  17:31:00       71.707      321.868      -36.447      109.134      148.151       79.479    11910.242    21948.598     6316.906        7.511        2.009      329.758       92.343        0.078      337.740        9.916      860.327
05/10/2014  17:32:00       94.876      392.460      -46.428      106.750      232.988      107.372    11395.534    54283.451    11528.776       12.118        3.860      403.765      133.992        0.110      337.692        9.834      860.293
05/10/2014  17:33:00      -49.865      503.942      -71.952      121.546      188.072       67.660    14773.484    35371.066     4577.859       15.816        2.736      506.403       85.647        0.029      337.781        9.985      860.361
05/10/2014  17:34:00     -154.995      471.723      -52.199      109.613      157.812       71.673    12015.088    24904.514     5137.034       14.566        2.103      496.534       74.424        0.022      337.838       10.078      860.376
05/10/2014  17:35:00       -2.624      432.553      -49.426      127.209      190.140       69.323    16182.084    36153.169     4805.668       12.333        2.857      432.561       89.036        0.042      337.765        9.957      860.405
05/10/2014  17:36:00        3.604      299.207      -26.974      117.577      198.325       66.971    13824.240    39332.728     4485.081        7.394        2.882      299.228       92.117        0.095      337.722        9.887      860.389
05/10/2014  17:37:00       80.999      206.337      -21.178      135.672      159.626       86.161    18407.000    25480.525     7423.739        5.044        2.566      221.666       85.783        0.150      337.714        9.872      860.362
05/10/2014  17:38:00       88.859      349.935      -44.135      127.799      197.166      102.338    16332.584    38874.287    10473.141        9.898        3.284      361.041      111.189        0.095      337.659        9.779      860.379
05/10/2014  17:39:00       48.516      453.434      -64.528       96.908      164.212       87.164     9391.137    26965.735     7597.643       12.803        2.198      456.023       91.316        0.040      337.670        9.799      860.386
05/10/2014  17:40:00       24.248      428.740      -41.685      135.853      159.230       89.535    18456.167    25354.134     8016.506       11.897        2.591      429.425       97.749        0.052      337.659        9.779      860.383
05/10/2014  17:41:00      -74.237      363.496      -50.969      104.647      123.072       55.221    10950.896    15146.719     3049.306        8.469        1.457      370.999       56.627        0.023      337.693        9.835      860.362
05/10/2014  17:42:00      -74.121      350.787      -46.078       73.000      103.607       46.069     5329.012    10734.384     2122.358        7.442        0.909      358.533       53.762        0.022      337.723        9.886      860.342
05/10/2014  17:43:00      -84.177      205.610      -31.308       66.370       77.395       40.410     4404.954     5989.955     1632.965        3.118        0.601      222.174       41.047        0.034      337.907       10.195      860.350
05/10/2014  17:44:00       30.538      424.496      -50.646       97.560      172.716       67.975     9517.957    29830.923     4620.667       11.382        2.198      425.593       71.189        0.028      337.771        9.968      860.355
05/10/2014  17:45:00     -246.179      412.462      -72.587      136.329      180.539       76.447    18585.669    32594.279     5844.075       14.650        2.851      480.343       77.658        0.026      337.935       10.241      860.329
05/10/2014  17:46:00      -75.429      258.012      -33.388      165.767      126.833       78.350    27478.653    16086.551     6138.777        6.153        2.485      268.812       89.373        0.111      338.114       10.541      860.317
05/10/2014  17:47:00       58.373      376.600      -39.085      183.261      234.847       97.418    33584.631    55153.206     9490.301       12.248        4.911      381.097      122.802        0.104      337.876       10.143      860.268
05/10/2014  17:48:00       52.846      375.567      -32.344      179.888      252.710       97.299    32359.694    63862.457     9467.122       12.527        5.284      379.267      130.160        0.118      337.975       10.310      860.218
05/10/2014  17:49:00      -28.605      118.562       -7.952       76.606       91.620       69.269     5868.507     8394.206     4798.170        1.700        0.953      121.964       60.601        0.247      338.313       10.878      860.263
05/10/2014  17:50:00       48.624      134.809       -4.081      114.363      143.957       71.673    13078.829    20723.688     5136.997        2.974        1.947      143.310       65.079        0.206      338.318       10.885      860.258
05/10/2014  17:51:00     -135.074      271.018      -47.637      129.483      100.512       59.586    16765.821    10102.693     3550.435        6.219        1.521      302.813       57.229        0.036      338.451       11.110      860.302
05/10/2014  17:52:00      -56.114      294.427      -31.078      115.833      113.671       75.929    13417.205    12921.017     5765.229        6.145        1.605      299.727       59.281        0.039      338.367       10.967      860.287
05/10/2014  17:53:00     -136.791      130.198       -8.949      110.907      165.394       66.903    12300.252    27355.297     4476.030        3.993        2.207      188.848       60.550        0.103      338.482       11.162      860.257
05/10/2014  17:54:00     -225.576      268.354      -31.174      137.237      150.670       92.820    18833.941    22701.581     8615.595        8.700        2.508      350.568       79.025        0.051      338.343       10.927      860.276
05/10/2014  17:55:00     -198.815      418.769      -54.866      174.801      187.336       93.459    30555.440    35094.718     8734.617       14.613        3.719      463.568       95.626        0.043      338.255       10.780      860.298
05/10/2014  17:56:00      -74.558      291.974      -15.416       95.253      191.813       80.830     9073.203    36792.123     6533.463        7.171        2.620      301.343       99.711        0.109      338.268       10.802      860.278
05/10/2014  17:57:00     -126.821      456.225      -59.257      130.763      182.249       74.808    17099.023    33214.625     5596.277       14.181        2.795      473.524       79.609        0.028      338.040       10.418      860.275
05/10/2014  17:58:00     -200.421      260.594      -40.256       93.556      202.861       66.063     8752.813    41152.562     4364.320        8.197        2.713      328.752       55.823        0.029      338.250       10.771      860.245
05/10/2014  17:59:00      -91.117      353.585      -70.501      163.957      146.921       71.448    26882.041    21585.870     5104.770        9.592        2.679      365.136       64.352        0.031      338.253       10.775      860.232
05/10/2014  18:00:00     -133.266      260.376      -36.839      133.751      151.340       68.446    17889.439    22903.918     4684.902        6.619        2.274      292.499       72.652        0.062      338.390       11.007      860.239
05/10/2014  18:01:00     -201.123      216.738      -44.448      153.391      141.605       86.659    23528.715    20051.945     7509.817        7.024        2.555      295.678       99.004        0.112      338.385       10.999      860.266
05/10/2014  18:02:00     -286.664      280.098      -54.589      144.008      154.852       79.524    20738.270    23979.242     6324.016       10.732        2.552      400.788       84.762        0.045      338.244       10.760      860.246
05/10/2014  18:03:00     -218.333      338.844      -60.701      110.298      148.266       73.669    12165.649    21982.866     5427.160       10.286        1.979      403.094       66.377        0.027      338.234       10.743      860.264
05/10/2014  18:04:00     -238.317      224.887      -52.257      106.311      186.503       69.137    11301.984    34783.410     4779.948        8.047        2.543      327.672       80.250        0.060      338.390       11.007      860.238
05/10/2014  18:05:00     -137.994      142.814       -0.163      121.000      203.988       76.310    14640.922    41610.957     5823.210        5.074        3.104      198.591       74.267        0.140      338.509       11.209      860.195
05/10/2014  18:06:00     -296.090      178.502      -57.406       94.015      118.471       70.806     8838.900    14035.320     5013.524        7.535        1.394      345.735       66.091        0.037      338.211       10.705      860.253
05/10/2014  18:07:00     -237.819      173.026      -30.921      156.994      116.161       79.135    24647.173    13493.262     6262.346        6.592        2.220      294.101       85.022        0.084      338.196       10.679      860.273
05/10/2014  18:08:00     -153.408      268.777      -32.743      116.165      118.702       74.719    13494.224    14090.133     5582.939        6.500        1.658      309.476       70.496        0.052      338.208       10.701      860.270
05/10/2014  18:09:00     -102.226      288.504      -43.283       88.915      125.098       57.084     7905.942    15649.570     3258.552        6.118        1.341      306.079       52.244        0.029      338.201       10.688      860.247
05/10/2014  18:10:00     -174.002      173.142      -43.798      118.090      119.082       72.066    13945.272    14180.465     5193.478        4.774        1.666      245.468       65.156        0.070      338.270       10.803      860.240
05/10/2014  18:11:00     -130.742      126.358      -18.385      115.743      175.495       74.990    13396.514    30798.653     5623.425        4.160        2.491      181.824       57.448        0.100      338.387       11.000      860.206
05/10/2014  18:12:00     -243.255      353.196      -66.833      176.254      132.586       66.419    31065.309    17578.926     4411.529       12.071        2.653      428.859       51.720        0.015      338.366       10.965      860.325
05/10/2014  18:13:00     -261.189      442.179      -63.918      171.859      193.422       91.865    29535.679    37412.218     8439.160       17.159        3.769      513.558      102.742        0.040      338.225       10.729      860.285
05/10/2014  18:14:00     -168.397      484.872      -81.756      179.542      173.432       70.196    32235.446    30078.736     4927.525       16.868        3.362      513.282       73.107        0.020      338.135       10.578      860.271
05/10/2014  18:15:00      -96.391      444.147      -85.286      134.023      160.573       62.930    17962.274    25783.692     3960.245       13.076        2.385      454.487       56.081        0.015      338.139       10.585      860.206
05/10/2014  18:16:00     -104.942      235.225      -39.548      158.142      133.928       76.674    25008.784    17936.678     5878.937        5.836        2.441      257.573       81.932        0.101      338.348       10.935      860.190
05/10/2014  18:17:00     -116.576      443.906      -53.665      126.374      184.218       82.635    15970.421    33936.208     6828.513       13.512        2.837      458.958       93.692        0.042      338.348       10.934      860.186
05/10/2014  18:18:00     -134.786      371.036      -23.573      151.524      226.026       95.918    22959.607    51087.778     9200.253       11.980        4.162      394.759      116.360        0.087      338.451       11.110      860.302
05/10/2014  18:19:00      -63.208      373.494      -50.079      104.654      178.787       78.626    10952.549    31964.650     6182.011        9.754        2.455      378.805       89.505        0.056      338.430       11.072      860.248
05/10/2014  18:20:00     -109.824      200.604      -18.589      132.538      113.935       71.421    17566.272    12981.166     5100.921        4.414        1.782      228.699       49.522        0.047      338.513       11.213      860.233
05/10/2014  18:21:00      -91.410      433.201      -51.339      138.160      152.480       76.916    19088.208    23250.009     5916.066       12.344        2.413      442.740       72.324        0.027      338.280       10.820      860.254
05/10/2014  18:22:00     -119.705      742.559      -93.777      102.430      166.549       70.962    10491.883    27738.509     5035.603       30.888        2.163      752.145       76.774        0.010      338.061       10.454      860.295
05/10/2014  18:23:00      -60.043      609.538      -91.948      129.798      131.844       65.856    16847.443    17382.827     4336.974       21.107        1.928      612.488       52.792        0.007      338.170       10.636      860.405
05/10/2014  18:24:00        4.224      489.655      -60.671      155.461      226.647      101.549    24168.054    51368.887    10312.265       16.464        4.292      489.674      120.869        0.061      338.124       10.560      860.407
05/10/2014  18:25:00      -35.368      539.854      -74.342      126.510      196.304       85.874    16004.875    38535.317     7374.372       18.006        3.096      541.012       87.427        0.026      338.032       10.403      860.395
05/10/2014  18:26:00      132.660      364.244      -20.889      207.608      249.196      131.472    43101.223    62098.540    17284.798       13.657        6.124      387.650      134.324        0.120      338.031       10.402      860.325
05/10/2014  18:27:00      -82.022      400.572      -29.942      140.710      201.967       89.457    19799.302    40790.471     8002.591       11.832        3.430      408.884      105.740        0.067      338.135       10.578      860.350
05/10/2014  18:28:00      -42.207      423.831      -40.077      204.796      223.916       88.576    41941.547    50138.447     7845.636       14.145        4.996      425.928      114.347        0.072      338.033       10.406      860.439
05/10/2014  18:29:00       73.599      390.196      -45.992      169.584      299.789      112.386    28758.786    89873.266    12630.658       14.550        6.563      397.076      149.360        0.141      337.772        9.970      860.404
05/10/2014  18:30:00      141.179      304.288        9.788      138.937      199.950      128.806    19303.506    39980.004    16591.012        9.423        3.794      335.444      117.887        0.124      337.630        9.732      860.406
05/10/2014  18:31:00       55.929      475.149      -67.279      109.221      179.199       79.936    11929.201    32112.296     6389.686       14.192        2.522      478.430       79.767        0.028      337.560        9.613      860.440
05/10/2014  18:32:00       50.082      352.209      -40.179      115.090      212.293       78.102    13245.680    45068.166     6099.964        9.628        3.221      355.752      104.850        0.087      337.578        9.644      860.442
05/10/2014  18:33:00       84.364      400.025      -42.855      121.015      199.356      117.014    14644.612    39742.778    13692.282       11.851        3.404      408.825      122.667        0.090      337.494        9.503      860.457
05/10/2014  18:34:00       41.770      368.085      -30.746      130.163      210.504      102.153    16942.419    44312.069    10435.285       10.492        3.584      370.447      108.984        0.087      337.465        9.453      860.504
05/10/2014  18:35:00       83.855      540.314      -75.598      135.844      186.841       96.866    18453.529    34909.517     9383.031       18.370        3.137      546.783      105.529        0.037      337.363        9.284      860.535
05/10/2014  18:36:00       76.485      359.944      -15.211      110.376      210.164      107.270    12182.963    44168.997    11506.789       10.174        3.393      367.980      126.693        0.119      337.416        9.373      860.532
05/10/2014  18:37:00       73.464      226.416       -5.319      104.607      162.139       91.122    10942.528    26289.170     8303.265        5.110        2.277      238.036       94.145        0.156      337.416        9.371      860.563
05/10/2014  18:38:00       83.214      257.211      -16.841      107.404      159.781       71.536    11535.707    25530.124     5117.462        5.777        2.109      270.337       82.774        0.094      337.430        9.397      860.554
05/10/2014  18:39:00      200.679      217.251       19.731      164.835      112.646       96.148    27170.498    12689.083     9244.474        6.847        2.455      295.754       69.855        0.056      337.370        9.294      860.521
05/10/2014  18:40:00      125.743      190.334       12.820      166.548      113.003       82.130    27738.402    12769.692     6745.341        4.972        2.363      228.119       77.896        0.117      337.388        9.324      860.559
05/10/2014  18:41:00      106.035      270.230      -16.437      120.028      174.286       85.862    14406.603    30375.674     7372.287        6.834        2.608      290.289       93.929        0.105      337.386        9.324      860.572
05/10/2014  18:42:00       74.452      160.622        3.108       90.253      133.517       72.604     8145.594    17826.717     5271.307        3.129        1.562      177.038       72.050        0.166      337.471        9.466      860.581
05/10/2014  18:43:00       93.019       81.495       15.629       73.224      100.960       74.620     5361.756    10192.838     5568.134        1.833        1.056      123.668       40.030        0.105      337.567        9.627      860.560
05/10/2014  18:44:00       20.502      239.945      -43.859       61.929       93.819       41.930     3835.247     8801.991     1758.121        3.715        0.720      240.819       47.212        0.038      337.530        9.562      860.575
05/10/2014  18:45:00        5.120      189.193      -37.769       66.179       65.354       35.986     4379.706     4271.182     1295.009        2.359        0.497      189.263       29.885        0.025      337.612        9.701      860.567
05/10/2014  18:46:00      -73.040      114.019      -21.852       91.508       63.749       36.371     8373.766     4063.991     1322.832        1.628        0.688      135.407       32.458        0.057      337.824       10.058      860.576
05/10/2014  18:47:00      -23.807      244.392      -35.990       73.191      114.221       43.204     5356.918    13046.479     1866.573        4.093        1.013      245.549       45.721        0.035      337.683        9.819      860.602
05/10/2014  18:48:00      -62.405      199.724      -19.621       58.706      105.929       45.684     3446.426    11221.057     2087.048        3.046        0.838      209.247       41.447        0.039      337.781        9.985      860.628
05/10/2014  18:49:00      -35.221      237.255      -24.706       56.116       81.274       42.574     3148.990     6605.543     1812.527        3.485        0.578      239.855       44.985        0.035      337.675        9.805      860.637
05/10/2014  18:50:00      -32.019      143.178      -18.323      111.022       69.922       49.156    12325.875     4889.111     2416.344        2.074        0.982      146.715       49.193        0.112      337.781        9.987      860.624
05/10/2014  18:51:00     -194.053      189.051      -16.055      169.265      155.052       67.777    28650.626    24041.154     4593.695        6.546        2.864      270.918       52.538        0.038      337.932       10.239      860.663
05/10/2014  18:52:00     -144.907      234.196      -34.060      114.689      154.588       76.041    13153.541    23897.453     5782.278        5.991        2.142      275.401       89.122        0.105      337.808       10.029      860.665
05/10/2014  18:53:00     -154.483      272.307      -25.762      112.405      121.683       71.870    12634.840    14806.825     5165.269        6.564        1.630      313.075       78.639        0.063      337.799       10.013      860.680
05/10/2014  18:54:00     -109.634      217.723      -30.079      103.238      160.016       55.183    10658.086    25605.204     3045.159        4.981        1.965      243.768       59.877        0.060      337.922       10.220      860.682
05/10/2014  18:55:00     -138.264      251.317      -35.799      139.930      172.938       72.970    19580.300    29907.639     5324.674        6.917        2.741      286.840       61.138        0.045      337.840       10.082      860.690
05/10/2014  18:56:00     -174.785      354.194      -61.050       94.164      155.805       49.084     8866.840    24275.207     2409.258        9.763        1.778      394.973       44.133        0.012      337.836       10.075      860.683
05/10/2014  18:57:00     -271.348      162.476      -42.416      157.375      142.434       71.733    24766.986    20287.563     5145.591        7.600        2.510      316.272       85.646        0.073      337.886       10.158      860.705
05/10/2014  18:58:00     -126.798      116.995      -17.539       89.129       82.176       58.719     7943.992     6752.933     3447.897        2.411        0.907      172.527       44.668        0.067      337.948       10.265      860.703
05/10/2014  18:59:00     -234.893      244.963      -56.657      149.135      194.558       76.004    22241.167    37852.856     5776.566        9.212        3.294      339.384       53.072        0.024      337.766        9.957      860.727
05/10/2014  19:00:00     -291.330      254.094      -55.953      139.566      133.893       80.419    19478.595    17927.240     6467.198        9.821        2.194      386.571       79.925        0.043      337.741        9.918      860.745
05/10/2014  19:01:00     -184.098      282.558      -40.799       90.542      128.551       71.558     8197.861    16525.471     5120.580        7.261        1.492      337.240       63.425        0.035      337.754        9.938      860.760
05/10/2014  19:02:00     -142.602      264.926      -39.138      103.555      116.909       53.981    10723.664    13667.733     2913.902        5.967        1.365      300.867       54.885        0.033      337.756        9.943      860.778
05/10/2014  19:03:00     -183.727      354.416      -53.176      102.523      147.694       64.388    10511.059    21813.617     4145.763        9.932        1.824      399.207       63.476        0.025      337.758        9.946      860.797
05/10/2014  19:04:00     -108.986      265.245      -29.140       89.232      163.139       61.359     7962.433    26614.398     3764.948        6.070        1.917      286.763       62.123        0.047      337.821       10.052      860.794
05/10/2014  19:05:00     -102.215      169.247        1.088      100.856      134.222       72.045    10171.885    18015.582     5190.544        3.623        1.669      197.718       56.422        0.081      337.897       10.180      860.784
05/10/2014  19:06:00     -175.641      265.751      -17.152      133.159      194.460       89.541    17731.373    37814.858     8017.512        8.265        3.178      318.549       79.262        0.062      337.845       10.091      860.777
05/10/2014  19:07:00     -235.227      275.404      -59.684      135.144      184.528       84.921    18263.966    34050.538     7211.643        9.712        2.976      362.187       89.637        0.061      337.786        9.991      860.794
05/10/2014  19:08:00     -110.507      259.201      -27.601      105.251      122.000       60.085    11077.791    14883.970     3610.176        5.486        1.479      281.775       50.502        0.032      337.802       10.017      860.831
05/10/2014  19:09:00     -110.219      485.989      -68.920       88.128      145.261       58.261     7766.512    21100.681     3394.303       14.267        1.613      498.330       56.673        0.013      337.608        9.694      860.855
05/10/2014  19:10:00     -154.369      446.609      -64.397      127.392      166.271       64.322    16228.842    27646.066     4137.295       13.771        2.401      472.535       75.547        0.026      337.635        9.738      860.875
05/10/2014  19:11:00     -193.580      220.747      -16.517      142.661      141.715       83.919    20352.165    20083.244     7042.363        6.697        2.374      293.603       83.771        0.081      337.872       10.137      860.885
05/10/2014  19:12:00     -140.821      165.529      -26.452      134.748      115.564       63.821    18156.933    13355.122     4073.114        4.175        1.779      217.326       64.036        0.087      337.796       10.009      860.883
05/10/2014  19:13:00      -87.617      305.305      -37.964      105.377      146.455       78.679    11104.383    21449.021     6190.345        7.053        1.937      317.629       76.543        0.058      337.717        9.876      860.884
05/10/2014  19:14:00      -69.329      383.287      -43.355       92.968      151.888       60.260     8643.074    23069.901     3631.328        9.446        1.767      389.507       67.625        0.030      337.654        9.771      860.886
05/10/2014  19:15:00     -133.763      350.377      -38.861       99.457      183.255       77.427     9891.717    33582.318     5994.979        9.581        2.473      375.042       78.896        0.044      337.700        9.848      860.887
05/10/2014  19:16:00     -221.736      276.895      -65.468      122.726      126.055       67.523    15061.608    15889.962     4559.382        8.281        1.776      354.736       80.935        0.052      337.697        9.843      860.894
05/10/2014  19:17:00     -201.061      236.530      -50.972      129.770      141.823       67.692    16840.328    20113.658     4582.263        7.024        2.077      310.438       85.001        0.075      337.687        9.826      860.902
05/10/2014  19:18:00     -128.244      294.452      -37.884      135.580      134.018       72.327    18381.841    17960.769     5231.253        7.307        2.079      321.167       75.645        0.055      337.653        9.769      860.912
05/10/2014  19:19:00     -131.317      226.890      -45.003       91.944      101.465       55.756     8453.744    10295.111     3108.757        4.630        1.093      262.151       45.207        0.030      337.688        9.827      860.918
05/10/2014  19:20:00     -134.362      279.928      -42.409       92.005       96.662       58.136     8464.916     9343.572     3379.847        5.970        1.059      310.504       57.815        0.035      337.664        9.788      860.954
05/10/2014  19:21:00     -126.649      248.979      -39.371       88.371      145.196       59.522     7809.433    21081.821     3542.862        5.600        1.622      279.340       67.895        0.059      337.718        9.878      860.959
05/10/2014  19:22:00     -163.974      246.578      -35.836       99.905      133.944       60.022     9980.954    17941.119     3602.669        6.024        1.576      296.122       57.842        0.038      337.663        9.786      861.001
05/10/2014  19:23:00     -128.594      329.648      -42.736       63.007      135.129       62.086     3969.826    18259.747     3854.652        7.655        1.304      353.843       62.362        0.031      337.611        9.697      861.020
05/10/2014  19:24:00     -157.101      315.102      -49.307       84.309      125.949       62.044     7108.016    15863.229     3849.501        7.661        1.341      352.094       49.865        0.020      337.641        9.749      861.062
05/10/2014  19:25:00      -67.998      412.659      -47.884       99.994      210.329       73.559     9998.818    44238.304     5410.872       11.841        2.982      418.224       97.937        0.055      337.636        9.740      861.072
05/10/2014  19:26:00     -114.686      282.866      -37.274       74.709      113.981       52.971     5581.403    12991.630     2805.907        5.796        1.069      305.232       50.921        0.028      337.678        9.811      861.107
05/10/2014  19:27:00      -31.313      411.689      -44.289      131.751      162.346       66.761    17358.422    26356.087     4456.990       11.029        2.409      412.878       71.077        0.030      337.598        9.675      861.134
05/10/2014  19:28:00      -87.326      411.844      -56.902      123.814      175.730       62.864    15329.886    30881.184     3951.821       11.531        2.508      421.000       65.688        0.024      337.618        9.711      861.170
05/10/2014  19:29:00      -54.076      473.843      -65.787      135.047      165.530       87.263    18237.805    27400.049     7614.850       14.251        2.663      476.919       86.270        0.033      337.499        9.510      861.227
05/10/2014  19:30:00      -91.268      353.465      -30.017      140.782      128.795       92.744    19819.635    16588.121     8601.417        8.958        2.250      365.058       82.176        0.051      337.439        9.410      861.252
05/10/2014  19:31:00     -110.975      448.413      -52.822      135.240      160.391       79.364    18289.853    25725.386     6298.657       13.324        2.516      461.941       85.911        0.035      337.342        9.249      861.253
05/10/2014  19:32:00     -136.780      483.868      -71.851      117.488      118.093       65.147    13803.396    13945.910     4244.089       14.499        1.600      502.829       55.483        0.012      337.309        9.194      861.255
05/10/2014  19:33:00      -43.225      444.844      -64.833       99.455      127.322       46.470     9891.222    16210.971     2159.463       11.610        1.413      446.939       43.882        0.010      337.289        9.159      861.272
05/10/2014  19:34:00      -54.237      328.533      -53.461       93.326      118.822       60.883     8709.662    14118.675     3706.694        7.013        1.327      332.980       54.732        0.027      337.321        9.213      861.269
05/10/2014  19:35:00      -67.081      335.042      -54.946      106.928      126.772       58.078    11433.523    16071.227     3373.015        7.532        1.544      341.692       59.314        0.030      337.299        9.176      861.288
05/10/2014  19:36:00     -103.420      376.273      -46.817      114.248      143.142       66.143    13052.639    20489.726     4374.944        9.619        1.896      390.227       72.037        0.034      337.300        9.177      861.342
05/10/2014  19:37:00     -103.486      406.577      -63.704       93.498      105.533       50.532     8741.854    11137.307     2553.436       10.125        1.122      419.540       41.492        0.010      337.247        9.089      861.369
05/10/2014  19:38:00      -82.527      399.045      -47.661      127.334      169.184       80.624    16213.924    28623.095     6500.290       10.982        2.567      407.490       79.615        0.038      337.257        9.107      861.407
05/10/2014  19:39:00     -239.273      513.743      -60.151      124.116      212.231       99.308    15404.847    45041.879     9862.100       19.754        3.515      566.731      108.082        0.036      337.173        8.966      861.452
05/10/2014  19:40:00     -121.531      444.999      -66.403      128.008      152.375       64.257    16386.120    23218.070     4128.933       13.046        2.187      461.296       59.094        0.016      337.179        8.975      861.498
05/10/2014  19:41:00     -162.076      609.336      -71.933      247.206      274.316      117.213    61110.729    75249.083    13738.796       27.639        7.505      630.523       99.376        0.025      336.864        8.449      861.566
05/10/2014  19:42:00     -233.137      427.549      -60.074      140.485      183.123       92.770    19735.990    33533.957     8606.215       15.131        3.094      486.981       82.386        0.029      336.673        8.129      861.642
05/10/2014  19:43:00     -256.464      413.882      -40.287      179.595      197.366      104.047    32254.383    38953.167    10825.847       16.035        4.102      486.900      102.136        0.044      336.343        7.576      861.676
05/10/2014  19:44:00     -312.310      449.037      -82.828      174.295      220.531      109.179    30378.624    48633.952    11920.002       19.846        4.547      546.966      134.291        0.060      336.220        7.373      861.712
05/10/2014  19:45:00     -263.784      403.184      -55.986      179.515      184.354       87.671    32225.647    33986.265     7686.179       15.457        3.695      481.809       99.173        0.042      336.242        7.409      861.694
05/10/2014  19:46:00     -255.714      281.269      -57.031      164.581      123.512       81.136    27086.904    15255.203     6582.996        9.833        2.446      380.133       65.689        0.030      336.295        7.497      861.673
05/10/2014  19:47:00     -323.277      409.059      -72.708      171.103      201.120      105.955    29276.375    40449.328    11226.543       17.902        4.048      521.380      110.280        0.045      336.269        7.453      861.650
05/10/2014  19:48:00     -171.594       91.592      -15.842      140.696      143.264       91.052    19795.499    20524.446     8290.514        4.334        2.431      194.509       68.822        0.125      336.315        7.530      861.608
05/10/2014  19:49:00     -389.303      176.179      -65.269      183.328      182.126      107.679    33609.051    33169.786    11594.738       13.260        3.919      427.312       80.358        0.035      336.124        7.211      861.610
05/10/2014  19:50:00     -317.021       64.445      -38.951      161.098      188.435       80.125    25952.482    35507.729     6420.010        8.701        3.394      323.505       66.502        0.042      336.091        7.158      861.618
05/10/2014  19:51:00     -279.300      146.951      -38.361      148.858      159.047       89.029    22158.563    25296.025     7926.154        7.822        2.769      315.600       76.273        0.058      336.101        7.174      861.687
05/10/2014  19:52:00     -321.420      169.840      -45.686      167.177      136.514       95.283    27948.153    18636.138     9078.798        9.494        2.783      363.533       88.741        0.060      336.028        7.053      861.666
05/10/2014  19:53:00     -295.881      113.497      -35.225      162.887      123.225       76.240    26532.138    15184.353     5812.594        7.459        2.376      316.902       75.353        0.057      335.947        6.916      861.692
05/10/2014  19:54:00     -193.467       35.344      -36.377      121.162      150.075       82.735    14680.342    22522.509     6845.010        4.202        2.202      196.669       54.760        0.078      336.073        7.127      861.671
05/10/2014  19:55:00     -301.681       76.344      -36.000      142.870      150.560       84.055    20411.797    22668.393     7065.165        7.413        2.507      311.191       70.063        0.051      335.831        6.724      861.690
05/10/2014  19:56:00     -219.563      126.678      -14.880      176.215      156.076       88.176    31051.619    24359.635     7774.973        6.382        3.159      253.486       94.653        0.139      335.856        6.767      861.678
05/10/2014  19:57:00     -276.994      122.229      -47.672      112.388      126.898       76.554    12631.130    16103.048     5860.537        6.426        1.730      302.763       51.574        0.029      335.753        6.592      861.662
05/10/2014  19:58:00     -271.209      128.607      -27.950      153.630       91.367       64.910    23602.295     8347.921     4213.352        6.351        1.808      300.157       78.433        0.068      335.747        6.583      861.662
05/10/2014  19:59:00     -208.817       62.514      -21.717      117.716       95.492       65.066    13857.033     9118.807     4233.541        3.759        1.360      217.973       59.398        0.074      335.802        6.676      861.646
05/10/2014  20:00:00     -232.562      128.497      -37.432      110.300      100.100       59.362    12166.184    10019.960     3523.887        4.885        1.286      265.701       50.611        0.036      335.688        6.484      861.626
05/10/2014  20:01:00     -187.589       45.550      -31.814      105.903      104.694       51.798    11215.382    10960.793     2683.019        3.156        1.243      193.040       45.504        0.056      335.705        6.514      861.583
05/10/2014  20:02:00     -174.297      157.967      -26.652      114.825      111.040       59.398    13184.780    12329.915     3528.102        4.254        1.452      235.230       63.669        0.073      335.626        6.383      861.561
05/10/2014  20:03:00      -90.171       47.638       -6.716       56.808       57.195       30.350     3227.164     3271.295      921.140        0.893        0.371      101.981       24.784        0.059      335.864        6.782      861.529
05/10/2014  20:04:00      -92.467      102.781       -4.005       51.830      126.826       49.012     2686.380    16084.764     2402.213        2.015        1.059      138.253       41.154        0.089      335.750        6.590      861.551
05/10/2014  20:05:00     -105.363       71.843       -6.016       53.703       95.859       47.114     2883.967     9188.919     2219.740        1.529        0.715      127.526       40.841        0.103      335.890        6.825      861.575
05/10/2014  20:06:00      -98.550       65.923      -11.735       60.916       63.489       42.591     3710.751     4030.840     1814.013        1.187        0.478      118.566       34.091        0.083      335.889        6.823      861.580
05/10/2014  20:07:00     -121.396       69.992      -13.165       54.339       94.422       35.593     2952.726     8915.601     1266.846        1.647        0.657      140.128       31.662        0.051      335.915        6.867      861.568
05/10/2014  20:08:00     -141.097      142.391      -17.176       96.179      124.146       53.193     9250.421    15412.109     2829.540        3.398        1.375      200.458       60.220        0.090      335.690        6.489      861.572
05/10/2014  20:09:00     -102.265       98.695       -8.155       54.097       83.914       48.254     2926.467     7041.589     2328.482        1.628        0.615      142.123       33.578        0.056      335.814        6.698      861.569
05/10/2014  20:10:00     -146.151      131.734      -32.384       49.030       97.110       48.905     2403.937     9430.274     2391.707        2.699        0.711      196.758       48.261        0.060      335.806        6.683      861.573
05/10/2014  20:11:00     -156.591      136.806      -25.546       75.245       66.940       47.747     5661.878     4481.016     2279.748        2.815        0.621      207.934       43.715        0.044      335.808        6.685      861.584
05/10/2014  20:12:00     -134.066       88.406      -12.123       55.342       77.432       39.545     3062.730     5995.716     1563.804        1.828        0.531      160.591       37.741        0.055      335.857        6.769      861.600
05/10/2014  20:13:00     -106.384       82.275      -20.573       41.036       36.632       33.015     1683.916     1341.882     1089.966        1.131        0.206      134.487       22.421        0.028      335.886        6.818      861.600
05/10/2014  20:14:00      -99.245       81.540      -10.379       46.475       52.833       29.366     2159.947     2791.320      862.341        1.121        0.291      128.446       28.989        0.051      335.856        6.767      861.596
05/10/2014  20:15:00      -98.781       42.394       -5.172       52.061       42.965       30.220     2710.338     1846.022      913.250        0.852        0.273      107.494       20.739        0.037      335.960        6.942      861.598
05/10/2014  20:16:00     -112.964       59.552      -23.142       48.362       37.388       25.531     2338.902     1397.848      651.852        1.061        0.219      127.700       22.728        0.032      335.897        6.838      861.598
05/10/2014  20:17:00     -106.668       30.715      -12.405       60.550       51.612       32.766     3666.303     2663.772     1073.619        0.994        0.370      111.002       32.065        0.083      336.031        7.060      861.626
05/10/2014  20:18:00     -173.497       38.055      -24.384       54.462       59.027       48.816     2966.164     3484.229     2383.032        2.049        0.442      177.621       29.344        0.027      335.850        6.755      861.647
05/10/2014  20:19:00      -86.306       11.115      -18.939       59.997       56.589       30.513     3599.590     3202.274      931.043        0.783        0.387       87.019       24.610        0.080      336.023        7.047      861.649
05/10/2014  20:20:00     -118.388       14.406      -14.722       58.200       64.208       27.910     3387.183     4122.667      778.968        1.136        0.414      119.261       19.845        0.028      335.994        6.999      861.674
05/10/2014  20:21:00      -85.481       29.730      -16.510       48.984       58.186       25.673     2399.425     3385.659      659.080        0.745        0.322       90.504       26.315        0.085      335.896        6.834      861.673
05/10/2014  20:22:00     -179.343      111.537      -25.283       97.759       57.186       39.724     9556.788     3270.264     1578.030        2.982        0.720      211.198       45.227        0.046      335.850        6.756      861.688
05/10/2014  20:23:00     -125.870       57.493      -14.080       78.517       55.470       37.563     6164.894     3076.918     1410.947        1.500        0.533      138.379       36.582        0.070      335.836        6.735      861.688
05/10/2014  20:24:00     -154.622       10.276      -20.175       79.436       46.996       42.330     6310.111     2208.628     1791.793        1.736        0.516      154.963       37.513        0.059      335.841        6.741      861.687
05/10/2014  20:25:00      -74.598       39.737      -11.315       78.354       62.753       38.827     6139.397     3937.995     1507.536        0.943        0.579       84.522       39.118        0.214      335.818        6.705      861.678
05/10/2014  20:26:00      -95.010       27.775      -11.445       30.346       29.457       27.856      920.855      867.724      775.981        0.625        0.128       98.987       18.508        0.035      335.896        6.836      861.687
05/10/2014  20:27:00      -69.640       67.407       -3.472       64.304       58.884       35.361     4135.025     3467.377     1250.370        0.913        0.443       96.920       39.557        0.167      335.916        6.868      861.700
05/10/2014  20:28:00     -155.618       97.322      -17.265       69.462       50.081       39.595     4824.928     2508.088     1567.750        2.144        0.445      183.544       34.090        0.034      335.943        6.912      861.727
05/10/2014  20:29:00     -171.148      140.215      -40.894       86.456       82.641       44.150     7474.650     6829.532     1949.208        3.344        0.813      221.250       44.613        0.041      335.973        6.961      861.752
05/10/2014  20:30:00     -154.815      122.767      -39.872       57.665       89.141       36.457     3325.204     7946.189     1329.114        2.661        0.630      197.584       46.047        0.054      335.976        6.965      861.756
05/10/2014  20:31:00      -73.704      136.619      -20.150       37.177       42.088       25.588     1382.132     1771.390      654.726        1.415        0.190      155.232       15.865        0.010      336.015        7.032      861.756
05/10/2014  20:32:00      -65.588       86.366       -5.236       45.003       53.019       38.306     2025.286     2811.036     1467.365        0.904        0.315      108.448       33.778        0.097      336.034        7.064      861.766
05/10/2014  20:33:00      -70.376       80.766       -2.670       46.572       43.346       32.035     2168.951     1878.899     1026.267        0.828        0.254      107.126       18.263        0.029      336.116        7.201      861.810
05/10/2014  20:34:00     -102.632      191.010      -21.537       60.932       76.740       49.909     3712.692     5889.048     2490.877        2.978        0.605      216.837       45.304        0.044      336.122        7.210      861.871
05/10/2014  20:35:00      -76.361      196.493      -36.787       51.732       97.003       27.387     2676.233     9409.572      750.035        2.931        0.642      210.809       25.161        0.014      336.075        7.131      861.916
05/10/2014  20:36:00     -126.277      279.104      -29.209       70.407      103.304       43.482     4957.083    10671.697     1890.718        5.611        0.876      306.341       35.848        0.014      336.088        7.151      861.973
05/10/2014  20:37:00      -89.076      164.738      -16.093       66.686       88.525       45.449     4447.006     7836.650     2065.657        2.484        0.717      187.279       50.399        0.072      336.113        7.196      861.984
05/10/2014  20:38:00      -73.064      165.550      -17.514       73.182      106.901       34.560     5355.571    11427.811     1194.382        2.551        0.899      180.956       43.164        0.057      336.187        7.317      861.990
05/10/2014  20:39:00      -87.624      299.001      -40.555       72.314      115.592       47.363     5229.306    13361.400     2243.211        5.977        1.042      311.576       46.934        0.023      336.116        7.197      862.063
05/10/2014  20:40:00      -92.460      293.276      -39.843       91.646       90.507       47.055     8399.042     8191.580     2214.162        5.747        0.940      307.506       52.218        0.029      336.078        7.135      862.108
05/10/2014  20:41:00      -52.622      321.651      -38.968       57.379       70.314       31.102     3292.398     4944.067      967.307        5.847        0.460      325.927       29.507        0.008      336.057        7.099      862.110
05/10/2014  20:42:00      -60.251      289.546      -31.020       46.617      100.803       38.962     2173.191    10161.240     1518.002        5.114        0.693      295.748       50.007        0.029      336.054        7.094      862.136
05/10/2014  20:43:00      -29.516      292.227      -38.842       81.298       94.051       42.668     6609.316     8845.583     1820.600        5.252        0.864      293.714       40.461        0.019      336.106        7.182      862.191
05/10/2014  20:44:00      -16.562      305.262      -41.446       52.417       54.431       31.112     2747.533     2962.741      967.967        5.093        0.334      305.711       23.392        0.006      336.043        7.077      862.232
05/10/2014  20:45:00       23.758      227.172      -23.178       57.243       56.322       39.245     3276.802     3172.135     1540.174        3.035        0.399      228.411       35.739        0.024      335.971        6.957      862.296
05/10/2014  20:46:00       -5.515      163.037      -11.703       65.584       87.128       45.117     4301.210     7591.328     2035.513        2.034        0.696      163.130       50.854        0.097      335.945        6.914      862.326
05/10/2014  20:47:00        8.660      199.664      -21.077       43.707       82.022       38.356     1910.314     6727.587     1471.215        2.524        0.505      199.851       40.528        0.041      335.974        6.961      862.353
05/10/2014  20:48:00       34.082      275.160      -31.825       70.875      103.768       58.055     5023.251    10767.888     3370.332        4.852        0.958      277.263       62.223        0.050      335.977        6.966      862.341
05/10/2014  20:49:00      -34.459      307.262      -28.518       78.645       97.136       52.328     6184.973     9435.497     2738.251        5.738        0.918      309.188       50.684        0.027      335.967        6.950      862.388
05/10/2014  20:50:00      -77.967      328.167      -45.649       77.317      163.446       65.265     5977.942    26714.745     4259.552        7.640        1.848      337.302       76.370        0.051      335.945        6.913      862.416
05/10/2014  20:51:00     -185.941      255.559      -51.625       94.781      184.834       63.436     8983.459    34163.504     4024.088        7.485        2.359      316.045       69.300        0.048      335.923        6.875      862.428
05/10/2014  20:52:00      -70.662      405.798      -57.405      113.637      212.796       66.608    12913.304    45282.043     4436.656       11.778        3.132      411.904       92.530        0.050      335.847        6.751      862.446
05/10/2014  20:53:00     -105.125      381.323      -46.111       79.632      135.356       62.695     6341.242    18321.238     3930.697        9.358        1.430      395.548       66.736        0.028      335.744        6.578      862.451
05/10/2014  20:54:00     -147.010      264.624      -38.692      102.932       96.871       64.317    10595.017     9383.932     4136.725        5.862        1.206      302.718       57.773        0.036      335.744        6.577      862.443
05/10/2014  20:55:00     -173.853      335.762      -34.175      104.794       90.270       56.301    10981.734     8148.690     3169.769        8.321        1.115      378.101       53.968        0.020      335.700        6.505      862.456
05/10/2014  20:56:00     -200.894      252.970      -24.455       96.461      127.432       67.591     9304.814    16239.006     4568.487        6.753        1.506      323.036       53.862        0.028      335.695        6.496      862.455
05/10/2014  20:57:00     -169.090      187.449      -37.443       72.637      107.585       56.137     5276.177    11574.633     3151.388        4.256        1.000      252.445       55.621        0.049      335.702        6.509      862.462
05/10/2014  20:58:00     -176.069      233.880      -44.976       96.129      101.814       54.712     9240.694    10366.128     2993.435        5.516        1.130      292.746       52.934        0.033      335.669        6.453      862.473
05/10/2014  20:59:00     -123.573      336.050      -34.759       77.654      112.195       45.515     6030.194    12587.796     2071.575        7.504        1.034      358.050       42.283        0.014      335.607        6.350      862.484
05/10/2014  21:00:00     -113.792      181.842      -29.063       79.440      106.444       45.914     6310.735    11330.416     2108.050        3.330        0.987      214.512       56.049        0.068      335.664        6.447      862.507
05/10/2014  21:01:00     -161.109      181.828      -29.613      108.714      103.882       65.820    11818.664    10791.493     4332.244        4.341        1.347      242.935       67.095        0.076      335.631        6.391      862.518
05/10/2014  21:02:00      -92.651      185.332      -24.609       68.389      103.164       48.116     4677.104    10642.811     2315.102        3.058        0.882      207.201       43.746        0.045      335.646        6.416      862.530
05/10/2014  21:03:00     -120.059      302.326      -43.342       75.593      121.837       43.839     5714.345    14844.159     1921.851        6.508        1.124      325.292       43.388        0.018      335.598        6.338      862.532
05/10/2014  21:04:00     -160.508      146.396      -37.783       92.249       91.151       53.048     8509.936     8308.447     2814.137        3.412        0.982      217.243       62.332        0.082      335.607        6.352      862.531
05/10/2014  21:05:00     -147.126      211.161      -35.254       68.199       93.731       48.004     4651.136     8785.453     2304.380        4.161        0.787      257.361       38.694        0.023      335.594        6.329      862.540
05/10/2014  21:06:00     -136.271      242.400      -41.817       81.591      103.479       46.677     6657.025    10707.977     2178.713        4.931        0.977      278.079       53.564        0.037      335.607        6.350      862.563
05/10/2014  21:07:00     -119.229      208.621      -24.751       84.563      105.380       56.992     7150.843    11104.935     3248.117        3.992        1.075      240.288       52.279        0.047      335.617        6.368      862.582
05/10/2014  21:08:00      -93.591      175.851      -13.904       59.761      122.643       48.350     3571.353    15041.327     2337.757        3.041        1.048      199.206       57.546        0.083      335.591        6.324      862.601
05/10/2014  21:09:00     -146.433       57.343      -14.813       59.547       72.501       43.435     3545.854     5256.432     1886.637        1.782        0.534      157.261       35.665        0.051      335.658        6.437      862.623
05/10/2014  21:10:00     -108.160      171.408      -19.279       60.883      103.370       57.410     3706.768    10685.342     3295.913        2.957        0.884      202.680       54.837        0.073      335.563        6.279      862.652
05/10/2014  21:11:00     -143.411       75.742      -23.672      107.491      109.873       46.072    11554.281    12071.996     2122.644        2.630        1.287      162.184       50.084        0.095      335.584        6.315      862.673
05/10/2014  21:12:00     -124.327      108.651      -12.809       84.378       91.007       44.381     7119.728     8282.282     1969.701        2.240        0.869      165.113       37.948        0.053      335.570        6.289      862.702
05/10/2014  21:13:00     -187.290      170.970      -30.335      111.813       97.825       48.706    12502.087     9569.762     2372.227        4.483        1.222      253.590       52.075        0.042      335.509        6.187      862.720
05/10/2014  21:14:00     -155.481      106.190      -29.806       64.786       68.649       35.112     4197.231     4712.721     1232.824        2.324        0.507      188.284       22.470        0.014      335.553        6.262      862.737
05/10/2014  21:15:00     -130.889      128.328      -28.910       74.530       71.000       43.718     5554.650     5041.023     1911.258        2.347        0.625      183.303       41.057        0.050      335.539        6.239      862.746
05/10/2014  21:16:00     -103.196      134.316      -20.871       60.587       67.010       39.323     3670.801     4490.393     1546.302        1.941        0.485      169.382       35.083        0.043      335.572        6.293      862.771
05/10/2014  21:17:00     -156.648      139.781      -36.537       70.758       52.886       36.859     5006.684     2796.885     1358.592        2.729        0.458      209.946       38.192        0.033      335.626        6.384      862.799
05/10/2014  21:18:00     -169.983      153.072      -41.194       79.083       70.010       44.698     6254.123     4901.366     1997.918        3.359        0.658      228.747       40.095        0.031      335.608        6.353      862.828
05/10/2014  21:19:00     -132.916      192.765      -34.465       88.613       70.744       39.943     7852.280     5004.723     1595.444        3.523        0.723      234.147       49.689        0.045      335.576        6.300      862.868
05/10/2014  21:20:00      -80.253      100.826      -24.812       37.887       41.289       22.071     1435.452     1704.756      487.122        1.042        0.181      128.866       17.298        0.018      335.564        6.284      862.867
05/10/2014  21:21:00      -38.243       47.529        2.384       51.804       77.866       25.722     2683.706     6063.111      661.637        0.657        0.470       61.004       29.230        0.230      335.646        6.419      862.871
05/10/2014  21:22:00      -12.084       -1.292       11.361       48.460       52.431       27.921     2348.334     2749.044      779.564        0.308        0.294       12.153       11.983        0.972      335.690        6.493      862.863
05/10/2014  21:23:00     -119.507       67.572      -32.504       53.063       67.332       39.163     2815.679     4533.632     1533.746        1.439        0.444      137.288       17.739        0.017      335.550        6.257      862.850
05/10/2014  21:24:00      -60.409        3.537       23.300       78.022       75.441       48.626     6087.418     5691.377     2364.506        0.917        0.707       60.513       45.456        0.564      335.544        6.249      862.822
05/10/2014  21:25:00      -75.222        7.534       15.399       75.908       53.116       47.325     5762.059     2821.317     2239.668        0.839        0.541       75.598       50.021        0.438      335.515        6.200      862.813
05/10/2014  21:26:00     -123.452       -1.696      -27.057       58.747       47.584       32.840     3451.174     2264.204     1078.438        1.138        0.340      123.463       26.632        0.047      335.464        6.115      862.808
05/10/2014  21:27:00      -47.465       -2.263       13.702       44.859       71.425       34.849     2012.352     5101.540     1214.459        0.539        0.416       47.519       23.733        0.249      335.453        6.097      862.789
05/10/2014  21:28:00      -55.384      167.862       -3.658       63.483       80.198       39.303     4030.084     6431.768     1544.704        2.163        0.600      176.762       46.522        0.069      335.442        6.077      862.792
05/10/2014  21:29:00     -123.565       99.236      -12.972      114.312       92.114       47.449    13067.211     8485.017     2251.429        2.454        1.190      158.481       63.706        0.162      335.478        6.136      862.776
05/10/2014  21:30:00     -112.997       88.807      -25.921       72.572       48.090       35.373     5266.743     2312.679     1251.219        1.508        0.442      143.718       36.964        0.066      335.469        6.122      862.766
05/10/2014  21:31:00      -96.396      191.419      -28.173       45.825       96.782       42.359     2099.888     9366.746     1794.280        2.999        0.663      214.320       31.352        0.021      335.479        6.137      862.751
05/10/2014  21:32:00     -134.219       77.709      -18.567       67.267       66.836       37.261     4524.859     4467.066     1388.369        1.739        0.519      155.091       47.066        0.092      335.472        6.125      862.748
05/10/2014  21:33:00      -73.089       21.400      -13.786       70.847       51.699       30.041     5019.236     2672.766      902.491        0.729        0.430       76.158       33.171        0.190      335.469        6.123      862.736
05/10/2014  21:34:00     -128.070       85.577      -27.162       52.400       50.444       30.530     2745.794     2544.566      932.095        1.534        0.311      154.030       28.087        0.033      335.501        6.176      862.731
05/10/2014  21:35:00     -101.333      150.958      -22.043       51.422       65.488       42.323     2644.245     4288.676     1791.196        2.113        0.436      181.815       37.468        0.042      335.430        6.056      862.735
05/10/2014  21:36:00      -75.836       68.820       -8.196       64.941       73.515       33.142     4217.323     5404.396     1098.373        1.064        0.536      102.408       44.856        0.192      335.457        6.102      862.760
05/10/2014  21:37:00     -124.989       34.984      -30.530       30.528       89.271       22.182      931.989     7969.247      492.049        1.358        0.470      129.793       29.024        0.050      335.517        6.202      862.761
05/10/2014  21:38:00      -84.908       -6.867       -5.291       74.269       61.944       33.387     5515.892     3837.059     1114.672        0.887        0.523       85.185       36.075        0.179      335.483        6.146      862.755
05/10/2014  21:39:00        2.061      -25.136       11.423       52.592       42.680       33.778     2765.869     1821.555     1140.941        0.325        0.286       25.220       31.456        1.556      335.460        6.106      862.759
05/10/2014  21:40:00     -174.628       88.853      -35.538       66.893       51.458       35.561     4474.692     2647.879     1264.575        2.402        0.419      195.933       34.529        0.031      335.442        6.076      862.776
05/10/2014  21:41:00     -136.010      -52.615      -14.091       43.390       51.628       28.283     1882.733     2665.409      799.916        1.341        0.267      145.832       23.663        0.026      335.492        6.161      862.791
05/10/2014  21:42:00     -155.521      -33.600      -13.644       72.865       40.860       27.780     5309.318     1669.519      771.738        1.662        0.388      159.110       31.012        0.038      335.339        5.904      862.783
05/10/2014  21:43:00      -88.786      -45.199       -1.019       45.433       41.780       22.911     2064.135     1745.560      524.933        0.713        0.217       99.629       19.302        0.038      335.325        5.884      862.783
05/10/2014  21:44:00      -95.991      -49.242       -0.509       66.880       66.686       32.094     4472.992     4447.027     1030.019        1.079        0.498      107.885       26.131        0.059      335.226        5.717      862.807
05/10/2014  21:45:00     -159.357      -50.725       -6.148       46.927       52.698       29.602     2202.180     2777.057      876.273        1.693        0.293      167.236       22.004        0.017      335.156        5.602      862.814
05/10/2014  21:46:00     -134.656       -8.812       -4.981       50.556       44.984       25.577     2555.895     2023.569      654.177        1.173        0.262      134.944       12.841        0.009      335.196        5.670      862.811
05/10/2014  21:47:00     -158.240      -33.945      -10.901       57.568       47.106       32.575     3314.040     2219.015     1061.141        1.645        0.330      161.840       29.239        0.033      335.143        5.581      862.800
05/10/2014  21:48:00     -143.732       31.788      -19.120       70.077       44.177       25.237     4910.736     1951.576      636.884        1.477        0.375      147.205       28.622        0.038      335.155        5.599      862.793
05/10/2014  21:49:00     -149.863      -38.622      -15.684       63.488       52.485       31.566     4030.767     2754.718      996.429        1.599        0.389      154.760       30.681        0.039      335.153        5.598      862.812
05/10/2014  21:50:00      -86.173      -27.282        1.512       50.200       51.757       30.162     2519.997     2678.837      909.748        0.714        0.305       90.389       27.405        0.092      335.140        5.575      862.846
05/10/2014  21:51:00     -113.944      -34.447       -6.518       46.940       37.000       25.705     2203.330     1369.006      660.737        0.922        0.212      119.037       17.826        0.022      335.157        5.605      862.855
05/10/2014  21:52:00     -106.943      -27.349        3.893       47.224       33.254       19.349     2230.121     1105.819      374.396        0.795        0.186      110.384       19.137        0.030      335.131        5.563      862.874
05/10/2014  21:53:00      -72.943      -42.551       -2.760       30.354       34.007       19.208      921.369     1156.442      368.944        0.479        0.122       84.447       12.334        0.021      335.156        5.602      862.873
05/10/2014  21:54:00     -104.827      -43.382       -9.050       30.588       23.525       16.212      935.600      553.432      262.841        0.735        0.088      113.449       14.981        0.017      335.162        5.613      862.868
05/10/2014  21:55:00     -145.197      -36.172       -6.163       57.340       27.475       23.597     3287.932      754.885      556.817        1.351        0.230      149.635       29.232        0.038      335.181        5.644      862.853
05/10/2014  21:56:00      -92.635      -42.948       -5.304       46.568       31.097       23.565     2168.614      967.015      555.299        0.707        0.185      102.107       23.333        0.052      335.219        5.706      862.849
05/10/2014  21:57:00      -70.277      -55.909       -5.502       41.963       18.315       14.317     1760.873      335.433      204.970        0.520        0.115       89.804       14.010        0.024      335.242        5.745      862.855
05/10/2014  21:58:00     -125.695      -94.062        3.229       60.442       41.634       30.763     3653.263     1733.362      946.356        1.549        0.317      156.993       32.820        0.044      335.175        5.632      862.842
05/10/2014  21:59:00      -90.951       12.059      -10.381       38.860       42.294       27.364     1510.083     1788.757      748.778        0.629        0.202       91.747       24.390        0.071      335.270        5.792      862.832
05/10/2014  22:00:00      -63.736        7.629       -8.382       23.517       24.856       15.094      553.051      617.827      227.823        0.279        0.070       64.191       10.609        0.027      335.367        5.953      862.843
05/10/2014  22:01:00      -57.224      -12.171       -3.016       22.176       21.440       17.215      491.763      459.674      296.372        0.234        0.062       58.504       15.727        0.072      335.322        5.879      862.852
05/10/2014  22:02:00      -35.067      -33.844       -5.544       33.487       16.848       17.266     1121.347      283.839      298.120        0.205        0.085       48.735        5.174        0.011      335.380        5.975      862.857
05/10/2014  22:03:00      -58.978      -44.703        7.078       46.353       32.085       24.884     2148.637     1029.436      619.210        0.466        0.190       74.005       24.875        0.113      335.328        5.888      862.876
05/10/2014  22:04:00      -49.008      -28.054       12.460       60.200       29.140       17.843     3624.057      849.152      318.375        0.407        0.240       56.470       24.962        0.195      335.316        5.868      862.897
05/10/2014  22:05:00      -53.109      -64.735       15.273       75.591       42.885       28.741     5713.997     1839.093      826.067        0.781        0.419       83.733       35.046        0.175      335.327        5.886      862.889
05/10/2014  22:06:00     -135.637      -55.807      -14.856       38.074       49.466       19.058     1449.594     2446.878      363.215        1.300        0.213      146.669       14.453        0.010      335.341        5.911      862.875
05/10/2014  22:07:00      -40.307        0.034        8.148       42.808       26.451       22.625     1832.541      699.645      511.908        0.237        0.152       40.307       26.996        0.449      335.248        5.755      862.871
05/10/2014  22:08:00      -23.336        6.712        4.572       17.061       22.160       13.943      291.078      491.057      194.419        0.079        0.049       24.282        9.459        0.152      335.281        5.810      862.860
05/10/2014  22:09:00      -26.110       14.931      -11.763       21.295       17.478       17.445      453.477      305.464      304.320        0.105        0.053       30.077       11.945        0.158      335.325        5.881      862.853
05/10/2014  22:10:00       -9.688       -2.484        2.195       36.218       20.742       12.703     1311.755      430.240      161.373        0.100        0.095       10.002        6.395        0.409      335.367        5.952      862.849
05/10/2014  22:11:00      -51.037       41.484      -13.604       37.393       37.033       21.252     1398.261     1371.441      451.663        0.387        0.161       65.770       22.019        0.112      335.349        5.922      862.852
05/10/2014  22:12:00      -63.272       21.034      -10.806       36.000       42.250       14.145     1296.034     1785.037      200.088        0.392        0.164       66.677       10.196        0.023      335.303        5.846      862.870
05/10/2014  22:13:00      -54.501       17.845       -4.087       29.699       35.208       17.942      882.001     1239.598      321.913        0.287        0.122       57.348        9.641        0.028      335.265        5.783      862.887
05/10/2014  22:14:00      -53.471       69.531      -15.088       25.834       34.843       21.570      667.409     1214.059      465.249        0.513        0.117       87.714       16.464        0.035      335.307        5.855      862.904
05/10/2014  22:15:00      -52.985       -1.864       -1.672       39.687       25.572       13.512     1575.095      653.911      182.584        0.261        0.121       53.018       15.206        0.082      335.323        5.879      862.920
05/10/2014  22:16:00      -96.004       23.991      -19.558       88.032       50.352       26.529     7749.556     2535.370      703.799        1.058        0.549       98.957       35.555        0.129      335.368        5.954      862.934
05/10/2014  22:17:00     -131.601       14.703       12.195       91.474       66.606       52.898     8367.419     4436.405     2798.211        1.664        0.780      132.419       49.393        0.139      335.217        5.701      862.918
05/10/2014  22:18:00      -83.716       62.271      -24.739       40.881       35.944       24.227     1671.254     1291.958      586.927        0.752        0.178      104.337       16.841        0.026      335.231        5.727      862.902
05/10/2014  22:19:00     -146.872       54.044      -25.486       57.227       79.191       34.627     3274.890     6271.212     1199.057        1.794        0.537      156.499       30.114        0.037      335.279        5.805      862.894
05/10/2014  22:20:00     -104.884       21.575       -9.844       79.883       63.375       30.052     6381.218     4016.430      903.136        1.143        0.565      107.080       36.708        0.118      335.297        5.835      862.869
05/10/2014  22:21:00     -106.809      131.326      -27.823       86.304       46.790       34.918     7448.375     2189.282     1219.233        2.014        0.543      169.277       34.421        0.041      335.275        5.797      862.865
05/10/2014  22:22:00     -163.928      122.043      -32.127       76.966       79.633       35.787     5923.716     6341.411     1280.697        2.817        0.677      204.369       40.870        0.040      335.287        5.817      862.872
05/10/2014  22:23:00      -70.698      110.534       -7.132       39.790       99.034       32.512     1583.235     9807.688     1057.049        1.485        0.622      131.210       31.935        0.059      335.292        5.828      862.884
05/10/2014  22:24:00     -111.392      143.274      -18.130       66.291       64.998       40.214     4394.495     4224.802     1617.188        2.175        0.512      181.482       46.405        0.065      335.270        5.790      862.902
05/10/2014  22:25:00      -82.050      115.321       -1.048       57.195      108.411       46.830     3271.284    11752.872     2193.015        1.862        0.861      141.531       54.722        0.149      335.246        5.751      862.917
05/10/2014  22:26:00      -95.434      128.637      -26.783       61.379       87.530       41.606     3767.407     7661.415     1731.089        1.976        0.658      160.172       41.629        0.068      335.244        5.748      862.921
05/10/2014  22:27:00      -79.334       84.623      -21.126       57.508       75.325       34.047     3307.137     5673.913     1159.169        1.202        0.507      115.995       37.366        0.104      335.240        5.741      862.922
05/10/2014  22:28:00     -145.667      137.559      -23.704       85.887       73.096       49.469     7376.575     5342.983     2447.227        2.793        0.758      200.353       42.558        0.045      335.239        5.738      862.925
05/10/2014  22:29:00     -149.273      133.783      -28.846       57.542      107.319       46.408     3311.073    11517.282     2153.657        2.899        0.849      200.450       55.245        0.076      335.198        5.670      862.912
05/10/2014  22:30:00     -126.554      176.958      -47.963       58.236       58.890       34.900     3391.381     3467.988     1218.020        2.885        0.404      217.555       29.253        0.018      335.203        5.677      862.928
05/10/2014  22:31:00     -156.317      186.851      -34.442       66.955      115.153       47.284     4482.996    13260.193     2235.796        4.025        0.999      243.615       56.821        0.054      335.187        5.651      862.924
05/10/2014  22:32:00      -58.472      104.861        2.267       72.227       79.580       45.693     5216.669     6333.040     2087.835        1.403        0.682      120.062       40.482        0.114      335.211        5.693      862.907
05/10/2014  22:33:00     -117.071      154.761      -20.425       79.387       68.387       41.915     6302.302     4676.825     1756.853        2.540        0.637      194.053       37.820        0.038      335.215        5.698      862.911
05/10/2014  22:34:00     -128.831      163.312      -18.812       87.396       80.186       43.622     7638.076     6429.811     1902.915        2.979        0.799      208.010       32.678        0.025      335.205        5.682      862.934
05/10/2014  22:35:00      -82.494      105.609       -6.776       52.060       81.069       50.554     2710.232     6572.230     2555.694        1.492        0.592      134.010       53.751        0.161      335.222        5.711      862.924
05/10/2014  22:36:00     -123.536      106.917       -6.367       70.500       65.202       44.737     4970.277     4251.267     2001.380        1.898        0.561      163.378       33.089        0.041      335.249        5.755      862.914
05/10/2014  22:37:00     -150.004      200.056      -34.120       90.982       89.146       47.509     8277.670     7947.058     2257.118        4.108        0.924      250.047       52.968        0.045      335.228        5.718      862.917
05/10/2014  22:38:00      -75.296      247.912      -33.060       62.485      137.979       41.335     3904.319    19038.320     1708.589        4.643        1.233      259.094       48.259        0.035      335.298        5.835      862.910
05/10/2014  22:39:00      -93.333      187.103      -18.057       77.500       77.827       51.660     6006.303     6057.109     2668.739        2.939        0.737      209.090       55.531        0.071      335.291        5.823      862.906
05/10/2014  22:40:00     -131.414      181.500      -25.137       75.012       76.677       49.249     5626.875     5879.359     2425.430        3.238        0.697      224.080       42.805        0.036      335.325        5.881      862.912
05/10/2014  22:41:00     -143.488      168.816      -23.215       75.317       84.454       51.673     5672.633     7132.528     2670.059        3.255        0.774      221.558       53.690        0.059      335.299        5.838      862.906
05/10/2014  22:42:00     -152.186      282.043      -48.686       83.957       92.778       51.987     7048.862     8607.670     2702.664        6.172        0.918      320.482       53.679        0.028      335.318        5.868      862.897
05/10/2014  22:43:00     -116.067      196.850      -30.305       65.922      117.141       51.381     4345.752    13721.954     2639.987        3.692        1.035      228.521       45.774        0.040      335.365        5.948      862.888
05/10/2014  22:44:00     -119.443      206.943      -19.408       71.998       82.279       47.242     5183.770     6769.811     2231.769        3.582        0.709      238.939       42.981        0.032      335.368        5.953      862.875
05/10/2014  22:45:00      -94.676      198.093      -20.864       61.718      103.102       43.308     3809.082    10630.020     1875.609        3.247        0.816      219.555       44.922        0.042      335.337        5.901      862.871
05/10/2014  22:46:00      -96.242      164.115      -20.996       53.827       70.426       37.797     2897.312     4959.886     1428.636        2.296        0.464      190.253       28.246        0.022      335.369        5.955      862.882
05/10/2014  22:47:00     -201.507      234.952      -55.135      105.551      100.169       57.176    11141.086    10033.858     3269.068        6.164        1.222      309.528       63.643        0.042      335.365        5.947      862.882
05/10/2014  22:48:00     -190.757      243.187      -46.881       96.705      119.735       61.236     9351.870    14336.443     3749.843        6.258        1.372      309.077       64.288        0.043      335.353        5.926      862.895
05/10/2014  22:49:00     -161.237      231.742      -43.198      137.758       98.316       55.230    18977.349     9665.954     3050.364        5.662        1.585      282.315       67.880        0.058      335.360        5.938      862.898
05/10/2014  22:50:00     -259.931      308.896      -74.395      107.363      141.011       67.044    11526.772    19884.159     4494.958       10.220        1.795      403.709       73.054        0.033      335.380        5.973      862.902
05/10/2014  22:51:00     -173.453      302.736      -48.511       82.037      106.639       53.231     6730.134    11371.813     2833.498        7.251        1.047      348.905       47.838        0.019      335.363        5.943      862.922
05/10/2014  22:52:00     -151.099      159.936      -34.702       55.895       90.939       46.848     3124.283     8269.986     2194.711        3.160        0.679      220.024       44.851        0.042      335.372        5.959      862.940
05/10/2014  22:53:00     -149.763      189.397      -26.198       74.299       81.968       65.141     5520.310     6718.697     4243.401        3.773        0.824      241.454       53.892        0.050      335.365        5.948      862.955
05/10/2014  22:54:00     -188.804      136.734      -11.207      108.272      142.797       53.910    11722.884    20391.070     2906.293        4.474        1.751      233.117       50.691        0.047      335.368        5.952      862.959
05/10/2014  22:55:00     -156.010      181.935      -34.351       81.441      104.002       50.821     6632.605    10816.389     2582.763        3.932        1.002      239.665       37.847        0.025      335.357        5.935      862.960
05/10/2014  22:56:00     -166.294      203.770      -42.178       97.574      113.294       50.178     9520.701    12835.574     2517.879        4.791        1.244      263.013       57.158        0.047      335.355        5.929      862.977
05/10/2014  22:57:00     -212.823      200.019      -49.475       83.233       95.921       53.886     6927.781     9200.901     2903.714        5.339        0.952      292.063       50.282        0.030      335.372        5.957      862.986
05/10/2014  22:58:00     -200.502      238.177      -52.834      108.600      121.504       59.531    11793.885    14763.195     3543.924        6.490        1.505      311.335       69.110        0.049      335.362        5.942      862.961
05/10/2014  22:59:00     -167.505      279.892      -40.560       70.391       98.456       50.059     4954.930     9693.624     2505.858        6.259        0.858      326.186       45.098        0.019      335.354        5.929      862.961
05/10/2014  23:00:00     -155.944      194.354      -34.131      101.963       86.896       59.912    10396.511     7550.994     3589.501        4.239        1.077      249.183       58.124        0.054      335.357        5.933      862.949
05/10/2014  23:01:00     -108.907      221.678       -9.928       97.402      133.285       61.459     9487.222    17764.818     3777.191        4.606        1.551      246.985       51.799        0.044      335.386        5.983      862.932
05/10/2014  23:02:00     -243.543      179.698      -53.169      131.572      100.981       53.720    17311.256    10197.080     2885.830        6.241        1.520      302.662       49.325        0.027      335.370        5.957      862.933
05/10/2014  23:03:00     -153.380      179.842      -36.815       86.061       86.480       53.576     7406.454     7478.769     2870.349        3.749        0.888      236.365       51.459        0.047      335.368        5.952      862.924
05/10/2014  23:04:00     -153.700      149.868      -26.168       91.132      101.390       49.858     8304.989    10279.848     2485.820        3.392        1.054      214.672       56.291        0.069      335.389        5.987      862.937
05/10/2014  23:05:00     -135.416      177.007      -14.476       85.230       68.415       52.688     7264.113     4680.549     2776.031        3.230        0.736      222.866       42.875        0.037      335.361        5.939      862.956
05/10/2014  23:06:00     -248.713      245.412      -45.049      135.343      122.137       72.081    18317.803    14917.380     5195.621        8.127        1.922      349.407       64.128        0.034      335.399        6.004      862.975
05/10/2014  23:07:00     -175.922      214.637      -44.052       93.346      104.771       59.460     8713.550    10976.973     3535.504        5.109        1.161      277.520       62.680        0.051      335.371        5.958      862.990
05/10/2014  23:08:00     -147.849      186.338      -19.280       69.529      102.904       53.890     4834.265    10589.193     2904.134        3.764        0.916      237.868       51.730        0.047      335.336        5.900      863.003
05/10/2014  23:09:00     -173.467      206.835      -33.463      101.034      122.969       62.865    10207.814    15121.296     3952.051        5.163        1.464      269.947       59.911        0.049      335.369        5.953      862.984
05/10/2014  23:10:00     -170.051      145.449      -20.854       74.833      103.106       61.751     5600.051    10630.935     3813.219        3.527        1.002      223.769       50.959        0.052      335.355        5.929      862.984
05/10/2014  23:11:00     -128.073      262.998      -19.357       76.520      101.026       54.823     5855.250    10206.261     3005.616        5.250        0.953      292.525       50.337        0.030      335.303        5.843      862.984
05/10/2014  23:12:00     -198.884      219.541      -42.901       98.897      124.053       56.786     9780.520    15389.202     3224.703        5.899        1.420      296.231       44.350        0.022      335.319        5.869      862.994
05/10/2014  23:13:00     -159.574      264.325      -34.074       98.038      110.509       54.804     9611.533    12212.184     3003.476        6.066        1.241      308.759       50.787        0.027      335.301        5.838      863.013
05/10/2014  23:14:00     -234.073      243.025      -48.860      127.781       95.632       69.927    16327.952     9145.387     4889.728        7.329        1.518      337.418       59.758        0.031      335.299        5.836      863.035
05/10/2014  23:15:00     -136.065      205.009      -26.430      105.629      126.637       60.304    11157.483    16036.981     3636.515        4.603        1.542      246.054       62.354        0.064      335.291        5.825      863.026
05/10/2014  23:16:00     -254.581      275.877      -68.214      103.013      109.447       60.450    10611.626    11978.692     3654.145        8.590        1.312      375.392       53.034        0.020      335.306        5.848      863.043
05/10/2014  23:17:00     -259.606      267.665      -54.820      154.288      111.390       68.431    23804.919    12407.742     4682.795        9.146        2.045      372.881       73.394        0.039      335.313        5.861      863.074
05/10/2014  23:18:00     -215.982      243.030      -41.063      120.798      156.190       62.478    14592.190    24395.300     3903.562        7.514        2.145      325.134       72.417        0.050      335.303        5.844      863.079
05/10/2014  23:19:00     -203.194      233.881      -37.473      117.284       98.334       56.071    13755.430     9669.533     3143.993        6.198        1.328      309.820       39.403        0.016      335.309        5.853      863.087
05/10/2014  23:20:00     -193.070      197.083      -26.494      135.791      135.377       66.444    18439.100    18326.839     4414.779        5.899        2.059      275.894       81.365        0.087      335.307        5.852      863.106
05/10/2014  23:21:00     -175.272      205.419      -51.232      114.362      108.415       65.075    13078.700    11753.834     4234.748        5.230        1.453      270.032       58.867        0.048      335.332        5.892      863.124
05/10/2014  23:22:00     -154.831      221.193      -31.159      113.477      107.282       60.082    12876.944    11509.520     3609.869        5.093        1.400      269.998       64.871        0.058      335.347        5.917      863.115
05/10/2014  23:23:00     -163.833      301.942      -29.540       83.685      132.837       57.336     7003.253    17645.793     3287.392        7.340        1.397      343.526       50.365        0.021      335.326        5.882      863.128
05/10/2014  23:24:00     -122.109      213.210      -17.306      104.700      104.585       60.904    10962.032    10937.994     3709.247        4.313        1.280      245.702       53.331        0.047      335.338        5.902      863.130
05/10/2014  23:25:00     -134.031      202.190      -27.041      135.739      100.991       61.335    18425.127    10199.245     3761.989        4.598        1.619      242.580       55.792        0.053      335.329        5.886      863.136
05/10/2014  23:26:00     -135.220      183.691      -34.872       91.676       72.702       52.234     8404.437     5285.534     2728.423        3.483        0.821      228.094       44.909        0.039      335.367        5.952      863.147
05/10/2014  23:27:00      -80.655      145.212       -2.775       83.901       94.766       49.949     7039.299     8980.596     2494.902        2.305        0.926      166.107       46.446        0.078      335.356        5.933      863.131
05/10/2014  23:28:00      -60.839      117.779       -7.444       79.528      143.135       48.765     6324.646    20487.641     2378.014        2.340        1.460      132.565       46.295        0.122      335.390        5.991      863.118
05/10/2014  23:29:00     -166.049      217.875      -21.545      106.591      175.993       65.724    11361.697    30973.674     4319.709        6.107        2.333      273.937       66.566        0.059      335.330        5.889      863.096
05/10/2014  23:30:00     -103.480      155.850      -23.871       63.281       85.862       37.866     4004.492     7372.287     1433.867        2.419        0.641      187.076       27.826        0.022      335.384        5.981      863.074
05/10/2014  23:31:00     -112.035       77.847      -15.378       83.027       90.043       42.698     6893.491     8107.804     1823.151        1.783        0.841      136.426       37.804        0.077      335.347        5.919      863.100
05/10/2014  23:32:00     -102.434      158.707      -21.483       70.698       86.209       48.181     4998.237     7432.051     2321.407        2.544        0.738      188.893       53.906        0.081      335.327        5.886      863.148
05/10/2014  23:33:00     -112.014      194.585      -17.453       73.396      120.916       55.438     5387.038    14620.655     3073.384        3.689        1.154      224.523       60.561        0.073      335.310        5.856      863.193
05/10/2014  23:34:00     -178.391      234.010      -36.056      104.755      102.851       59.617    10973.543    10578.328     3554.138        5.649        1.255      294.251       51.446        0.031      335.314        5.863      863.207
05/10/2014  23:35:00     -191.104      234.810      -53.357      107.303       80.373       57.127    11513.845     6459.809     3263.459        5.787        1.062      302.748       63.287        0.044      335.284        5.811      863.205
05/10/2014  23:36:00     -113.433      156.249      -17.394       76.677       93.360       54.835     5879.406     8716.049     3006.830        2.759        0.880      193.082       46.458        0.058      335.249        5.756      863.201
05/10/2014  23:37:00     -116.294      162.387      -19.417       93.681       88.042       56.230     8776.118     7751.458     3161.800        2.998        0.984      199.735       65.003        0.106      335.273        5.795      863.183
05/10/2014  23:38:00     -138.100      177.167      -23.666      108.374       76.837       47.715    11744.971     5903.955     2276.723        3.547        0.996      224.633       47.006        0.044      335.265        5.781      863.203
05/10/2014  23:39:00     -230.692      217.045      -57.182      104.520      105.271       72.829    10924.343    11081.931     5304.000        6.545        1.366      316.745       70.113        0.049      335.247        5.750      863.211
05/10/2014  23:40:00     -156.951      228.036      -27.592       98.432      126.558       62.981     9688.861    16017.023     3966.621        5.353        1.484      276.828       69.167        0.062      335.217        5.701      863.218
05/10/2014  23:41:00      -60.605      129.622      -20.094       58.777       88.912       38.409     3454.717     7905.329     1475.251        1.685        0.642      143.090       38.662        0.073      335.232        5.726      863.219
05/10/2014  23:42:00      -67.214      125.038      -13.019       53.949       85.495       34.656     2910.503     7309.338     1201.005        1.587        0.571      141.958       40.761        0.082      335.256        5.767      863.230
05/10/2014  23:43:00     -144.172      113.288      -17.681      108.655      121.729       73.203    11805.885    14817.839     5358.749        3.295        1.599      183.357       85.732        0.219      335.214        5.695      863.236
05/10/2014  23:44:00      -66.003       86.160      -10.462       80.607       54.035       40.822     6497.473     2919.768     1666.449        1.148        0.554      108.535       48.921        0.203      335.240        5.742      863.227
05/10/2014  23:45:00     -140.552      140.091      -29.584       81.323      101.936       42.117     6613.451    10390.852     1773.873        2.951        0.939      198.445       50.306        0.064      335.231        5.725      863.239
05/10/2014  23:46:00     -151.598      284.939      -37.985      121.364      166.342       68.906    14729.309    27669.664     4748.016        7.637        2.357      322.757       68.133        0.045      335.252        5.758      863.236
05/10/2014  23:47:00     -187.101      299.869      -56.142      105.072      117.271       64.948    11040.177    13752.532     4218.216        7.854        1.451      353.451       62.293        0.031      335.242        5.742      863.237
05/10/2014  23:48:00     -180.429      183.840      -32.328       84.927       93.176       50.274     7212.538     8681.701     2527.442        4.291        0.921      257.588       28.987        0.013      335.261        5.772      863.250
05/10/2014  23:49:00     -182.514      227.608      -32.903      130.331      172.709       77.159    16986.129    29828.362     5953.526        6.947        2.638      291.747       95.120        0.106      335.257        5.767      863.282
05/10/2014  23:50:00     -199.302      240.435      -43.868       97.660      122.933       65.058     9537.540    15112.419     4232.514        6.416        1.444      312.298       62.430        0.040      335.283        5.811      863.273
05/10/2014  23:51:00     -137.313      245.025      -41.026      143.662      176.660       65.915    20638.744    31208.762     4344.783        6.837        2.810      280.878       82.994        0.087      335.307        5.850      863.305
05/10/2014  23:52:00      -80.188      144.327        5.856       87.560      123.954       63.197     7666.834    15364.536     3993.906        2.715        1.351      165.108       75.214        0.208      335.296        5.835      863.299
05/10/2014  23:53:00     -161.124      245.246      -42.542       85.709      133.524       57.010     7345.997    17828.614     3250.085        5.816        1.421      293.439       58.424        0.040      335.292        5.825      863.321
05/10/2014  23:54:00     -156.131      289.774      -30.160      112.648      157.780       77.681    12689.476    24894.392     6034.358        7.643        2.181      329.159       70.085        0.045      335.317        5.866      863.296
05/10/2014  23:55:00     -183.748      196.880      -45.586       88.971      152.556       68.081     7915.820    23273.245     4634.974        5.521        1.791      269.305       54.408        0.041      335.305        5.846      863.290
05/10/2014  23:56:00     -162.474      171.287      -30.133      114.567      107.003       66.238    13125.583    11449.640     4387.441        4.280        1.448      236.087       64.188        0.074      335.287        5.817      863.290
05/10/2014  23:57:00     -122.077      223.029      -20.444       95.296      121.044       62.715     9081.412    14651.557     3933.232        4.636        1.383      254.254       60.154        0.056      335.291        5.824      863.300
05/10/2014  23:58:00     -194.142      243.662      -39.990      127.405      157.239       81.700    16232.132    24723.974     6674.828        7.314        2.382      311.548       65.250        0.044      335.291        5.823      863.313
05/10/2014  23:59:00     -155.342      223.538      -26.356      101.946       98.973       53.593    10392.929     9795.715     2872.236        4.892        1.153      272.214       59.729        0.048      335.269        5.788      863.326
